[[{"header":{"parameterUnit":"m.s-1","parameterCategory":1,"la1":30.6,"la2":29.2853,"lo1":-89.7004,"lo2":-87.6739,"dy":0.0162,"dx":0.0183,"nx":112,"ny":82,"refTime":"2025-07-11T12:00:00:Z","depth":0,"parameterNumber":2,"parameterNumberName":"U-component_of_WINDS"},"data":[0.0,0.0,0.0,0.0,0.0,0.0,0.0,0.0,0.0,0.0,0.0,0.0,0.0,0.0,0.0,0.0,0.0,0.0,0.0,0.0,0.0,0.0,0.0,0.0,0.0,0.0,0.0,0.0,0.0,0.0,0.0,0.0,0.0,0.0,0.0,0.0,0.0,0.0,0.0,0.0,0.0,0.0,0.0,0.0,0.0,0.0,0.0,0.0,0.0,0.0,0.0,0.0,0.0,0.0,0.0,0.0,0.0,0.0,0.0,0.0,0.0,0.0,0.0,0.0,0.0,0.0,0.0,0.0,0.0,0.0,0.0,0.0,0.0,0.0,0.0,0.0,0.0,0.0,0.0,0.0,0.0,0.0,0.0,0.0,0.0,0.0,0.0,0.0,0.0,0.0,0.0,-1.1375,-1.3231,-1.4451,-1.4619,-1.4812,-1.3608,-1.0495,0.0,0.0,0.0,0.0,0.0,0.0,0.0,0.0,0.0,0.0,0.0,0.0,0.0,0.0,0.0,0.0,0.0,0.0,0.0,0.0,0.0,0.0,0.0,0.0,0.0,0.0,0.0,0.0,0.0,0.0,0.0,0.0,0.0,0.0,0.0,0.0,0.0,0.0,0.0,0.0,0.0,0.0,0.0,0.0,0.0,0.0,0.0,0.0,0.0,0.0,0.0,0.0,0.0,0.0,0.0,0.0,0.0,0.0,0.0,0.0,0.0,0.0,0.0,0.0,0.0,0.0,0.0,0.0,0.0,0.0,0.0,0.0,0.0,0.0,0.0,0.0,0.0,0.0,0.0,0.0,0.0,0.0,0.0,0.0,0.0,0.0,0.0,0.0,0.0,0.0,0.0,0.0,0.0,0.0,0.0,0.0,0.0,0.0,0.0,0.0,0.0,0.0,0.0,0.0,-1.0522,-1.289,-1.3842,-1.4322,-1.4346,-1.4747,-1.3643,-1.0496,0.0,0.0,0.0,0.0,0.0,0.0,0.0,0.0,0.0,0.0,0.0,0.0,0.0,0.0,0.0,0.0,0.0,0.0,0.0,0.0,0.0,0.0,0.0,0.0,0.0,0.0,0.0,0.0,0.0,0.0,0.0,0.0,0.0,0.0,0.0,0.0,0.0,0.0,0.0,0.0,0.0,0.0,0.0,0.0,0.0,0.0,0.0,0.0,0.0,0.0,0.0,0.0,0.0,0.0,0.0,0.0,0.0,0.0,0.0,0.0,0.0,0.0,0.0,0.0,0.0,0.0,0.0,0.0,0.0,0.0,0.0,0.0,0.0,0.0,0.0,0.0,0.0,0.0,0.0,0.0,0.0,0.0,0.0,0.0,0.0,0.0,0.0,0.0,0.0,0.0,0.0,0.0,0.0,0.0,0.0,0.0,0.0,0.0,0.0,0.0,0.0,0.0,0.0,-1.0245,-1.1387,-1.4025,-1.4484,-1.4622,-1.4725,-1.4998,-1.3763,-1.0508,-1.011,0.0,0.0,0.0,0.0,0.0,0.0,0.0,0.0,0.0,0.0,0.0,0.0,0.0,0.0,0.0,0.0,0.0,0.0,0.0,0.0,0.0,0.0,0.0,0.0,0.0,0.0,0.0,0.0,0.0,0.0,0.0,0.0,0.0,0.0,0.0,0.0,0.0,0.0,0.0,0.0,0.0,0.0,0.0,0.0,0.0,0.0,0.0,0.0,0.0,0.0,0.0,0.0,0.0,0.0,0.0,0.0,0.0,0.0,0.0,0.0,0.0,0.0,0.0,0.0,0.0,0.0,0.0,0.0,0.0,0.0,0.0,0.0,0.0,0.0,0.0,0.0,0.0,0.0,0.0,0.0,0.0,0.0,0.0,0.0,0.0,0.0,0.0,0.0,0.0,0.0,0.0,0.0,0.0,0.0,0.0,0.0,0.0,0.0,0.0,0.0,0.0,0.0,-1.1427,-1.2337,-1.4602,-1.4731,-1.478,-1.498,-1.4968,-1.3599,-1.0405,-0.9932,0.0,0.0,0.0,0.0,0.0,0.0,0.0,0.0,0.0,0.0,0.0,0.0,0.0,0.0,0.0,0.0,0.0,0.0,0.0,0.0,0.0,0.0,0.0,0.0,0.0,0.0,0.0,0.0,0.0,0.0,0.0,0.0,0.0,0.0,0.0,0.0,0.0,0.0,0.0,0.0,0.0,0.0,0.0,0.0,0.0,0.0,0.0,0.0,0.0,0.0,0.0,0.0,0.0,0.0,0.0,0.0,0.0,0.0,0.0,0.0,0.0,0.0,0.0,0.0,0.0,0.0,0.0,0.0,0.0,0.0,0.0,0.0,0.0,0.0,0.0,0.0,0.0,0.0,0.0,0.0,0.0,0.0,0.0,0.0,0.0,0.0,0.0,0.0,0.0,0.0,0.0,0.0,0.0,0.0,0.0,0.0,0.0,0.0,0.0,0.0,0.0,0.0,-1.1375,-1.3047,-1.4217,-1.4353,-1.4447,-1.4715,-1.4218,-1.2767,-1.0094,-0.9392,0.0,0.0,0.0,0.0,0.0,0.0,0.0,0.0,0.0,0.0,0.0,0.0,0.0,0.0,0.0,0.0,0.0,0.0,0.0,0.0,0.0,0.0,0.0,0.0,0.0,0.0,0.0,0.0,0.0,0.0,0.0,0.0,0.0,0.0,0.0,0.0,0.0,0.0,0.0,0.0,0.0,0.0,0.0,0.0,0.0,0.0,0.0,0.0,0.0,0.0,0.0,0.0,0.0,0.0,0.0,0.0,0.0,0.0,0.0,0.0,0.0,0.0,0.0,0.0,0.0,0.0,0.0,0.0,0.0,0.0,0.0,0.0,0.0,0.0,0.0,0.0,0.0,0.0,0.0,0.0,0.0,0.0,0.0,0.0,0.0,0.0,0.0,0.0,0.0,0.0,0.0,0.0,0.0,0.0,0.0,0.0,0.0,0.0,0.0,0.0,0.0,0.0,-1.0786,-1.2367,0.0,-1.4309,-1.4487,-1.4903,-1.5093,-1.3879,-1.084,0.0,0.0,0.0,0.0,0.0,0.0,0.0,0.0,0.0,0.0,0.0,0.0,0.0,0.0,0.0,0.0,0.0,0.0,0.0,0.0,0.0,0.0,0.0,0.0,0.0,0.0,0.0,0.0,0.0,0.0,0.0,0.0,0.0,0.0,0.0,0.0,0.0,0.0,0.0,0.0,0.0,0.0,0.0,0.0,0.0,0.0,0.0,0.0,0.0,0.0,0.0,0.0,0.0,0.0,0.0,0.0,0.0,0.0,0.0,0.0,0.0,0.0,0.0,0.0,0.0,0.0,0.0,0.0,0.0,0.0,0.0,0.0,0.0,0.0,0.0,0.0,0.0,0.0,0.0,0.0,0.0,0.0,0.0,0.0,0.0,0.0,0.0,0.0,0.0,0.0,0.0,0.0,0.0,0.0,0.0,0.0,0.0,0.0,0.0,0.0,0.0,0.0,-0.9401,-1.0738,-1.2346,0.0,-1.4467,-1.4651,-1.5159,-1.5608,-1.4493,-1.1244,0.0,0.0,0.0,0.0,0.0,0.0,0.0,0.0,0.0,0.0,0.0,0.0,0.0,0.0,0.0,0.0,0.0,0.0,0.0,0.0,0.0,0.0,0.0,0.0,0.0,0.0,0.0,0.0,0.0,0.0,0.0,0.0,0.0,0.0,0.0,0.0,0.0,0.0,0.0,0.0,0.0,0.0,0.0,0.0,0.0,0.0,0.0,0.0,0.0,0.0,0.0,0.0,0.0,0.0,0.0,0.0,0.0,0.0,0.0,0.0,0.0,0.0,0.0,0.0,0.0,0.0,0.0,0.0,0.0,0.0,0.0,0.0,0.0,0.0,0.0,0.0,0.0,0.0,0.0,0.0,0.0,0.0,0.0,0.0,0.0,0.0,0.0,0.0,0.0,0.0,0.0,0.0,0.0,0.0,0.0,0.0,0.0,0.0,0.0,0.0,0.0,0.0,-0.951,-1.1379,-1.3247,-1.4649,-1.4799,-1.4961,-1.5385,-1.5543,-1.4289,0.0,0.0,0.0,0.0,0.0,0.0,0.0,0.0,0.0,0.0,0.0,0.0,0.0,0.0,0.0,0.0,0.0,0.0,0.0,0.0,0.0,0.0,0.0,0.0,0.0,0.0,0.0,0.0,0.0,0.0,0.0,0.0,0.0,0.0,0.0,0.0,0.0,0.0,0.0,0.0,0.0,0.0,0.0,0.0,0.0,0.0,0.0,0.0,0.0,0.0,0.0,0.0,0.0,0.0,0.0,0.0,0.0,0.0,0.0,0.0,0.0,0.0,0.0,0.0,0.0,0.0,0.0,0.0,0.0,0.0,0.0,0.0,0.0,0.0,0.0,0.0,0.0,0.0,0.0,0.0,0.0,0.0,0.0,0.0,0.0,0.0,0.0,0.0,0.0,0.0,0.0,0.0,0.0,0.0,0.0,0.0,0.0,0.0,0.0,0.0,0.0,0.0,0.0,-1.0072,-1.1689,-1.3216,-1.4384,-1.4514,-1.4937,-1.5951,-1.6461,-1.5504,-1.2622,0.0,0.0,0.0,0.0,0.0,0.0,0.0,0.0,0.0,0.0,0.0,0.0,0.0,0.0,0.0,0.0,0.0,0.0,0.0,0.0,0.0,0.0,0.0,0.0,0.0,0.0,0.0,0.0,0.0,0.0,0.0,0.0,0.0,0.0,0.0,0.0,0.0,0.0,0.0,0.0,0.0,0.0,0.0,0.0,0.0,0.0,0.0,0.0,0.0,0.0,0.0,0.0,0.0,0.0,0.0,0.0,0.0,0.0,0.0,0.0,0.0,0.0,0.0,0.0,0.0,0.0,0.0,0.0,0.0,0.0,0.0,0.0,0.0,0.0,0.0,0.0,0.0,0.0,0.0,0.0,0.0,0.0,0.0,0.0,0.0,0.0,0.0,0.0,0.0,0.0,0.0,0.0,0.0,0.0,0.0,0.0,0.0,0.0,0.0,0.0,0.0,0.0,-1.0543,-1.2456,-1.4056,-1.4796,-1.5254,-1.5795,-1.6467,-1.725,-1.6504,-1.364,0.0,0.0,0.0,0.0,0.0,0.0,0.0,0.0,0.0,0.0,0.0,0.0,0.0,0.0,0.0,0.0,0.0,0.0,0.0,0.0,0.0,0.0,0.0,0.0,0.0,0.0,0.0,0.0,0.0,0.0,0.0,0.0,0.0,0.0,0.0,0.0,0.0,0.0,0.0,0.0,0.0,0.0,0.0,0.0,0.0,0.0,0.0,0.0,0.0,0.0,0.0,0.0,0.0,0.0,0.0,0.0,0.0,0.0,0.0,0.0,0.0,0.0,0.0,0.0,0.0,0.0,0.0,0.0,0.0,0.0,0.0,0.0,0.0,0.0,0.0,0.0,0.0,0.0,0.0,0.0,0.0,0.0,0.0,0.0,0.0,0.0,0.0,0.0,0.0,0.0,0.0,0.0,0.0,0.0,0.0,0.0,0.0,0.0,0.0,0.0,0.0,0.0,-1.0986,-1.3441,-1.5265,-1.5625,-1.6494,-1.7049,-1.7027,-1.789,-1.7232,-1.4373,0.0,0.0,0.0,0.0,0.0,0.0,0.0,0.0,0.0,0.0,0.0,0.0,0.0,0.0,0.0,0.0,0.0,0.0,0.0,0.0,0.0,0.0,0.0,0.0,0.0,0.0,0.0,0.0,0.0,0.0,0.0,0.0,0.0,0.0,0.0,0.0,0.0,0.0,0.0,0.0,0.0,0.0,0.0,0.0,0.0,0.0,0.0,0.0,0.0,0.0,0.0,0.0,0.0,0.0,0.0,0.0,0.0,0.0,0.0,0.0,-1.9353,0.0,0.0,0.0,0.0,0.0,0.0,0.0,0.0,0.0,0.0,0.0,0.0,0.0,0.0,0.0,0.0,0.0,0.0,0.0,0.0,0.0,0.0,0.0,0.0,0.0,0.0,0.0,0.0,0.0,0.0,0.0,0.0,0.0,0.0,0.0,0.0,0.0,0.0,0.0,0.0,0.0,-1.1861,-1.3636,-1.5139,-1.5977,-1.5947,-1.6446,-1.7873,-1.792,-1.7237,-1.5748,0.0,0.0,0.0,0.0,0.0,0.0,0.0,0.0,0.0,0.0,0.0,0.0,0.0,0.0,0.0,0.0,0.0,0.0,0.0,0.0,0.0,0.0,0.0,0.0,0.0,0.0,0.0,0.0,0.0,0.0,0.0,0.0,0.0,0.0,0.0,0.0,0.0,0.0,0.0,0.0,0.0,0.0,0.0,0.0,0.0,0.0,0.0,0.0,0.0,0.0,0.0,0.0,0.0,0.0,0.0,0.0,0.0,0.0,0.0,0.0,0.0,-2.0379,0.0,0.0,0.0,0.0,0.0,0.0,0.0,0.0,0.0,0.0,0.0,0.0,0.0,0.0,0.0,0.0,0.0,0.0,0.0,0.0,0.0,0.0,0.0,0.0,0.0,0.0,0.0,0.0,0.0,0.0,0.0,0.0,0.0,0.0,0.0,0.0,0.0,0.0,0.0,0.0,-1.3045,-1.5125,-1.659,-1.6804,-1.706,-1.7508,-1.8187,-1.8338,-1.7896,-1.6743,-1.5887,0.0,0.0,0.0,0.0,0.0,0.0,0.0,0.0,0.0,0.0,0.0,0.0,0.0,0.0,0.0,0.0,0.0,0.0,0.0,0.0,0.0,0.0,0.0,0.0,0.0,0.0,0.0,0.0,0.0,0.0,0.0,0.0,0.0,0.0,0.0,0.0,0.0,0.0,0.0,0.0,0.0,0.0,0.0,0.0,0.0,0.0,0.0,0.0,0.0,0.0,0.0,0.0,0.0,0.0,0.0,-2.8455,-2.8455,-2.8799,-2.9251,-2.5975,-2.4392,-2.3913,0.0,0.0,0.0,0.0,0.0,0.0,0.0,0.0,0.0,0.0,0.0,0.0,0.0,0.0,0.0,0.0,0.0,0.0,0.0,0.0,0.0,0.0,0.0,0.0,0.0,-1.9207,-1.9386,0.0,0.0,0.0,0.0,0.0,0.0,0.0,0.0,0.0,0.0,0.0,0.0,-1.4354,-1.6752,-1.8201,-1.7721,-1.8394,-1.8741,-1.8386,-1.876,-1.8555,-1.7562,-1.6754,-1.5422,0.0,0.0,0.0,0.0,0.0,0.0,0.0,0.0,0.0,0.0,0.0,0.0,0.0,0.0,0.0,0.0,0.0,0.0,0.0,0.0,0.0,0.0,0.0,0.0,0.0,0.0,0.0,0.0,0.0,0.0,0.0,0.0,-1.4855,-1.5759,0.0,0.0,0.0,0.0,0.0,0.0,0.0,0.0,0.0,0.0,0.0,0.0,0.0,0.0,-2.6283,-2.7097,-2.8346,-3.0056,-3.0749,-3.1618,-3.2614,-3.2614,-3.2669,-3.2741,-3.2216,0.0,-2.6778,-2.5584,0.0,0.0,0.0,0.0,0.0,0.0,0.0,0.0,0.0,0.0,0.0,0.0,0.0,0.0,0.0,0.0,0.0,0.0,0.0,0.0,0.0,0.0,-2.1217,-2.101,-2.0666,-2.0362,0.0,-1.8025,-1.5515,-1.408,0.0,0.0,0.0,0.0,0.0,0.0,0.0,0.0,-1.5776,-1.7077,-1.802,-1.8329,-1.8145,-1.826,-1.8931,-1.8726,-1.8511,-1.8349,-1.8063,-1.7017,-1.5077,-1.4256,0.0,0.0,0.0,0.0,0.0,0.0,0.0,0.0,0.0,0.0,0.0,0.0,0.0,0.0,0.0,0.0,0.0,0.0,0.0,0.0,0.0,0.0,0.0,0.0,0.0,0.0,0.0,0.0,0.0,-1.5118,-1.699,-1.8745,-1.8941,-1.8787,0.0,0.0,0.0,0.0,0.0,0.0,0.0,0.0,0.0,-2.5414,-2.7145,-2.892,-3.0749,-3.2021,-3.2998,-3.3701,-3.4063,-3.4407,-3.4751,-3.4751,-3.4751,-3.4751,-3.4751,-3.3487,-3.1301,-2.9327,-2.7321,-2.5319,0.0,0.0,0.0,0.0,0.0,-2.325,-2.3367,0.0,0.0,0.0,0.0,0.0,0.0,0.0,0.0,0.0,0.0,0.0,0.0,0.0,0.0,-2.2179,-2.1984,-2.1882,-2.1752,-2.0511,-1.8869,0.0,-1.6547,-1.576,-1.3115,0.0,0.0,0.0,0.0,0.0,-1.6811,-1.7871,-1.8611,-1.8822,-1.8649,-1.8688,-1.9064,-1.8936,-1.8841,-1.8841,-1.8761,-1.8075,-1.6655,-1.5694,-1.423,0.0,0.0,0.0,0.0,0.0,0.0,0.0,0.0,0.0,0.0,0.0,0.0,0.0,0.0,0.0,0.0,0.0,0.0,0.0,0.0,0.0,0.0,0.0,0.0,0.0,0.0,0.0,0.0,-1.6913,-1.8928,-2.1149,-2.179,-2.1878,0.0,0.0,0.0,0.0,0.0,0.0,-2.4505,-2.5827,-2.7562,-2.9758,-3.1981,-3.3411,-3.4009,-3.5188,-3.5894,-3.6109,-3.6109,-3.6218,-3.6417,-3.6417,-3.6417,-3.6417,-3.6417,-3.6073,-3.5297,-3.2475,-3.055,-2.9262,-2.7879,-2.7051,0.0,-2.6674,-2.6667,-2.6698,-2.7027,-2.7472,-2.7668,-2.6388,0.0,-2.463,-2.3536,0.0,0.0,0.0,0.0,-2.291,-2.3635,0.0,-2.4012,-2.3389,-2.3437,-2.3474,-2.2798,-2.26,-2.1873,0.0,-1.9406,-1.8585,-1.5433,0.0,0.0,0.0,0.0,-1.7345,-1.7832,-1.8611,-1.9101,-1.9101,-1.9101,-1.9101,-1.9101,-1.9101,-1.9101,-1.9101,-1.9101,-1.8757,-1.8014,-1.7068,-1.5856,-1.4353,0.0,0.0,0.0,0.0,0.0,0.0,0.0,0.0,0.0,0.0,0.0,0.0,0.0,0.0,0.0,0.0,0.0,0.0,0.0,0.0,0.0,0.0,0.0,0.0,0.0,0.0,0.0,0.0,0.0,-2.2067,-2.37,0.0,0.0,0.0,0.0,-2.4504,-2.5521,-2.6933,-2.8706,-3.0,-3.1437,-3.3103,-3.4754,-3.5641,-3.5677,-3.575,-3.6182,-3.6941,-3.6941,-3.7339,-3.8082,-3.8082,-3.8082,-3.8082,-3.8082,-3.8064,-3.7774,-3.4573,-3.3015,-3.2543,-3.1245,-3.0994,-3.1313,-3.0874,-3.0653,-3.0543,-2.9933,-2.9618,-2.9343,-2.8574,-2.7786,-2.7116,-2.7052,-2.6215,0.0,0.0,-2.6416,-2.6012,-2.6635,-2.6377,-2.5837,-2.5378,-2.5168,-2.493,-2.4326,-2.4097,-2.3572,0.0,-2.1322,-2.0654,-1.9865,0.0,-1.8879,-1.8832,-1.8426,-1.8357,-1.8933,-1.9068,-1.9101,-1.9101,-1.9101,-1.9101,-1.9101,-1.9101,-1.9101,-1.9101,-1.9101,-1.9087,-1.9039,-1.8593,-1.7786,-1.6553,-1.4614,0.0,0.0,0.0,0.0,0.0,0.0,0.0,0.0,0.0,0.0,0.0,0.0,0.0,0.0,0.0,0.0,0.0,0.0,0.0,0.0,0.0,0.0,0.0,0.0,0.0,0.0,0.0,0.0,-2.5919,-2.6857,0.0,0.0,-2.8277,-2.9325,-2.9992,-3.0808,-3.2168,-3.4202,-3.4178,-3.4824,-3.6435,-3.7051,-3.7594,-3.8119,-3.859,-3.8953,-3.926,-3.926,-3.9405,-3.9659,-3.9188,-3.9224,-3.9623,-3.8627,-3.8499,-3.8826,-3.7178,-3.6116,-3.5427,-3.4172,-3.3809,-3.3812,-3.2609,-3.2378,-3.2473,-3.0952,-3.0929,-3.1468,-3.0734,-2.9984,-2.9268,-2.8804,-2.7873,-2.7136,-2.7968,-2.7798,-2.7549,-2.8164,-2.7876,-2.7154,-2.6252,-2.5932,-2.5575,-2.4633,-2.4315,-2.4076,-2.3575,-2.2476,-2.1438,-2.0785,-2.048,-2.019,-1.9798,-1.9885,-2.0074,-2.0291,-1.9986,-1.974,-1.974,-1.9362,-1.9101,-1.9101,-1.9101,-1.9101,-1.9101,-1.9101,-1.9101,-1.9101,-1.8969,-1.8309,-1.7061,-1.5927,-1.4055,0.0,0.0,0.0,0.0,0.0,0.0,0.0,0.0,0.0,0.0,0.0,0.0,0.0,0.0,0.0,0.0,0.0,0.0,0.0,0.0,0.0,0.0,0.0,0.0,0.0,0.0,-2.5852,-2.8194,-2.9283,-3.0035,-3.0537,-3.1708,-3.298,-3.4295,-3.5174,-3.6302,-3.7809,-3.739,-3.7487,-3.8287,-3.8496,-3.8844,-3.9387,-3.9876,-4.0239,-4.0492,-4.0492,-4.0492,-4.0474,-4.0003,-4.0039,-4.0438,-3.9423,-3.9278,-3.9713,-3.8916,-3.8299,-3.7686,-3.6466,-3.597,-3.5812,-3.4472,-3.4235,-3.4329,-3.2563,-3.2171,-3.243,-3.2132,-3.1508,-3.0787,-3.029,-2.9613,-2.9058,-2.9265,-2.9119,-2.8994,-2.9243,-2.9108,-2.8578,-2.7355,-2.711,-2.6834,-2.5482,-2.4928,-2.4612,-2.4405,-2.3296,-2.2222,-2.1792,-2.1503,-2.1191,-2.0799,-2.0886,-2.1003,-2.1003,-2.0654,-2.032,-2.0117,-1.9696,-1.9348,-1.9116,-1.9101,-1.9101,-1.9101,-1.9101,-1.9101,-1.9101,-1.8912,-1.8404,-1.7545,-1.6418,-1.4683,-1.227,0.0,0.0,0.0,0.0,0.0,0.0,0.0,0.0,0.0,0.0,0.0,0.0,0.0,0.0,0.0,0.0,0.0,0.0,0.0,0.0,0.0,0.0,0.0,-2.2513,-2.5437,-2.7869,-2.8669,-3.0892,-3.2411,-3.2458,-3.4353,-3.6036,-3.7125,-3.829,-3.9031,-3.9258,-3.9543,-3.9351,-3.8601,-3.9107,-3.9405,-3.9423,-3.9423,-3.9804,-4.0528,-4.0528,-4.0546,-4.0564,-4.0546,-4.0546,-4.0564,-4.051,-4.051,-4.0474,-3.9713,-3.9387,-3.9262,-3.8008,-3.7523,-3.7432,-3.6618,-3.6301,-3.6092,-3.4854,-3.3407,-3.2211,-3.2789,-3.2392,-3.1664,-3.1664,-3.1648,-3.1482,-3.0737,-3.0522,-3.0417,-2.9941,-3.0156,-3.0135,-2.8693,-2.8732,-2.8654,-2.7004,-2.6022,-2.5271,-2.4662,-2.3768,-2.3134,-2.3119,-2.2505,-2.2019,-2.2033,-2.1481,0.0,-2.1061,-2.1032,-2.0799,-2.019,-2.0117,-1.9827,-1.9159,-1.9101,-1.9101,-1.9101,-1.9101,-1.9101,-1.9101,-1.855,-1.8212,-1.8212,-1.6236,-1.4691,-1.3648,0.0,0.0,0.0,0.0,0.0,0.0,0.0,0.0,0.0,0.0,0.0,0.0,0.0,0.0,0.0,0.0,0.0,0.0,0.0,0.0,0.0,0.0,-2.7008,-2.6953,-2.8351,-3.0067,-3.193,-3.3356,-3.4602,-3.5681,-3.685,-3.8085,-3.9384,-3.9811,-4.0168,-4.0629,-4.0042,-3.9865,-4.0215,-3.9688,-3.9659,-4.0202,-4.0202,-4.0583,-4.1361,-4.1361,-4.1687,-4.2212,-4.1651,-4.1705,-4.2176,-4.1017,-4.0836,-4.127,-3.9948,-3.9387,-3.9315,-3.8361,-3.802,-3.7898,-3.7054,-3.6305,-3.5667,-3.5194,-3.4767,-3.4398,-3.4468,-3.3966,-3.3306,-3.3216,-3.2812,-3.2249,-3.1499,-3.13,-3.1146,-3.0474,-3.0405,-3.0305,-2.9556,-2.9506,-2.9284,-2.8097,-2.7291,-2.648,-2.5488,-2.4654,-2.3902,-2.3215,-2.2936,-2.2753,-2.2664,0.0,0.0,-2.2388,-2.2004,-2.1481,-2.0814,-2.0364,-1.9827,-1.9159,-1.9101,-1.9101,0.0,-1.9101,-1.9101,-1.9101,-1.8941,-1.8724,-1.8427,-1.6582,-1.5397,0.0,0.0,0.0,0.0,0.0,0.0,0.0,0.0,0.0,0.0,0.0,0.0,0.0,0.0,0.0,0.0,0.0,0.0,0.0,0.0,0.0,0.0,-2.8104,-3.0021,-3.0622,-3.1176,-3.2152,-3.3836,-3.51,-3.6446,-3.8037,-3.8888,-3.9827,-4.0988,-4.1067,-4.1068,-4.1039,-4.0725,-4.0541,-4.0561,-4.022,-4.0343,-4.0999,-4.0999,-4.1397,-4.2212,-4.2212,-4.2448,-4.2883,-4.2411,-4.2466,0.0,-4.1904,-4.1778,-4.2122,-4.0872,-4.0365,0.0,0.0,0.0,0.0,0.0,-3.6433,-3.5795,-3.5526,-3.5406,-3.536,-3.5291,-3.4944,-3.4457,-3.4027,-3.3582,-3.3078,-3.2266,-3.183,-3.1499,-3.1068,-3.0737,-3.0384,-2.9919,-2.9793,-2.9595,-2.8803,-2.8109,-2.7355,-2.6374,0.0,0.0,-2.3679,-2.3334,-2.3157,-2.309,-2.3023,-2.2992,0.0,-2.2628,-2.2127,-2.1481,-2.1104,-2.0524,-1.9595,-1.9522,0.0,0.0,0.0,-1.8985,-1.8738,-1.8724,0.0,0.0,0.0,0.0,0.0,0.0,0.0,0.0,-1.3794,-1.339,0.0,0.0,0.0,0.0,0.0,0.0,0.0,0.0,0.0,0.0,0.0,0.0,0.0,0.0,0.0,0.0,-2.9901,-3.2019,-3.3553,-3.3769,-3.4051,-3.4845,-3.6381,-3.8014,-3.9534,-4.0447,-4.1191,-4.1817,-4.1854,-4.1554,-4.0835,0.0,0.0,0.0,0.0,-4.1299,-4.1813,-4.1831,-4.2194,-4.2901,-4.2901,-4.2901,-4.2901,-4.2901,-4.2901,-4.2901,-4.2901,-4.2901,-4.2847,-4.2012,-4.165,-4.1343,-3.917,-3.8302,-3.8146,-3.7299,-3.6678,0.0,0.0,0.0,0.0,-3.5492,-3.5423,-3.5174,-3.4391,-3.4128,-3.3956,-3.3095,-3.2299,-3.1697,-3.1615,-3.1052,-3.0405,-2.9984,-2.9875,-2.975,-2.928,-2.8697,-2.8047,-2.7168,-2.6195,-2.5216,-2.4263,-2.3674,-2.3319,-2.3297,-2.3201,0.0,-2.3105,-2.2992,-2.2701,-2.2062,0.0,0.0,-2.0306,-2.0204,-1.9943,-1.9348,-1.9304,-1.9072,-1.855,-1.8521,-1.8521,-1.8521,-1.811,-1.8405,-1.9425,-1.8449,-1.8129,-1.8372,-1.5849,-1.5136,0.0,0.0,0.0,0.0,0.0,0.0,0.0,0.0,0.0,0.0,0.0,0.0,0.0,0.0,0.0,-3.1054,-3.2426,-3.3753,-3.5298,-3.5477,-3.5531,-3.5748,-3.7792,-3.9303,-3.9588,-4.0923,-4.1554,-4.1079,-4.1041,-4.0966,-4.0816,-4.0712,0.0,-4.2015,-4.1936,-4.2138,-4.2647,-4.2665,-4.2737,-4.2901,0.0,0.0,-4.2901,-4.2901,-4.2901,-4.2901,-4.2901,-4.2901,-4.2847,-4.2012,-4.1325,-4.0619,-3.9568,-3.8941,-3.8508,-3.7682,-3.6919,-3.6301,-3.6195,-3.591,-3.5571,-3.5514,-3.5469,-3.5412,-3.5124,-3.4981,0.0,-3.395,-3.3134,-3.2348,-3.1747,-3.1052,-3.0468,-3.0384,-3.0363,-3.0236,-2.9788,-2.9548,-2.8994,-2.7327,-2.6564,-2.5793,-2.4497,-2.3818,-2.3422,-2.3319,-2.3275,-2.3223,-2.3105,-2.3082,-2.279,-2.2084,-2.1989,-2.167,-2.0886,-2.0828,-2.077,-2.064,-2.0625,-2.0582,-2.0465,-2.0465,-2.0465,-2.0465,-2.037,-2.0282,-2.0182,-1.9459,-1.8957,-1.8678,-1.7506,-1.7024,0.0,0.0,0.0,0.0,0.0,0.0,0.0,0.0,0.0,0.0,0.0,-2.672,-2.7923,0.0,-3.1256,-3.2794,-3.4481,-3.5846,-3.6516,-3.7354,-3.7901,-3.7901,-3.9354,-4.0524,-4.0969,-4.1669,-4.1789,-4.1002,-4.0916,-4.091,-4.0898,-4.1638,-4.227,-4.2783,-4.3125,-4.328,-4.3213,-4.3195,-4.3105,-4.2901,-4.2901,-4.2901,-4.2901,-4.2901,-4.2901,-4.2901,-4.2901,-4.2901,-4.2883,-4.2466,-4.2067,-4.1615,-4.0854,-3.995,-3.8959,-3.8329,-3.7468,-3.6557,-3.6385,-3.6002,-3.56,-3.5549,-3.5566,-3.5543,-3.5429,-3.5337,-3.5201,-3.4685,-3.3983,-3.3167,-3.237,-3.1598,-3.0952,-3.0588,-3.0506,-3.0426,-3.0199,-3.0156,-2.9765,-2.8443,-2.7582,-2.6714,-2.5634,-2.4756,-2.4021,-2.3523,-2.3429,-2.3378,-2.3327,-2.3171,-2.2965,-2.26,-2.2491,-2.2185,-2.1554,-2.1191,-2.1003,-2.1003,-2.1003,-2.1003,-2.1003,-2.1003,-2.1003,-2.1003,-2.1003,-2.1058,-2.1212,-2.0598,-2.0348,-2.0398,-1.971,-1.8892,0.0,0.0,0.0,0.0,0.0,0.0,0.0,0.0,-2.6447,-2.7415,-2.8653,-3.0011,-3.1515,-3.2379,-3.3154,-3.4036,-3.6046,-3.7526,-3.7678,-3.8942,-3.9977,-4.028,-4.0722,-4.1248,-4.187,-4.1959,-4.1747,-4.1169,-4.1063,-4.1175,-4.1515,-4.2908,-4.3599,-4.339,-4.4119,-4.4204,-4.3619,-4.3555,-4.3335,-4.3014,-4.2939,-4.2901,-4.2901,-4.2901,-4.2901,-4.2901,-4.2901,-4.2901,-4.2901,-4.2901,-4.2901,-4.2847,-4.2194,-4.1089,-3.975,-3.9085,-3.8159,-3.7169,-3.6609,-3.6131,-3.5734,-3.5644,-3.56,-3.5577,-3.5543,-3.5514,-3.5446,-3.5245,-3.4601,-3.3822,-3.2968,-3.2171,-3.1416,-3.0671,-3.0506,-3.0506,-3.0506,-3.0506,-3.0274,-2.9529,-2.86,-2.7632,-2.6753,-2.5771,-2.48,-2.3882,-2.3689,-2.3618,-2.3509,-2.3327,-2.3171,-2.3149,-2.3045,-2.2774,-2.2265,-2.1685,-2.138,-2.138,-2.138,-2.138,-2.138,-2.138,-2.138,-2.138,-2.138,-2.1641,-2.2178,-2.165,-2.1619,-2.2044,-2.1479,-2.0398,-2.0636,-2.1155,-2.1641,-2.3228,-2.4274,-2.5885,0.0,0.0,-3.0089,-3.1668,-3.2138,-3.2527,-3.3377,-3.3694,-3.4295,-3.5685,-3.6755,-3.7879,-3.9222,-3.9592,-4.0318,-4.1923,-4.1518,-4.0855,-4.0241,-4.0817,-4.1215,-4.1192,-4.1181,-4.1825,-4.3322,-4.358,-4.39,-4.4329,-4.4455,-4.435,-4.4039,-4.3684,-4.3488,-4.342,-4.3069,-4.2901,-4.2901,-4.2901,-4.2901,-4.2901,-4.2901,-4.2901,-4.2901,-4.2901,-4.2901,-4.2901,-4.2792,-4.2212,-4.127,-3.9841,-3.8959,-3.8338,-3.7224,-3.6557,-3.6152,-3.5734,-3.56,-3.56,-3.5577,-3.5543,-3.5492,-3.5469,-3.4755,-3.3845,-3.3056,-3.2254,-3.1416,-3.0671,-3.0506,-3.0506,-3.0506,-3.0506,-3.0274,-2.9529,-2.9009,-2.8232,-2.6834,-2.6206,-2.5486,-2.4394,-2.4219,-2.403,-2.3575,-2.3466,-2.3422,-2.3297,-2.3253,-2.3194,-2.298,-2.2796,-2.2685,-2.2685,-2.2685,-2.2685,-2.2685,-2.2685,-2.2685,-2.2685,-2.2685,-2.2714,-2.2786,-2.2317,-2.2114,-2.2147,-2.1623,-2.089,-2.4537,-2.5119,0.0,0.0,-2.8561,-2.9898,-3.1197,-3.1962,-3.2611,-3.3318,-3.3813,-3.42,-3.456,-3.4628,-3.5164,0.0,-3.8077,-3.9453,-4.1154,-4.087,-4.0814,-4.1657,-4.0648,-4.0137,-4.0775,-4.1056,-4.1254,-4.1366,-4.177,-4.2506,-4.3703,-4.4303,-4.4699,-4.4838,-4.4929,-4.4795,-4.4441,-4.429,-4.4069,-4.3841,-4.3437,-4.3248,-4.3248,-4.3014,-4.2901,-4.2901,-4.2901,-4.2901,-4.2901,-4.2901,-4.2901,-4.2901,-4.2901,-4.2683,-4.2266,-4.1162,-3.9878,-3.8628,-3.812,-3.7226,-3.628,-3.6067,-3.5805,-3.56,-3.56,-3.5594,-3.5566,-3.5514,-3.5188,-3.4678,-3.3879,-3.3328,-3.2707,-3.1523,-3.1215,-3.1019,-3.0588,-3.0506,-3.0406,-3.0092,-2.9556,-2.894,-2.8332,-2.7408,-2.6506,-2.5751,-2.4864,-2.4114,-2.361,-2.3516,-2.3466,-2.3319,-2.3297,-2.3246,-2.3105,-2.306,-2.2992,-2.2888,-2.2888,-2.2888,-2.2888,-2.2888,-2.2888,-2.2888,-2.2888,-2.2888,-2.2888,-2.3089,-2.2996,-2.2629,-2.3141,-2.2857,-2.6905,0.0,0.0,-3.0472,-3.2145,-3.3291,-3.2955,-3.3815,-3.4694,-3.4694,-3.4931,-3.5134,-3.5193,-3.5151,0.0,-3.7401,-3.8964,-4.0561,-4.2297,-4.174,-4.1274,-4.1618,-4.0091,-3.9661,-4.1342,-4.1197,-4.1359,-4.2135,-4.2475,-4.312,-4.4168,-4.4891,-4.5265,-4.5159,-4.5254,-4.5162,-4.4875,-4.4758,-4.4553,-4.4261,-4.3856,-4.3603,-4.3488,-4.3087,-4.2901,-4.2901,-4.2901,-4.2901,-4.2901,-4.2901,-4.2901,-4.2901,-4.2901,-4.2901,-4.2828,-4.2248,-4.096,-3.9441,-3.89,-3.7927,-3.6914,-3.6564,-3.6156,-3.5783,-3.5783,-3.5694,-3.5577,-3.5543,-3.5514,-3.5301,-3.446,-3.3996,-3.344,-3.215,-3.1598,-3.1215,-3.0684,-3.0526,-3.0506,-3.0506,-3.0075,-2.9628,-2.943,-2.839,-2.7382,-2.6698,-2.5465,-2.4436,-2.3867,-2.3646,-2.3494,-2.3392,-2.3363,-2.3312,-2.3171,-2.3127,-2.3037,-2.2925,-2.2888,-2.2888,-2.2888,-2.2888,-2.2888,-2.2888,-2.2888,-2.2975,-2.3186,-2.3659,-2.3746,-2.3438,-2.4365,-2.4455,0.0,0.0,-3.0529,-3.2203,-3.3883,-3.5335,-3.6156,-3.6385,-3.6424,-3.6424,-3.5774,-3.5201,-3.5209,-3.5201,-3.573,-3.7338,-3.9003,-4.0636,-4.2196,-4.1762,-4.1599,-4.2466,-4.0444,-3.9661,0.0,-4.0778,-4.1332,-4.3739,-4.3223,-4.352,-4.5163,-4.5277,-4.5297,-4.5297,-4.5297,-4.5297,-4.5286,-4.4898,-4.4688,-4.4676,-4.4276,-4.3872,-4.3488,-4.3087,-4.2901,-4.2901,-4.2901,-4.2901,-4.2901,-4.2901,-4.2901,-4.2901,-4.2901,-4.2901,-4.2901,-4.2883,-4.232,-4.1323,-3.9387,-3.8683,-3.8428,-3.7263,-3.6597,-3.628,-3.628,-3.5958,-3.56,-3.56,-3.5566,-3.5323,-3.4588,-3.3755,-3.2947,-3.216,-3.1341,-3.0725,-3.0692,-3.0589,-3.0506,-3.0506,-3.0472,-3.0241,-2.9512,-2.882,-2.796,-2.6779,-2.5937,-2.5179,-2.4369,-2.3888,-2.361,-2.3595,-2.3538,-2.3444,-2.3297,-2.3157,-2.3037,-2.2925,-2.2888,-2.2888,-2.2888,-2.2888,-2.2888,-2.2888,-2.2888,-2.3229,-2.3862,-2.3876,-2.4196,-2.4728,-2.4795,-2.5129,0.0,0.0,-3.3108,-3.48,-3.605,-3.6948,-3.7234,-3.6882,-3.65,-3.65,-3.5381,-3.4407,-3.4407,-3.4407,-3.5125,-3.7305,-3.8547,-4.003,-4.2328,-4.1431,-4.0651,-4.1026,-3.9843,0.0,0.0,0.0,0.0,-4.3815,-4.3252,-4.352,-4.5211,-4.5307,-4.5307,-4.5307,-4.5307,-4.5307,-4.5307,-4.5162,-4.5098,-4.5087,-4.4688,-4.4161,-4.3505,-4.337,-4.3141,-4.2901,-4.2901,-4.2901,-4.2901,-4.2901,-4.2901,-4.2901,-4.2901,-4.2901,-4.2901,-4.2901,-4.2719,-4.232,-4.1105,-4.018,-3.9343,-3.8389,-3.7831,-3.7341,-3.6544,-3.6195,-3.6002,-3.5689,-3.5577,-3.5504,-3.5267,-3.4964,-3.4365,-3.316,-3.2567,-3.1992,-3.0929,-3.0671,-3.0609,-3.0526,-3.0506,-3.0423,-3.0174,-2.9549,-2.8616,-2.7278,-2.5934,-2.4902,-2.4364,-2.4156,-2.3952,-2.3638,-2.3588,-2.3523,-2.3444,-2.34,-2.3268,-2.306,-2.3037,-2.2992,-2.2888,-2.2888,-2.3113,-2.3557,-2.3572,-2.3891,-2.4559,-2.4975,-2.5052,-2.4892,-2.5734,-2.601,-3.2179,-3.3566,-3.4541,-3.6833,-3.7789,-3.8151,-3.8151,-3.7521,-3.6748,-3.6156,-3.4713,-3.3547,-3.3547,-3.3051,-3.3555,-3.6356,-3.7707,-3.9233,-4.1581,-4.115,-4.0634,-4.0721,-3.9986,0.0,0.0,0.0,0.0,-4.3854,-4.351,-4.3825,-4.5231,-4.5307,-4.5307,-4.5307,-4.5307,-4.5307,-4.5307,-4.5307,-4.5307,-4.5297,-4.4887,-4.4433,-4.3918,-4.3687,-4.3422,-4.3178,-4.3069,-4.2994,-4.2975,-4.2975,-4.2938,-4.2901,-4.2901,-4.2901,-4.2901,-4.2901,-4.2901,-4.2774,-4.1976,-4.1195,-4.0376,-3.93,-3.8663,-3.8117,-3.7046,-3.6533,-3.6237,-3.5937,-3.5734,-3.56,-3.56,-3.5369,-3.4835,-3.3621,-3.303,-3.2387,-3.1102,-3.0794,-3.0733,-3.0651,-3.0651,-3.063,-3.0589,-2.9917,-2.892,-2.7514,-2.6423,-2.5502,-2.4831,-2.4472,-2.4177,-2.3888,-2.3696,-2.3566,-2.3509,-2.3509,-2.3378,-2.3105,-2.3105,-2.3139,-2.3244,-2.3258,-2.3548,-2.421,-2.4225,-2.4559,-2.5212,-2.5614,-2.573,-2.5589,-2.6428,-2.6573,-3.346,-3.4224,-3.5095,-3.8266,-3.9069,-3.9049,-3.9011,-3.8266,-3.7101,-3.5477,-3.3769,-3.2546,0.0,0.0,-3.1255,-3.4483,-3.6528,-3.8285,-3.9995,-4.0998,-4.1552,0.0,0.0,0.0,0.0,0.0,0.0,-4.393,0.0,-4.4369,-4.5239,-4.5307,-4.5307,-4.5307,-4.5307,-4.5307,-4.5307,-4.5307,-4.5307,-4.5297,-4.491,-4.4733,-4.4676,-4.405,-4.3724,-4.3693,-4.3356,-4.3178,-4.3104,-4.3104,-4.303,-4.2901,-4.2901,-4.2919,-4.2901,-4.2901,-4.2901,-4.2792,-4.2012,-4.1759,-4.1506,-4.0003,-3.9194,-3.8631,-3.7809,-3.7013,-3.6364,-3.6343,-3.6002,-3.5644,-3.5644,-3.5081,-3.437,-3.3643,-3.2799,-3.1958,-3.1214,-3.0969,-3.0912,-3.0892,-3.0892,-3.0871,-3.0712,-2.9995,-2.8953,-2.7597,-2.7348,-2.6852,-2.5656,-2.4823,-2.4343,-2.4323,-2.3909,-2.361,-2.3553,-2.3531,-2.3415,-2.3185,-2.3185,-2.3418,-2.3929,-2.3958,-2.4239,-2.4853,-2.4853,-2.5172,-2.5836,-2.5836,-2.6195,-2.6806,-2.6806,-2.6806,-3.5362,-3.7245,-3.8897,-3.9747,-3.9957,-3.9804,-3.9145,-3.7368,-3.5553,-3.4522,-3.2458,-3.0452,0.0,0.0,0.0,-3.221,-3.54,0.0,-3.9183,-4.1132,0.0,-4.1571,0.0,-4.2335,-4.2756,-4.3348,0.0,0.0,-4.4006,-4.4369,-4.5239,-4.5307,-4.5307,-4.5307,-4.5307,-4.5307,-4.5307,-4.5307,-4.5307,-4.5297,-4.5203,-4.4988,-4.4688,-4.4514,-4.4165,-4.371,-4.361,-4.3408,-4.3178,-4.3178,-4.3105,-4.3049,-4.3049,-4.2994,-4.2901,-4.2901,-4.2901,-4.2883,-4.2665,-4.2592,-4.2429,-4.1433,-4.0637,-3.9842,-3.8723,-3.7839,-3.7132,-3.6821,-3.6433,-3.6131,-3.6131,-3.5735,-3.5126,-3.4387,-3.3639,-3.2853,-3.1995,-3.1382,-3.0955,-3.0912,-3.0892,-3.0871,-3.0712,-3.0055,-2.94,-2.892,-2.7978,-2.6852,-2.5656,-2.5313,-2.5079,-2.4779,-2.4354,-2.4114,-2.4094,-2.3782,-2.3725,-2.4126,-2.4133,-2.4336,-2.478,-2.4794,-2.5029,-2.5531,-2.5546,-2.5865,-2.6559,-2.6559,-2.6646,-2.6806,-2.6806,-2.6806,-3.7493,-3.9212,-4.0377,-4.075,-4.0559,-3.9785,-3.7789,-3.5954,-3.4025,-3.1713,-2.9784,0.0,0.0,0.0,0.0,0.0,0.0,0.0,-3.8209,-4.0329,-4.1648,0.0,-4.2278,0.0,-4.3291,-4.4093,-4.4571,0.0,-4.4571,-4.4781,-4.5269,-4.5307,-4.5307,-4.5307,-4.5307,-4.5307,-4.5307,-4.5307,-4.5307,-4.5307,-4.5307,-4.5173,-4.4965,-4.4807,-4.4527,-4.418,0.0,-4.3804,-4.346,-4.346,-4.3339,-4.3142,-4.3142,-4.3086,-4.2994,-4.2994,-4.2938,-4.2901,-4.2901,-4.2901,-4.2755,-4.1958,-4.1162,-4.0311,-3.9301,-3.8294,-3.745,-3.7227,-3.686,-3.6557,-3.6557,-3.6371,-3.5929,-3.5023,-3.4229,-3.338,-3.2405,-3.1618,-3.1092,-3.1032,-3.0992,-3.0932,-3.0834,-3.0423,-2.9939,-2.9546,-2.8777,-2.7866,-2.6899,-2.604,-2.5408,-2.5179,-2.4803,-2.4574,-2.4574,-2.4147,-2.4033,-2.431,-2.4425,-2.4688,-2.512,-2.5443,-2.5849,-2.6404,-2.6356,-2.652,-2.6899,-2.6832,-2.6806,-2.6806,-2.6806,-2.6806,-3.9341,-4.0336,-4.0652,-4.1236,-4.0691,-3.9132,-3.5807,-3.4163,-3.2232,-2.8332,0.0,-2.5816,-2.5,0.0,-2.6262,-2.9497,0.0,-3.4912,-3.7502,-3.9374,-4.0807,-4.1724,-4.2507,-4.3291,-4.4083,-4.4857,-4.5307,-4.5307,-4.5307,-4.5307,-4.5307,-4.5307,-4.5307,-4.5307,-4.5307,-4.5307,-4.5307,-4.5307,-4.5307,-4.5307,-4.5307,-4.5307,-4.5297,-4.5011,-4.4843,-4.4776,0.0,0.0,-4.3868,-4.3839,-4.3612,-4.3286,-4.3232,-4.3196,-4.3123,-4.3104,-4.303,-4.2919,-4.2919,-4.2901,-4.2755,-4.1958,-4.1162,-4.0347,-3.9623,-3.8563,-3.7578,-3.7578,-3.7302,-3.6978,-3.6978,-3.6939,-3.6663,-3.5642,-3.4748,-3.38,-3.2747,-3.1842,-3.119,-3.119,-3.1112,-3.1015,-3.0995,-3.0834,-3.0496,-2.9846,-2.9543,-2.9201,-2.8624,-2.6899,-2.5742,-2.5742,-2.5362,-2.5144,-2.5144,-2.4853,-2.4673,-2.4629,-2.4857,-2.5181,-2.5667,-2.6262,-2.6792,-2.728,-2.7181,-2.7093,-2.7029,-2.6884,-2.6832,-2.6832,-2.6806,-2.6806,-3.9173,-4.0574,-4.1486,-4.0896,-3.9572,-3.7688,-3.4925,-3.2045,0.0,0.0,0.0,-2.4072,-2.3212,-2.423,0.0,-2.8707,0.0,0.0,0.0,0.0,-4.1858,0.0,0.0,0.0,0.0,0.0,0.0,0.0,0.0,0.0,-4.5307,-4.5307,-4.5307,-4.5307,-4.5307,-4.5307,-4.5307,-4.5307,-4.5307,-4.5307,-4.5307,-4.5307,-4.5297,-4.5246,-4.5057,-4.4788,0.0,0.0,-4.4289,-4.406,-4.3857,-4.3677,-4.3463,-4.3287,-4.3178,-4.3123,-4.3086,-4.3049,-4.2938,-4.2901,-4.2755,-4.1958,-4.1162,-4.0347,-3.9623,-3.8773,-3.8089,-3.8089,-3.7739,-3.7395,-3.7395,-3.7151,-3.6845,-3.6663,-3.5504,-3.436,-3.3818,-3.2383,-3.119,-3.119,-3.1171,-3.1131,-3.1015,-3.0932,-3.0781,-3.0546,-2.9875,-2.9347,-2.9251,-2.7921,-2.6991,-2.6991,-2.6583,-2.6315,-2.6315,-2.6495,-2.6851,-2.7375,-2.7444,-2.7708,-2.8233,-2.8373,-2.822,-2.779,-2.7755,-2.7545,-2.7155,-2.7015,-2.6977,-2.6951,-2.6846,-2.6806,-4.0075,-4.1621,-4.2367,-4.1482,-3.9976,-3.7648,-3.375,0.0,0.0,0.0,0.0,-2.2333,-2.1454,0.0,0.0,0.0,0.0,0.0,0.0,0.0,0.0,0.0,0.0,0.0,0.0,0.0,0.0,0.0,0.0,0.0,-4.5307,-4.5307,-4.5307,-4.5307,-4.5307,-4.5307,-4.5307,-4.5307,-4.5307,-4.5307,-4.5307,-4.5307,-4.5307,-4.5307,-4.5205,-4.5057,0.0,0.0,-4.4599,-4.4471,-4.4303,-4.4099,-4.3812,-4.3632,-4.3494,-4.3323,-4.3196,-4.3086,-4.303,-4.2666,-4.214,-4.1343,-4.08,-4.0347,-3.9623,-3.8826,-3.8209,-3.8209,-3.8037,-3.7862,-3.7862,-3.7703,-3.7523,-3.7265,-3.5706,-3.4017,-3.303,-3.1961,-3.119,-3.119,-3.119,-3.1171,-3.1112,-3.1015,-3.0932,-3.0831,-3.0392,-3.0057,-2.998,-2.9052,-2.826,-2.7912,-2.7674,-2.7541,-2.7541,-2.7458,-2.7549,-2.7886,-2.8017,-2.8227,-2.8469,-2.8831,-2.8842,-2.8543,-2.8183,-2.7904,-2.7685,-2.7284,-2.7067,-2.7003,-2.6925,-2.6873,-4.0527,-4.1938,-4.2284,-4.159,-3.9991,-3.7336,-3.2564,-2.9327,0.0,0.0,-2.1889,-2.0982,-2.0461,0.0,0.0,0.0,0.0,0.0,0.0,0.0,0.0,0.0,0.0,0.0,0.0,0.0,0.0,0.0,0.0,0.0,0.0,-4.5307,-4.5307,-4.5307,-4.5307,-4.5307,-4.5307,-4.5307,-4.5307,-4.5307,-4.5307,-4.5307,-4.5307,-4.5307,-4.5307,-4.5307,0.0,0.0,0.0,-4.4831,-4.4676,-4.4452,-4.4177,-4.3983,-4.3807,-4.3565,-4.3358,-4.316,-4.3141,-4.2541,-4.1633,-4.0817,-4.0419,-4.013,-3.9369,-3.8716,-3.8209,-3.8209,-3.8209,-3.8209,-3.8209,-3.8209,-3.8016,-3.7326,-3.5665,-3.381,-3.2189,-3.1562,-3.1291,-3.121,-3.119,-3.119,-3.119,-3.1092,-3.0975,-3.0932,-3.0831,-3.0692,-3.0568,-3.0033,-2.947,-2.8906,-2.8724,-2.8624,-2.8624,-2.8427,-2.829,-2.829,-2.8512,-2.8606,-2.8606,-2.9128,-2.9348,-2.9257,-2.8732,-2.84,-2.8304,-2.7695,-2.7321,-2.7181,-2.7041,-2.6925,-3.9142,-3.9953,-3.9997,-3.9916,-3.8046,-3.5253,-3.1618,0.0,0.0,-2.3195,-2.147,-2.0508,-2.1168,-2.1464,0.0,0.0,0.0,0.0,0.0,0.0,0.0,0.0,0.0,0.0,0.0,0.0,0.0,0.0,0.0,0.0,0.0,-4.5307,-4.5307,-4.5307,-4.5307,-4.5307,-4.5307,-4.5307,-4.5307,-4.5307,-4.5307,-4.5307,-4.5307,-4.5307,-4.5307,-4.5307,0.0,0.0,0.0,-4.4934,-4.4776,-4.4739,-4.4465,-4.4206,-4.3955,-4.3825,-4.3597,-4.3359,-4.3233,-4.2668,-4.183,-4.0959,-4.0146,-3.9351,-3.8553,-3.8263,-3.8209,-3.8209,-3.8209,-3.8209,-3.8209,-3.8209,-3.7812,-3.6315,-3.5513,-3.4586,-3.2668,-3.1932,-3.1564,-3.1269,-3.119,-3.119,-3.119,-3.1092,-3.0995,-3.0995,-3.0932,-3.0831,-3.0692,-3.0605,-3.0497,-3.0328,-2.9694,-2.9297,-2.9297,-2.9889,-3.0249,-3.0249,-3.0273,-3.0285,-3.0285,-3.033,-3.0156,-2.9728,-2.9683,-2.9438,-2.9005,-2.8343,-2.7953,-2.779,-2.7258,-2.6925,-3.7417,-3.8923,-3.9627,-3.9104,-3.7422,-3.5007,-3.1546,0.0,-2.5004,-2.3273,-2.1478,-2.0299,-2.0615,-2.1072,-2.1999,0.0,0.0,0.0,0.0,0.0,0.0,0.0,0.0,0.0,0.0,0.0,0.0,0.0,0.0,0.0,0.0,-4.5307,-4.5307,-4.5307,-4.5307,-4.5307,-4.5307,-4.5307,-4.5307,-4.5307,-4.5307,-4.5307,-4.5307,-4.5307,-4.5307,-4.5307,0.0,0.0,0.0,-4.5162,-4.5098,-4.5076,-4.477,-4.4591,-4.4457,-4.4242,-4.3931,-4.3574,-4.3025,-4.2161,-4.1137,-4.0318,-3.9483,-3.8723,-3.8333,-3.8209,-3.8209,-3.8209,-3.8209,-3.8209,-3.8209,-3.8209,-3.7775,-3.6182,-3.549,-3.4723,-3.2989,-3.2317,-3.2021,-3.1895,-3.1674,-3.1506,-3.1506,-3.1293,-3.1075,-3.1015,-3.0992,-3.0932,-3.0831,-3.0733,-3.0671,-3.063,-3.0282,-3.0059,-3.0059,-3.0323,-3.0506,-3.0506,-3.0506,-3.0506,-3.0506,-3.0506,-3.0405,-3.022,-2.9924,-2.9705,-2.9528,-2.8982,-2.8472,-2.8012,-2.768,-2.7321,-3.5302,-3.7099,-3.8148,-3.7492,-3.6053,-3.3958,0.0,0.0,-2.4681,-2.2967,-2.134,-2.0223,-2.0196,-2.065,-2.1373,0.0,0.0,0.0,0.0,0.0,0.0,0.0,0.0,0.0,0.0,0.0,0.0,0.0,0.0,0.0,0.0,0.0,-4.5307,-4.5307,-4.5307,-4.5307,-4.5307,-4.5307,-4.5307,-4.5307,-4.5307,-4.5307,-4.5307,-4.5307,-4.5307,0.0,0.0,0.0,0.0,-4.5307,-4.5307,-4.5286,-4.5034,-4.4879,-4.4776,-4.4585,-4.4299,-4.3847,-4.3044,-4.1967,-4.0877,-4.002,-3.915,-3.8399,-3.8289,-3.8241,-3.8242,-3.8209,-3.8209,-3.8209,-3.8209,-3.8209,-3.7848,-3.6472,-3.5752,-3.4979,-3.3487,-3.2777,-3.2436,-3.2317,-3.2074,-3.1878,-3.1878,-3.1564,-3.1312,-3.1235,-3.1117,-3.1032,-3.0952,-3.0834,-3.0773,-3.0712,-3.0609,-3.0547,-3.0489,-3.0506,-3.0506,-3.0506,-3.0506,-3.0506,-3.0506,-3.0506,-3.0506,-3.0506,-3.0177,-3.0006,-3.0006,-2.9528,-2.9035,-2.8528,-2.8143,-2.762,-3.2753,-3.3979,-3.4737,-3.4662,-3.3374,-3.1465,0.0,-2.6304,-2.3907,-2.2088,-2.0967,-2.0276,-2.0208,-2.0148,-2.068,-2.2416,0.0,0.0,0.0,0.0,0.0,0.0,0.0,0.0,0.0,0.0,0.0,0.0,0.0,0.0,0.0,0.0,-4.5307,-4.5307,-4.5307,-4.5307,-4.5307,-4.5307,-4.5307,-4.5307,-4.5307,-4.5307,-4.5307,-4.5307,0.0,0.0,0.0,0.0,0.0,-4.5307,-4.5307,-4.5307,-4.5297,-4.5098,-4.4788,-4.4788,-4.4624,-4.4271,-4.3398,-4.2394,-4.133,-4.0396,-3.9363,-3.8494,-3.8415,-3.8336,-3.829,-3.8225,-3.8209,-3.8209,-3.8209,-3.8209,-3.8009,-3.7176,-3.6381,-3.5471,-3.4251,-3.3348,-3.2699,-3.2351,-3.23,-3.23,-3.23,-3.1967,-3.1695,-3.1695,-3.1408,-3.1151,-3.1015,-3.0995,-3.0915,-3.0712,-3.0692,-3.0651,-3.051,-3.0506,-3.0506,-3.0506,-3.0506,-3.0506,-3.0506,-3.0506,-3.0506,-3.0506,-3.0506,-3.0489,-3.0489,-3.0027,-2.9711,-2.9563,-2.8551,-2.7695,-2.9466,-3.0472,-3.1074,-3.0458,-2.9897,-2.8986,-2.6976,-2.5426,-2.3894,-2.2127,-2.1026,-2.035,-2.0272,-2.0211,-2.111,-2.4015,-2.4716,0.0,0.0,0.0,0.0,0.0,0.0,0.0,0.0,0.0,0.0,0.0,0.0,0.0,0.0,0.0,-4.5307,-4.5307,-4.5307,-4.5307,-4.5307,-4.5307,-4.5307,-4.5307,-4.5307,-4.5307,-4.5307,-4.5307,0.0,0.0,0.0,0.0,0.0,-4.5307,-4.5307,-4.5307,-4.5307,-4.5235,-4.5132,-4.5132,-4.4592,-4.3737,-4.2918,-4.1779,-4.0531,-3.9704,-3.9062,-3.8609,-3.8494,-3.8415,-3.8352,-3.829,-3.8242,-3.8209,-3.8209,-3.8209,-3.8009,-3.7194,-3.6381,-3.5553,-3.4612,-3.3785,-3.3178,-3.307,-3.283,-3.2634,-3.2634,-3.2351,-3.2109,-3.2109,-3.1786,-3.1543,-3.1488,-3.1215,-3.0975,-3.0915,-3.0773,-3.0651,-3.051,-3.0506,-3.0506,-3.0506,-3.0506,-3.0506,-3.0506,-3.0506,-3.0506,-3.0506,-3.0506,-3.0506,-3.0506,-3.0363,-2.9881,-2.9097,-2.8091,-2.7448,0.0,-2.742,-2.7988,-2.7429,-2.7044,-2.6467,-2.5043,-2.4062,-2.3042,-2.1613,-2.0815,-2.038,-2.0356,-2.0261,-2.1129,-2.3931,-2.4419,0.0,0.0,0.0,0.0,0.0,0.0,0.0,0.0,0.0,0.0,0.0,0.0,0.0,0.0,0.0,-4.5307,-4.5307,-4.5307,-4.5307,-4.5307,-4.5307,-4.5307,-4.5307,-4.5307,-4.5307,-4.5307,0.0,0.0,0.0,0.0,0.0,0.0,-4.5307,-4.5307,-4.5307,-4.5307,-4.5307,-4.5269,-4.4934,-4.4361,-4.3582,-4.2463,-4.1425,-4.0456,-3.9546,-3.9007,-3.8673,-3.8609,-3.8496,-3.8401,-3.8322,-3.8274,-3.8224,-3.8209,-3.8209,-3.8009,-3.7194,-3.6381,-3.5569,-3.4769,-3.3973,-3.3393,-3.3393,-3.3193,-3.3019,-3.3019,-3.2732,-3.2485,-3.2485,-3.2162,-3.1932,-3.1932,-3.1545,-3.1257,-3.1218,-3.0995,-3.0753,-3.0589,-3.0526,-3.0506,-3.0506,-3.0506,-3.0506,-3.0506,-3.0506,-3.0506,-3.0506,-3.0506,-3.0506,-3.0506,-3.0506,-3.007,-2.9227,-2.8407,-2.786,0.0,-2.4534,-2.531,-2.5175,-2.4687,-2.3988,-2.3111,-2.2388,0.0,-2.0697,-2.0457,-2.0437,-2.0563,-2.0427,-2.0962,-2.2956,-2.3364,0.0,0.0,0.0,0.0,0.0,0.0,0.0,0.0,0.0,0.0,0.0,0.0,0.0,0.0,0.0,0.0,-4.5307,-4.5307,-4.5307,-4.5307,-4.5307,-4.5307,-4.5307,-4.5307,-4.5307,-4.5307,0.0,0.0,0.0,0.0,0.0,0.0,-4.5307,-4.5307,-4.5307,-4.5307,-4.5269,-4.5105,-4.4293,-4.3911,-4.3605,-4.203,-4.1289,-4.0855,-3.9825,-3.9137,-3.8738,-3.8738,-3.8578,-3.8382,-3.8322,-3.8307,-3.829,-3.8207,-3.8154,-3.7937,-3.7176,-3.6345,-3.5514,-3.4754,-3.3973,-3.3393,-3.3393,-3.3393,-3.3393,-3.3393,-3.3083,-3.2827,-3.2827,-3.2551,-3.2351,-3.2351,-3.2003,-3.1714,-3.162,-3.1257,-3.0955,-3.0733,-3.0589,-3.051,-3.0506,-3.0506,-3.0506,-3.0506,-3.0506,-3.0506,-3.0506,-3.0506,-3.0506,-3.0506,-3.0485,-3.0236,-2.9788,-2.9325,-2.8772,-1.8092,0.0,-2.1627,-2.0955,-2.1641,-2.2251,0.0,-2.1569,-2.1645,-2.0766,-2.0529,-2.0869,-2.2146,-2.1828,-2.2557,-2.6276,0.0,0.0,0.0,0.0,0.0,0.0,0.0,0.0,0.0,0.0,0.0,0.0,0.0,0.0,0.0,0.0,0.0,-4.5307,-4.5307,-4.5307,-4.5307,-4.5307,-4.5307,-4.5307,-4.5307,-4.5307,-4.5307,0.0,0.0,0.0,0.0,0.0,-4.5307,-4.5307,-4.5307,-4.5307,-4.5307,-4.4895,-4.4274,-4.4083,-4.3185,-4.203,-4.1628,-4.0927,-4.0105,-3.9656,-3.9272,-3.9007,-3.9007,-3.877,-3.8478,-3.8446,-3.8368,-3.8307,-3.8274,-3.7787,-3.723,-3.7049,-3.591,-3.4826,-3.4627,-3.3973,-3.3393,-3.3393,-3.3393,-3.3393,-3.3393,-3.3316,-3.3256,-3.3256,-3.2925,-3.2682,-3.2682,-3.2368,-3.2039,-3.1714,-3.1545,-3.1315,-3.0955,-3.0753,-3.0609,-3.0506,-3.0506,-3.0506,-3.0506,-3.0506,-3.0506,-3.0506,-3.0506,-3.0506,-3.0506,-3.0135,-2.9919,-2.9788,-2.9325,-2.9005,-1.5289,-1.8295,-2.1086,-2.0615,-2.1474,-2.2333,-2.1843,-2.151,-2.1178,-2.0691,0.0,-2.0908,-2.221,-2.238,0.0,0.0,0.0,0.0,0.0,0.0,0.0,0.0,0.0,0.0,0.0,0.0,0.0,0.0,0.0,0.0,0.0,0.0,0.0,0.0,-4.5317,-4.5307,-4.5307,-4.5307,-4.5307,-4.5307,-4.5307,-4.5307,-4.5307,0.0,0.0,0.0,0.0,0.0,-4.5307,-4.5307,-4.5307,-4.5269,-4.4857,-4.4418,-4.3911,-4.3138,-4.2278,-4.1437,-4.1074,-4.0489,-3.9881,-3.9728,-3.9495,-3.9285,-3.9285,-3.9132,-3.8876,-3.8585,-3.8446,-3.8387,-3.8323,-3.7675,-3.6953,-3.6542,-3.5494,-3.4516,-3.4135,-3.3719,-3.3393,-3.3393,-3.3393,-3.3393,-3.3393,-3.3393,-3.3393,-3.3393,-3.3208,-3.3083,-3.3083,-3.2749,-3.2452,-3.2231,-3.2039,-3.1805,-3.1528,-3.1397,-3.1145,-3.0712,-3.063,-3.0589,-3.0589,-3.0531,-3.0506,-3.0506,-3.0506,-3.0506,-3.0506,-3.0258,-3.0113,-3.0113,-2.9639,-2.9416,-1.4001,-1.8025,-2.1833,-2.1575,-2.2317,-2.3099,-2.3093,0.0,0.0,0.0,0.0,0.0,0.0,-2.3148,0.0,0.0,0.0,0.0,0.0,0.0,0.0,0.0,0.0,0.0,0.0,0.0,0.0,0.0,0.0,0.0,0.0,0.0,0.0,0.0,-4.538,-4.536,-4.536,-4.5328,-4.5307,-4.5307,-4.5307,-4.5307,-4.5307,-4.5307,0.0,0.0,0.0,0.0,-4.5307,-4.5307,-4.522,-4.5029,-4.4293,-4.3834,-4.3452,-4.2011,-4.1418,-4.1227,-4.054,-4.0157,-3.9956,-3.9956,-3.9773,-3.9563,-3.9563,-3.952,-3.9383,-3.8822,-3.8615,-3.8523,-3.837,-3.774,-3.689,-3.603,-3.5217,-3.4401,-3.3589,-3.3408,-3.3408,-3.3393,-3.3393,-3.3393,-3.3393,-3.3393,-3.3393,-3.3393,-3.3393,-3.3393,-3.3393,-3.3099,-3.2876,-3.2795,-3.2535,-3.2299,-3.2144,-3.2144,-3.1842,-3.1157,-3.0918,-3.0757,-3.0692,-3.0568,-3.0506,-3.0506,-3.0506,-3.0506,-3.0506,-3.0506,-3.0506,-3.0489,-3.0092,-2.9919,-1.457,-1.8476,-2.1542,-2.0073,-2.1418,-2.3097,-2.3093,-2.2896,0.0,0.0,0.0,0.0,0.0,0.0,0.0,0.0,0.0,0.0,0.0,0.0,0.0,0.0,0.0,0.0,0.0,0.0,0.0,0.0,0.0,0.0,0.0,0.0,0.0,0.0,0.0,-4.5643,-4.5643,-4.54,-4.5307,-4.5307,-4.5307,-4.5307,-4.5307,-4.5307,-4.5307,0.0,0.0,-4.5307,-4.5307,-4.5307,-4.4876,-4.4178,-4.4045,-4.3138,-4.1839,-4.159,-4.1074,-4.0473,-4.0339,-4.0263,-4.0244,-4.0244,-4.0067,-3.9829,-3.9829,-3.9682,-3.9489,-3.937,-3.9095,-3.8785,-3.8538,-3.7831,-3.6966,-3.6164,-3.5344,-3.4528,-3.3673,-3.3495,-3.3466,-3.3408,-3.3393,-3.3393,-3.3393,-3.3393,-3.3393,-3.3393,-3.3393,-3.3393,-3.3393,-3.3349,-3.3178,-3.2844,-3.2747,-3.2601,-3.23,-3.2283,-3.2231,-3.2074,-3.1585,-3.1106,-3.0712,-3.0568,-3.0506,-3.0506,-3.0506,-3.0506,-3.0506,-3.0506,-3.0506,-3.0506,-3.0426,-3.0384,-1.2891,-1.6152,-1.9238,-1.9859,-2.2983,-2.5795,-2.5319,-2.4848,0.0,0.0,0.0,0.0,0.0,0.0,0.0,0.0,0.0,0.0,0.0,0.0,0.0,0.0,0.0,0.0,0.0,0.0,0.0,0.0,0.0,0.0,0.0,0.0,0.0,0.0,0.0,0.0,-4.4353,-4.4664,-4.5013,-4.5419,-4.5419,-4.537,-4.5307,-4.5307,-4.5307,0.0,0.0,-4.5307,-4.5269,-4.4781,-4.435,-4.3911,-4.3004,-4.2183,-4.1437,-4.1017,-4.0616,-4.0301,-4.0301,-4.0301,-4.0301,-4.0301,-4.0225,-4.0108,-4.0108,-4.0017,-3.9892,-3.9751,-3.9477,-3.9176,-3.8966,-3.8204,-3.7364,-3.6952,-3.5813,-3.4695,-3.4287,-3.3872,-3.3534,-3.3466,-3.3452,-3.3437,-3.3411,-3.3393,-3.3393,-3.3393,-3.3393,-3.3393,-3.3393,-3.3393,-3.3334,-3.3129,-3.3114,-3.3052,-3.2912,-3.2896,-3.262,-3.1967,-3.1658,-3.1298,-3.0831,-3.0671,-3.0609,-3.0609,-3.0547,-3.0506,-3.0506,-3.0506,-3.0506,-3.0506,-3.0506,-3.0506,-1.25,-1.5,-1.7832,-2.0055,-2.402,-2.7437,-2.7565,-2.6938,-2.6488,0.0,0.0,0.0,0.0,0.0,0.0,0.0,0.0,0.0,0.0,0.0,0.0,0.0,0.0,0.0,0.0,0.0,0.0,0.0,0.0,0.0,0.0,0.0,0.0,0.0,0.0,0.0,-4.3286,-4.3892,-4.4457,-4.4944,-4.5136,-4.5082,-4.4786,-4.4967,-4.5042,-4.5042,-4.5012,-4.4991,-4.4934,-4.4074,-4.3605,-4.3281,-4.1991,-4.138,-4.1132,-4.054,-4.0301,-4.0301,-4.0301,-4.0301,-4.0301,-4.0301,-4.0301,-4.0301,-4.0301,-4.0301,-4.0253,-4.0038,-3.9848,-3.9628,-3.9408,-3.8743,-3.8013,-3.7575,-3.6362,-3.5202,-3.4789,-3.4188,-3.3684,-3.3601,-3.3534,-3.3481,-3.3408,-3.3393,-3.3393,-3.3393,-3.3393,-3.3393,-3.3393,-3.3393,-3.3393,-3.3393,-3.3393,-3.3393,-3.3393,-3.3393,-3.2959,-3.195,-3.1787,-3.1509,-3.1095,-3.0938,-3.0818,-3.0733,-3.0651,-3.0589,-3.0589,-3.0568,-3.0547,-3.0547,-3.051,-3.0506,-1.5879,-1.7695,-1.9355,-2.0351,-2.2654,-2.5503,-2.8697,-2.8732,0.0,-3.1153,0.0,0.0,0.0,0.0,0.0,0.0,0.0,0.0,0.0,0.0,0.0,0.0,0.0,0.0,0.0,0.0,0.0,0.0,0.0,0.0,0.0,0.0,0.0,0.0,0.0,0.0,-4.3564,-4.3622,-4.3525,-4.3289,-4.4087,-4.4048,-4.3293,-4.3966,-4.4287,-4.4259,-4.4143,-4.4083,-4.4025,-4.3214,-4.2412,-4.1667,-4.1552,-4.1036,-4.0377,-4.032,-4.0301,-4.0301,-4.0301,-4.0301,-4.0301,-4.0301,-4.0301,-4.0301,-4.0301,-4.0301,-4.0301,-4.0291,-4.0253,-4.0137,-3.9623,-3.9433,-3.8989,-3.7401,-3.6939,-3.6398,-3.4787,-3.4233,-3.4005,-3.3826,-3.362,-3.3481,-3.3408,-3.3393,-3.3393,-3.3393,-3.3393,-3.3393,-3.3393,-3.3393,-3.3393,-3.3393,-3.3393,-3.3393,-3.3393,-3.3393,-3.3193,-3.2731,-3.2316,-3.1897,-3.1564,-3.1433,-3.1201,-3.0892,-3.0871,-3.0871,-3.0871,-3.0733,-3.0692,-3.0671,-3.0568,-3.0506,-1.4902,-1.7148,-1.9512,-2.0389,-2.3338,0.0,0.0,-2.9769,-3.1224,-3.3247,-3.3743,0.0,0.0,0.0,0.0,0.0,0.0,0.0,0.0,0.0,0.0,0.0,0.0,0.0,0.0,0.0,0.0,0.0,0.0,0.0,0.0,0.0,0.0,0.0,0.0,0.0,0.0,-4.2568,-4.2496,-4.1816,-4.3142,-4.3563,-4.3166,-4.345,-4.3582,-4.3582,-4.3516,-4.347,-4.3316,-4.246,-4.1864,-4.1437,-4.096,-4.0578,-4.0301,-4.0301,-4.0301,-4.0301,-4.0301,-4.0301,-4.0301,-4.0301,-4.0301,-4.0301,-4.0301,-4.0301,-4.0301,-4.0301,-4.0301,-4.0253,-4.0057,-3.987,-3.96,-3.8957,-3.7883,-3.6817,-3.6156,-3.5139,-3.4291,-3.4037,-3.3915,-3.3793,-3.3506,-3.3466,-3.3452,-3.3411,-3.3393,-3.3393,-3.3393,-3.3393,-3.3393,-3.3393,-3.3393,-3.3393,-3.3393,-3.3393,-3.3334,-3.3178,-3.2586,-3.2056,-3.1677,-3.1336,-3.1098,-3.0955,-3.0932,-3.0892,-3.0892,-3.0851,-3.0814,-3.0831,-3.0692,-3.063,-1.541,-1.7676,-2.0254,-2.0859,0.0,0.0,-2.8803,-3.0889,-3.3141,-3.5351,-3.6141,0.0,0.0,0.0,0.0,0.0,0.0,0.0,0.0,0.0,0.0,0.0,0.0,0.0,0.0,0.0,0.0,0.0,0.0,0.0,0.0,0.0,0.0,0.0,0.0,0.0,0.0,-4.1664,-4.1664,-4.1042,-4.2153,-4.2605,-4.2518,-4.2741,-4.2846,-4.284,-4.2828,-4.2775,-4.2628,-4.1728,-4.1309,-4.1128,-4.0529,-4.0291,-4.0291,-4.0291,-4.0291,-4.031,-4.031,-4.0301,-4.0301,-4.0301,-4.0301,-4.0301,-4.0301,-4.0301,-4.0301,-4.0301,-4.0301,-4.0301,-4.0301,-4.0166,-3.9894,-3.9343,-3.8176,-3.7076,-3.6547,-3.5476,-3.4569,-3.4367,-3.4244,-3.4093,-3.3726,-3.3675,-3.3601,-3.3495,-3.3452,-3.3422,-3.3422,-3.3408,-3.3393,-3.3393,-3.3393,-3.3393,-3.3393,-3.3393,-3.3393,-3.3393,-3.2814,-3.2334,-3.2056,-3.164,-3.1353,-3.1218,-3.1075,-3.0992,-3.0992,-3.0952,-3.0932,-3.0932,-3.0773,-3.0692,-1.8242,-1.9922,-2.1914,-2.1934,0.0,0.0,-3.033,-3.2224,-3.4363,-3.7725,-3.8266,-3.8092,-3.8017,0.0,0.0,0.0,0.0,0.0,0.0,0.0,0.0,0.0,0.0,0.0,0.0,0.0,0.0,0.0,0.0,0.0,0.0,0.0,0.0,0.0,0.0,0.0,0.0,-4.1109,-4.1109,-4.1109,-4.1109,-4.1068,-4.1029,-4.1762,-4.2096,-4.2092,-4.2011,-4.1992,-4.1914,-4.1053,-4.0616,-4.0496,-4.0366,-4.0297,-4.0288,-4.0288,-4.0307,-4.0298,-4.0301,-4.0301,-4.0301,-4.0301,-4.0301,-4.0301,-4.0301,-4.0301,-4.0301,-4.0301,-4.0301,-4.0301,-4.0301,-4.0282,-3.9843,-3.8113,-3.7712,-3.7234,-3.5572,-3.5046,-3.4879,-3.4803,-3.4601,-3.433,-3.4043,-3.3998,-3.3908,-3.3629,-3.3534,-3.3509,-3.3509,-3.3437,-3.3393,-3.3393,-3.3393,-3.3393,-3.3393,-3.3393,-3.3393,-3.3393,-3.3037,-3.2795,-3.2795,-3.2468,-3.2109,-3.1714,-3.137,-3.121,-3.121,-3.1072,-3.0995,-3.0995,-3.0794,-3.0692,-1.9141,-2.082,0.0,-2.4277,0.0,0.0,0.0,-3.3954,0.0,0.0,-3.9527,-3.905,0.0,0.0,0.0,0.0,0.0,0.0,0.0,0.0,0.0,0.0,0.0,0.0,0.0,0.0,0.0,0.0,0.0,0.0,0.0,0.0,0.0,0.0,0.0,0.0,0.0,0.0,-4.1109,-4.1109,-4.1109,-4.1095,-4.1081,-4.1301,-4.1389,-4.1409,-4.1374,-4.1307,-4.1205,-4.0849,-4.0682,-4.0635,-4.0597,-4.0518,-4.0442,-4.0442,-4.0403,-4.037,-4.0372,-4.0345,-4.0299,-4.0299,-4.03,-4.0301,-4.0301,-4.0301,-4.0301,-4.0301,-4.0301,-4.0301,-4.0301,-3.9843,-3.926,-3.8744,-3.8151,-3.7406,-3.6328,-3.5588,-3.5063,-3.4898,-3.4821,-3.462,-3.4142,-3.4074,-3.3959,-3.3661,-3.3591,-3.3577,-3.3577,-3.3506,-3.3466,-3.3466,-3.3422,-3.3393,-3.3393,-3.3393,-3.3393,-3.3393,-3.3286,-3.3099,-3.2811,-3.2468,-3.2231,-3.2109,-3.1749,-3.1562,-3.1562,-3.1291,-3.1151,-3.1131,-3.0915,-3.0851,-2.0703,-2.2734,0.0,-2.6816,-2.9355,-3.2129,-3.4802,0.0,0.0,0.0,0.0,0.0,0.0,0.0,0.0,0.0,0.0,0.0,0.0,0.0,0.0,0.0,0.0,0.0,0.0,0.0,0.0,0.0,0.0,0.0,0.0,0.0,0.0,0.0,0.0,0.0,0.0,0.0,0.0,-4.1109,-4.1109,-4.1103,-4.1109,-4.1109,-4.1109,-4.1109,-4.1109,-4.1059,-4.0972,-4.082,-4.0771,-4.0786,-4.0747,-4.0688,-4.0623,-4.0623,-4.0584,-4.0552,-4.0469,-4.0414,-4.0364,-4.0314,-4.0309,-4.0301,-4.0301,-4.0301,-4.0301,-4.0301,-4.0301,-4.0301,-4.0301,-3.9652,-3.8916,-3.8572,-3.7846,-3.7005,-3.6156,-3.5564,-3.5157,-3.5046,-3.5028,-3.4898,-3.4491,-3.4325,-3.4148,-3.3881,-3.3726,-3.3633,-3.3605,-3.3563,-3.352,-3.3491,-3.3466,-3.3422,-3.3393,-3.3393,-3.3393,-3.3393,-3.3393,-3.3286,-3.3052,-3.27,-3.2502,-3.2502,-3.2127,-3.195,-3.195,-3.1731,-3.1543,-3.1389,-3.1254,-3.1078,-2.2324,-2.4883,0.0,-2.9238,-3.1133,0.0,-3.7504,-3.8331,-3.8811,0.0,0.0,0.0,0.0,0.0,0.0,0.0,0.0,0.0,0.0,0.0,0.0,0.0,0.0,0.0,0.0,0.0,0.0,0.0,0.0,0.0,0.0,0.0,0.0,0.0,0.0,0.0,0.0,0.0,0.0,0.0,-4.1109,-4.1109,-4.1109,-4.1109,-4.1109,-4.1109,-4.1109,-4.1109,-4.1087,-4.0972,-4.0922,-4.0915,-4.0842,-4.082,-4.0815,-4.0815,-4.0806,-4.0761,-4.0597,-4.0511,-4.0503,-4.0356,-4.0317,-4.0301,-4.031,-4.0301,-4.0301,-4.0301,-4.0301,-4.0282,-4.0205,-3.9527,-3.8667,-3.7808,-3.7024,-3.6252,-3.5392,-3.5209,-3.5209,-3.5209,-3.5209,-3.5132,-3.4926,-3.4694,-3.4464,-3.425,-3.3959,-3.3726,-3.3657,-3.3633,-3.3591,-3.352,-3.3506,-3.3495,-3.3408,-3.3408,-3.3411,-3.3393,-3.3393,-3.3393,-3.3393,-3.3052,-3.2842,-3.2842,-3.2518,-3.2351,-3.2351,-3.2317,-3.2109,-3.175,-3.1677,-3.1432,-2.1016,-2.3516,0.0,0.0,-3.293,-3.5605,-3.7187,-3.7557,0.0,0.0,0.0,0.0,0.0,0.0,0.0,0.0,0.0,0.0,0.0,0.0,0.0,0.0,0.0,0.0,0.0,0.0,0.0,0.0,0.0,0.0,0.0,0.0,0.0,0.0,0.0,0.0,-4.1109,-4.1109,-4.1109,0.0,-4.1109,-4.1109,-4.1109,-4.1109,-4.1109,-4.1109,-4.1109,-4.1109,-4.1108,-4.108,-4.1055,-4.1055,-4.1044,-4.0995,-4.0963,-4.0963,-4.0886,-4.0796,-4.0752,-4.0707,-4.0623,-4.0509,-4.0415,-4.0377,-4.0319,-4.0301,-4.0301,-4.0301,-4.0301,-4.0129,-3.947,-3.8629,-3.7769,-3.6939,-3.6634,-3.6252,-3.5392,-3.5209,-3.5209,-3.5209,-3.5209,-3.5132,-3.4926,-3.4851,-3.4733,-3.4464,-3.4232,-3.4086,-3.4074,-3.3829,-3.3671,-3.3657,-3.3619,-3.3549,-3.3495,-3.3481,-3.3452,-3.3393,-3.3393,-3.3393,-3.3393,-3.3334,-3.3271,-3.3271,-3.2894,-3.2682,-3.2682,-3.2436,-3.2266,-3.2179,-3.2056,-3.1806,-2.0762,0.0,0.0,-3.1133,0.0,-3.5723,-3.7012,0.0,0.0,0.0,0.0,0.0,0.0,0.0,0.0,0.0,0.0,0.0,0.0,0.0,0.0,0.0,0.0,0.0,0.0,0.0,0.0,0.0,0.0,0.0,0.0,0.0,0.0,0.0,0.0,0.0,-4.1109,-4.1109,-4.1109,-4.1109,-4.1109,-4.1109,-4.1109,-4.1109,-4.1109,-4.1109,-4.1109,-4.1109,-4.1109,-4.1109,-4.1109,-4.1109,-4.1109,-4.1078,-4.1054,-4.1054,-4.0998,-4.0945,-4.091,-4.0846,-4.0772,-4.0676,-4.0591,-4.0537,-4.0492,-4.0496,-4.0473,-4.0408,-4.0096,-3.9648,-3.9134,-3.8075,-3.7024,-3.6596,-3.6175,-3.5755,-3.5305,-3.5209,-3.5209,-3.5209,-3.5209,-3.5176,-3.5063,-3.4954,-3.4821,-3.454,-3.4398,-3.4337,-3.4337,-3.4196,-3.4056,-3.4049,-3.3915,-3.3802,-3.3753,-3.3591,-3.3495,-3.3452,-3.3408,-3.3393,-3.3393,-3.3393,-3.3393,-3.3393,-3.3193,-3.3083,-3.3083,-3.2894,-3.2734,-3.2535,-3.2467,-3.2248,-1.998,0.0,-2.7773,-3.1934,-3.3848,0.0,0.0,0.0,0.0,0.0,0.0,0.0,0.0,0.0,0.0,0.0,0.0,0.0,0.0,0.0,0.0,0.0,0.0,0.0,0.0,0.0,0.0,0.0,0.0,0.0,0.0,0.0,0.0,0.0,0.0,-4.0738,-4.0875,-4.0875,-4.0953,-4.1109,-4.1109,-4.1109,-4.1109,-4.1109,-4.1109,-4.1109,-4.1109,-4.1109,-4.1109,-4.1109,-4.1109,-4.1109,-4.1109,-4.1109,-4.1109,-4.1109,-4.1109,-4.1085,-4.1047,-4.0977,-4.0912,-4.0833,-4.0781,-4.0731,-4.0715,-4.071,-4.0682,-4.0564,-3.9906,-3.917,-3.8903,-3.7696,-3.6493,-3.6317,-3.5717,-3.5209,-3.5209,-3.5209,-3.5209,-3.5209,-3.5209,-3.5209,-3.5209,-3.5063,-3.4879,-3.4645,-3.4593,-3.4561,-3.4561,-3.4529,-3.4486,-3.4423,-3.4279,-3.4117,-3.4023,-3.3766,-3.3577,-3.3491,-3.3452,-3.3408,-3.3393,-3.3393,-3.3393,-3.3393,-3.3393,-3.3393,-3.3393,-3.3393,-3.3223,-3.2908,-3.2908,-3.2716,0.0,0.0,-2.6738,0.0,-3.2988,-3.4766,0.0,0.0,0.0,0.0,0.0,0.0,0.0,0.0,0.0,0.0,0.0,0.0,0.0,0.0,0.0,0.0,0.0,0.0,0.0,0.0,0.0,0.0,0.0,0.0,0.0,0.0,-3.8767,-3.8767,-3.8864,0.0,-3.9976,-3.9976,-4.0346,-4.1109,-4.1109,-4.1109,-4.1109,-4.1109,-4.1109,-4.1109,-4.1109,-4.1109,-4.1109,-4.1109,-4.1109,-4.1109,-4.1109,-4.1109,-4.1109,-4.1109,-4.1109,-4.1108,-4.1083,-4.1087,-4.1059,-4.0932,-4.089,-4.0844,-4.0731,-4.071,-4.0704,-4.0688,-4.0051,-3.9178,-3.8342,-3.742,-3.6459,-3.5575,-3.5278,-3.5209,-3.5209,-3.5209,-3.5209,-3.5209,-3.5209,-3.5209,-3.5209,-3.5185,-3.5141,-3.5115,-3.4954,-3.4851,-3.4851,-3.4643,-3.4508,-3.4497,-3.4464,-3.4341,-3.4111,-3.4049,-3.3868,-3.352,-3.3495,-3.3466,-3.3393,-3.3393,-3.3393,-3.3393,-3.3393,-3.3393,-3.3393,-3.3393,-3.3364,-3.3334,-3.3334,-3.3099,-1.8105,-2.1933,-2.5937,0.0,-3.1738,0.0,0.0,0.0,0.0,0.0,0.0,0.0,0.0,0.0,0.0,0.0,0.0,0.0,0.0,0.0,0.0,0.0,0.0,0.0,0.0,0.0,0.0,0.0,0.0,0.0,0.0,-3.7601,-3.7872,-3.7869,-3.8357,0.0,-3.9118,-3.9138,-3.9546,-4.0366,-4.0366,-4.062,-4.1109,-4.1109,-4.1109,-4.1109,-4.1109,-4.1109,-4.1109,-4.1109,-4.1109,-4.1109,-4.1109,-4.1109,-4.1109,-4.1109,-4.1109,-4.1109,-4.1109,-4.1103,-4.1094,-4.102,-4.1008,-4.0995,-4.0935,-4.0575,-4.0172,-4.0092,-3.9123,-3.8009,-3.7511,-3.6737,-3.596,-3.5527,-3.5392,-3.535,-3.5309,-3.5251,-3.5209,-3.5209,-3.5209,-3.5209,-3.5209,-3.5209,-3.5209,-3.5209,-3.5124,-3.5072,-3.5072,-3.4973,-3.4889,-3.4889,-3.4784,-3.4682,-3.4556,-3.4383,-3.4172,-3.3959,-3.3908,-3.3775,-3.3577,-3.3563,-3.3524,-3.3393,-3.3393,-3.3393,-3.3393,-3.3393,-3.3393,-3.3393,-3.3393,-3.3319,0.0,0.0,-2.3828,-2.8164,-2.9746,0.0,0.0,0.0,0.0,0.0,0.0,0.0,0.0,0.0,0.0,0.0,0.0,0.0,0.0,0.0,0.0,0.0,0.0,0.0,0.0,0.0,0.0,0.0,0.0,0.0,-3.6006,-3.6629,-3.6977,-3.6972,-3.7596,-3.8045,-3.8279,-3.8494,-3.8903,-3.9507,-3.9507,-3.9839,-4.0465,-4.0465,-4.0582,-4.0777,-4.0992,-4.1109,-4.1109,-4.1109,-4.1109,-4.1109,-4.1109,-4.1109,-4.1109,-4.1109,-4.1109,-4.1109,-4.1109,-4.1109,-4.1109,-4.1109,-4.1109,-4.1051,-4.0836,-4.0327,-3.9733,-3.9435,-3.8291,-3.7124,-3.6984,-3.6293,-3.5644,-3.5582,-3.5546,-3.5483,-3.5392,-3.5289,-3.5209,-3.5209,-3.5209,-3.5209,-3.5209,-3.5209,-3.5209,-3.5209,-3.5209,-3.5209,-3.5209,-3.5209,-3.5209,-3.5209,-3.5063,-3.4964,-3.4889,-3.4674,-3.4464,-3.4333,-3.4274,-3.4142,-3.3863,-3.3802,-3.3698,-3.3502,-3.3448,-3.3408,-3.3393,-3.3393,-3.3393,-3.3393,-3.3393,-3.3393,0.0,-1.7631,0.0,-2.3669,0.0,0.0,0.0,0.0,0.0,0.0,0.0,0.0,0.0,0.0,0.0,0.0,0.0,0.0,0.0,0.0,0.0,0.0,0.0,0.0,0.0,0.0,0.0,0.0,0.0,0.0,-3.5991,-3.6046,-3.6063,-3.6063,-3.6113,-3.6539,-3.736,-3.8181,-3.8611,-3.8669,-3.8669,-3.8689,-3.8728,-3.8728,-3.9157,-3.9917,-4.0738,-4.1109,-4.1109,-4.1109,-4.1109,-4.1109,-4.1109,-4.1109,-4.1109,-4.1109,-4.1109,-4.1109,-4.1109,-4.1109,-4.1109,-4.1109,-4.1109,-4.0953,-4.0112,-3.9839,-3.9644,-3.8861,-3.7982,-3.7269,-3.7127,-3.6443,-3.5744,-3.5552,-3.5501,-3.5451,-3.5327,-3.5242,-3.5209,-3.5209,-3.5209,-3.5209,-3.5209,-3.5209,-3.5209,-3.5209,-3.5209,-3.5209,-3.5209,-3.5209,-3.5209,-3.5209,-3.5201,-3.5107,-3.4927,-3.4879,-3.4743,-3.4431,-3.439,-3.4345,-3.4277,-3.4087,-3.3928,-3.3781,-3.3597,-3.3466,-3.3393,-3.3393,-3.3393,-3.3393,-3.3393,-3.3393,0.0,0.0,0.0,0.0,0.0,0.0,0.0,0.0,0.0,0.0,0.0,0.0,0.0,0.0,0.0,0.0,0.0,0.0,0.0,0.0,0.0,0.0,0.0,0.0,0.0,0.0,0.0,0.0,0.0,0.0,-3.5994,-3.5993,-3.5991,-3.6009,-3.6003,-3.6154,-3.6461,-3.6774,-3.7204,-3.777,-3.777,-3.8064,-3.8591,-3.8591,-3.8767,-3.906,-3.9352,-4.0114,-4.1109,-4.1109,-4.1109,-4.1109,-4.1109,-4.1109,-4.1109,-4.1109,-4.1109,-4.1109,-4.1109,-4.1109,-4.1109,-4.1109,-4.0717,-4.021,-3.9897,-3.9058,-3.8141,-3.7848,-3.7145,-3.6458,-3.6401,-3.6163,-3.5892,-3.5783,-3.5697,-3.5585,-3.547,-3.5328,-3.5262,-3.525,-3.5269,-3.5261,-3.5209,-3.5209,-3.5209,-3.5209,-3.5209,-3.5209,-3.5209,-3.5209,-3.5209,-3.5209,-3.5209,-3.5157,-3.5098,-3.5089,-3.5009,-3.486,-3.4851,-3.4743,-3.4508,-3.442,-3.4307,-3.4116,-3.3834,-3.3611,-3.3393,-3.3393,-3.3393,-3.3393,-3.3393,-3.3393,-1.3069,0.0,0.0,0.0,0.0,0.0,0.0,0.0,0.0,0.0,0.0,0.0,0.0,0.0,0.0,0.0,0.0,0.0,0.0,0.0,0.0,0.0,0.0,0.0,0.0,0.0,0.0,0.0,0.0,0.0,-3.5995,-3.5995,-3.5994,-3.5991,-3.6007,-3.6002,-3.5996,-3.5994,-3.6285,-3.6852,-3.6852,-3.7165,-3.7731,-3.7731,-3.7888,-3.8162,-3.8162,-3.9118,-4.0659,-4.0659,-4.0836,-4.1109,-4.1109,-4.1109,-4.1109,-4.1109,-4.1109,-4.1109,-4.1109,-4.0914,-4.0659,-4.0659,-4.0093,-3.9331,-3.9058,-3.818,-3.7243,-3.695,-3.6441,-3.5992,-3.5992,-3.5985,-3.5968,-3.5919,-3.581,-3.5678,-3.5591,-3.5432,-3.53,-3.5297,-3.5308,-3.5281,-3.5231,-3.5234,-3.5226,-3.5226,-3.5218,-3.5209,-3.5209,-3.5209,-3.5209,-3.5209,-3.5209,-3.5209,-3.5209,-3.5209,-3.5185,-3.5145,-3.5136,-3.5028,-3.4803,-3.4734,-3.4632,-3.4456,-3.4152,-3.3891,-3.3657,-3.3495,-3.3393,-3.3393,-3.3393,-3.3393,0.0,0.0,0.0,0.0,0.0,0.0,0.0,0.0,0.0,0.0,0.0,0.0,0.0,0.0,0.0,0.0,0.0,0.0,0.0,0.0,0.0,0.0,0.0,0.0,0.0,0.0,0.0,0.0,0.0,-3.5996,-3.5996,-3.5996,-3.5995,-3.5992,-3.6009,-3.6006,-3.6005,-3.5999,-3.5995,-3.5995,-3.5995,-3.5995,-3.5995,-3.5994,-3.6462,-3.7264,-3.7262,-3.8199,-3.9722,-3.9741,-4.0268,-4.1031,-4.1031,-4.1031,-4.1031,-4.1031,-4.1031,-4.1031,-4.1031,-4.0464,-3.9761,-3.9761,-3.9214,-3.8396,-3.7555,-3.7282,-3.7087,-3.6246,-3.5992,-3.5992,-3.5992,-3.5947,-3.5892,-3.5892,-3.5801,-3.5702,-3.5702,-3.5492,-3.5304,-3.5315,-3.5296,-3.5289,-3.5308,-3.5297,-3.5312,-3.5312,-3.5234,-3.5209,-3.5209,-3.5209,-3.5209,-3.5209,-3.5209,-3.5209,-3.5209,-3.5209,-3.5209,-3.5209,-3.5209,-3.5209,-3.5209,-3.5019,-3.4879,-3.4803,-3.4551,-3.4341,-3.4221,-3.3671,-3.3408,-3.3408,-3.3393,-3.3393,-1.2682,0.0,0.0,0.0,0.0,0.0,0.0,0.0,0.0,0.0,0.0,0.0,0.0,0.0,0.0,0.0,0.0,0.0,0.0,0.0,0.0,0.0,0.0,0.0,0.0,0.0,0.0,0.0,0.0,-3.5918,-3.5855,-3.5855,-3.5874,-3.5934,-3.5883,-3.5885,-3.5937,-3.5871,-3.5864,-3.5864,-3.5864,-3.5888,-3.5933,-3.5937,-3.6092,-3.6362,-3.6351,-3.6989,-3.8043,-3.8669,-3.9079,-3.9294,-3.9294,-3.9294,-3.9294,-3.9294,-3.9294,-3.9294,-3.9294,-3.9138,-3.8923,-3.8923,-3.8357,-3.7614,-3.7379,-3.6852,-3.6305,-3.607,-3.5992,-3.5992,-3.5992,-3.5986,-3.5978,-3.5978,-3.5904,-3.5843,-3.5843,-3.5717,-3.5565,-3.5456,-3.5411,-3.5364,-3.5315,-3.53,-3.5304,-3.5293,-3.5277,-3.5242,-3.5209,-3.5209,-3.5209,-3.5209,-3.5209,-3.5209,-3.5209,-3.5209,-3.5209,-3.5209,-3.5209,-3.5209,-3.5209,-3.516,-3.5107,-3.5098,-3.4832,-3.4663,-3.463,-3.4006,-3.3657,-3.3601,-3.3466,-3.3393,0.0,0.0,0.0,0.0,0.0,0.0,0.0,0.0,0.0,0.0,0.0,0.0,0.0,0.0,0.0,0.0,0.0,0.0,0.0,0.0,0.0,0.0,0.0,0.0,0.0,0.0,0.0,0.0,-3.4792,-3.495,-3.5271,-3.5619,-3.5809,-3.5862,-3.5823,-3.5828,-3.5856,-3.582,-3.5808,-3.5808,-3.5808,-3.5816,-3.5866,-3.5861,-3.5889,-3.5913,-3.5917,-3.6191,-3.6719,-3.7226,-3.7887,-3.8591,-3.8591,-3.8591,-3.8591,-3.8591,-3.8591,-3.8591,-3.8591,-3.8357,-3.8064,-3.8064,-3.7477,-3.6755,-3.6755,-3.6402,-3.5992,-3.5992,-3.5992,-3.5992,-3.5992,-3.5992,-3.5992,-3.5992,-3.5978,-3.594,-3.594,-3.5858,-3.5745,-3.5616,-3.5557,-3.5519,-3.5462,-3.5419,-3.5385,-3.5383,-3.5335,-3.5296,-3.5253,-3.5218,-3.5209,-3.5209,-3.5209,-3.5209,-3.5209,-3.5209,-3.5209,-3.5209,-3.5209,-3.5209,-3.5209,-3.5209,-3.5209,-3.5209,-3.5054,-3.486,-3.4632,-3.4141,-3.381,-3.3643,-3.3506,-3.3437,0.0,0.0,0.0,0.0,0.0,0.0,0.0,-2.0423,0.0,0.0,0.0,0.0,0.0,0.0,0.0,0.0,0.0,0.0,0.0,0.0,0.0,0.0,0.0,0.0,0.0,0.0,0.0,-3.3275,-3.3273,-3.3624,-3.4397,-3.519,-3.5657,-3.5666,-3.575,-3.5794,-3.578,-3.5785,-3.579,-3.579,-3.579,-3.579,-3.5792,-3.5797,-3.5782,-3.5804,-3.5808,-3.5808,-3.5808,-3.5808,-3.6789,-3.8289,-3.8306,-3.8305,-3.8304,-3.8301,-3.8319,-3.8318,-3.8318,-3.7809,-3.7165,-3.7165,-3.6636,-3.5992,-3.5992,-3.5992,-3.5992,-3.5992,-3.5992,-3.5992,-3.5992,-3.5992,-3.5992,-3.5992,-3.5992,-3.5992,-3.5992,-3.5949,-3.5883,-3.576,-3.5729,-3.5698,-3.5698,-3.5592,-3.5521,-3.551,-3.5404,-3.5324,-3.5293,-3.5253,-3.5209,-3.5209,-3.5209,-3.5209,-3.5209,-3.5209,-3.5209,-3.5209,-3.5209,-3.5209,-3.5209,-3.5209,-3.5209,-3.5209,-3.5209,-3.4954,-3.4445,-3.4196,-3.3908,-3.3605,-3.3545,-3.352,0.0,0.0,0.0,0.0,0.0,0.0,0.0,-1.7841,0.0,0.0,0.0,0.0,0.0,0.0,0.0,0.0,0.0,0.0,0.0,0.0,0.0,0.0,0.0,0.0,0.0,0.0,-3.2446,-3.3082,-3.3136,-3.3213,-3.3383,-3.4202,-3.4704,-3.4754,-3.5372,-3.5717,-3.5729,-3.5721,-3.5728,-3.5728,-3.5728,-3.5727,-3.5724,-3.5721,-3.5759,-3.5805,-3.5797,-3.5808,-3.5808,-3.5808,-3.6017,-3.6348,-3.6403,-3.6426,-3.6426,-3.6496,-3.6506,-3.65,-3.65,-3.6402,-3.6246,-3.6246,-3.6148,-3.5992,-3.5992,-3.5992,-3.5992,-3.5992,-3.5992,-3.5992,-3.5992,-3.5992,-3.5992,-3.5992,-3.5992,-3.5992,-3.5992,-3.5988,-3.5962,-3.5953,-3.5804,-3.5698,-3.5698,-3.5681,-3.5611,-3.5521,-3.5475,-3.5425,-3.5316,-3.5285,-3.5261,-3.5209,-3.5209,-3.5209,-3.5209,-3.5209,-3.5209,-3.5209,-3.5209,-3.5209,-3.5209,-3.5209,-3.5209,-3.5209,-3.5209,-3.5081,-3.4793,-3.4591,-3.4184,-3.3605,-3.3698,-3.3643,0.0,0.0,0.0,-2.1731,0.0,0.0,0.0,0.0,0.0,0.0,0.0,0.0,0.0,0.0,0.0,0.0,0.0,0.0,0.0,0.0,0.0,0.0,0.0,0.0,0.0,0.0,-3.0946,-3.1797,-3.2217,-3.2449,-3.2449,-3.3281,-3.3776,-3.3809,-3.4182,-3.4608,-3.5049,-3.5058,-3.5264,-3.5704,-3.5704,-3.5701,-3.5707,-3.5694,-3.5726,-3.5747,-3.5761,-3.5753,-3.5753,-3.5753,-3.5753,-3.5767,-3.5812,-3.586,-3.5844,-3.5893,-3.5918,-3.5955,-3.5955,-3.597,-3.5999,-3.5999,-3.5996,-3.5992,-3.5992,-3.5992,-3.5992,-3.5992,-3.5992,-3.5992,-3.5992,-3.5992,-3.5992,-3.5992,-3.5992,-3.5992,-3.5992,-3.5992,-3.5992,-3.5992,-3.5923,-3.5847,-3.5847,-3.582,-3.5783,-3.5713,-3.5631,-3.5579,-3.5501,-3.5438,-3.5395,-3.5355,-3.5281,-3.5239,-3.5261,-3.5261,-3.5245,-3.5209,-3.5209,-3.5209,-3.5209,-3.5209,-3.5209,-3.5209,-3.5209,-3.5098,-3.4908,-3.4889,-3.4614,-3.4062,-3.3961,-3.385,0.0,0.0,0.0,0.0,0.0,-2.3317,0.0,0.0,0.0,0.0,0.0,0.0,0.0,0.0,0.0,0.0,0.0,0.0,0.0,0.0,0.0,0.0,0.0,0.0,0.0,0.0,-2.8992,-3.0017,-3.0554,-3.096,-3.1289,-3.2295,-3.2856,-3.2856,-3.301,-3.3436,-3.4137,-3.4316,-3.4742,-3.5458,-3.5626,-3.5704,-3.5704,-3.5704,-3.5704,-3.5704,-3.5704,-3.5704,-3.5704,-3.5704,-3.5704,-3.5711,-3.5756,-3.579,-3.5773,-3.5802,-3.5828,-3.5888,-3.5888,-3.5917,-3.5973,-3.5971,-3.5984,-3.5992,-3.5992,-3.5992,-3.5992,-3.5992,-3.5992,-3.5992,-3.5992,-3.5992,-3.5992,-3.5992,-3.5992,-3.5992,-3.5992,-3.5992,-3.5992,-3.5992,-3.5992,-3.5992,-3.5992,-3.5968,-3.5902,-3.5892,-3.581,-3.5728,-3.5706,-3.5614,-3.5531,-3.5501,-3.5391,-3.533,-3.5308,-3.53,-3.5285,-3.5215,-3.5226,-3.5218,-3.5218,-3.5209,-3.5209,-3.5209,-3.5209,-3.5115,-3.4964,-3.5115,-3.4963,-3.4478,-3.4267,-3.413,0.0,0.0,0.0,0.0,-2.4469,0.0,0.0,0.0,0.0,0.0,0.0,0.0,0.0,0.0,0.0,0.0,0.0,0.0,0.0,0.0,0.0,0.0,0.0,0.0,0.0,0.0,0.0,-2.8184,-2.7654,-2.7944,-2.9495,-3.1101,-3.1947,-3.1947,-3.2701,-3.3146,-3.3242,-3.4002,-3.4452,-3.4568,-3.5342,-3.5704,-3.5704,-3.5704,-3.5704,-3.5704,-3.5704,-3.5704,-3.5704,-3.5704,-3.5704,-3.5701,-3.572,-3.5714,-3.5723,-3.5777,-3.5804,-3.5816,-3.5816,-3.5869,-3.5906,-3.5916,-3.5953,-3.5992,-3.5992,-3.5992,-3.5992,-3.5992,-3.5992,-3.5992,-3.5992,-3.5992,-3.5992,-3.5992,-3.5992,-3.5992,-3.5992,-3.5992,-3.5992,-3.5992,-3.5992,-3.5992,-3.5992,-3.5989,-3.5976,-3.5916,-3.5883,-3.583,-3.5715,-3.5693,-3.5621,-3.5513,-3.5483,-3.5418,-3.5315,-3.53,-3.53,-3.5293,-3.5281,-3.5285,-3.5285,-3.5226,-3.5209,-3.5209,-3.5209,-3.5193,-3.5176,-3.5193,-3.4963,-3.4508,-3.4643,-3.4591,0.0,0.0,0.0,0.0,0.0,0.0,0.0,0.0,-2.2645,0.0,0.0,0.0,0.0,0.0,0.0,0.0,0.0,0.0,0.0,0.0,0.0,0.0,0.0,0.0,0.0,0.0,0.0,0.0,0.0,-2.6977,-2.9186,-2.9979,-3.0578,-3.1101,-3.1463,-3.1869,-3.2333,-3.2706,-3.3402,-3.4394,-3.4781,-3.5206,-3.5704,-3.5704,-3.5704,-3.5704,-3.5704,-3.5704,-3.5704,-3.5704,-3.5704,-3.569,-3.5698,-3.5704,-3.5698,-3.5739,-3.5749,-3.5733,-3.5733,-3.5791,-3.5836,-3.5833,-3.5894,-3.5937,-3.5937,-3.5976,-3.5992,-3.5995,-3.5995,-3.5995,-3.5991,-3.6009,-3.6006,-3.5995,-3.5992,-3.5992,-3.5992,-3.5992,-3.5992,-3.5992,-3.5992,-3.5992,-3.5992,-3.5992,-3.5988,-3.5953,-3.5951,-3.5942,-3.5875,-3.584,-3.5783,-3.5741,-3.5664,-3.5554,-3.5432,-3.5419,-3.5372,-3.5296,-3.5293,-3.5297,-3.5312,-3.5269,-3.5234,-3.5209,-3.4732,-3.4503,-3.4503,-3.3998,-3.365,-3.3476,-3.3857,-3.3988,-2.4783,0.0,0.0,0.0,0.0,0.0,0.0,0.0,0.0,0.0,0.0,0.0,0.0,0.0,0.0,0.0,0.0,0.0,0.0,0.0,0.0,0.0,0.0,0.0,0.0,0.0,0.0,0.0,0.0,0.0,-2.8431,-2.9031,-2.9592,-3.0211,-3.0482,-3.0888,-3.1463,-3.1695,-3.2435,-3.3692,-3.4162,-3.4607,-3.5007,-3.5472,-3.5568,-3.5361,-3.5588,-3.5704,-3.5704,-3.5704,-3.5704,-3.5704,-3.5704,-3.5704,-3.5704,-3.5704,-3.5698,-3.5697,-3.5697,-3.5733,-3.5772,-3.579,-3.5823,-3.5864,-3.5872,-3.5903,-3.5953,-3.5969,-3.5968,-3.597,-3.5996,-3.5996,-3.5995,-3.6005,-3.6001,-3.6,-3.5994,-3.5992,-3.5992,-3.5992,-3.5992,-3.5992,-3.5992,-3.5992,-3.5992,-3.5992,-3.5992,-3.5992,-3.5992,-3.5951,-3.5924,-3.5892,-3.5807,-3.5693,-3.5576,-3.5546,-3.5498,-3.5364,-3.5352,-3.5327,-3.5308,-3.5063,-3.4913,-3.4863,-3.4071,-3.3643,-3.3643,-3.3005,-3.2585,-3.2394,-3.2995,-3.3277,0.0,0.0,0.0,-2.3045,0.0,0.0,0.0,0.0,-2.4605,0.0,0.0,0.0,0.0,0.0,0.0,-2.0183,0.0,0.0,0.0,0.0,0.0,0.0,0.0,0.0,0.0,0.0,0.0,0.0,0.0,0.0,-2.6609,-2.8373,-2.9306,-2.9345,-3.0153,-3.0617,-3.0636,-3.1405,-3.1831,-3.1908,-3.3596,-3.3963,-3.3242,-3.493,-3.5245,-3.449,-3.5342,-3.5704,-3.5704,-3.5704,-3.5704,-3.5704,-3.5704,-3.5704,-3.5704,-3.5704,-3.5709,-3.569,-3.569,-3.5703,-3.5709,-3.5781,-3.5802,-3.5791,-3.5791,-3.5791,-3.5816,-3.5872,-3.5895,-3.5918,-3.5989,-3.5991,-3.5993,-3.5995,-3.5995,-3.5992,-3.5996,-3.5992,-3.5992,-3.5992,-3.5992,-3.5992,-3.5992,-3.5992,-3.5992,-3.5992,-3.5992,-3.5992,-3.5992,-3.5991,-3.5978,-3.5914,-3.5908,-3.584,-3.5698,-3.5693,-3.564,-3.5504,-3.5431,-3.5364,-3.5308,-3.4492,-3.4029,-3.4029,-3.3181,-3.2737,-3.2737,-3.2718,-3.2298,-3.156,-3.2348,-3.2722,0.0,0.0,-2.7054,-2.4324,0.0,0.0,0.0,0.0,0.0,0.0,0.0,0.0,0.0,0.0,0.0,-2.0863,0.0,0.0,0.0,0.0,0.0,0.0,0.0,0.0,0.0,0.0,0.0,0.0,0.0,0.0,0.0,-2.7813,-2.8707,-2.9287,-3.0153,-3.0598,-3.0598,-3.0868,-3.1275,-3.1811,-3.2396,-3.2836,-3.3126,-3.3706,-3.4137,-3.4413,-3.4703,-3.5168,-3.5704,-3.5704,-3.5704,-3.5704,-3.5704,-3.5704,-3.5704,-3.5704,-3.5704,-3.5704,-3.5704,-3.5697,-3.5704,-3.5737,-3.5721,-3.5735,-3.5729,-3.5758,-3.5794,-3.584,-3.5837,-3.5846,-3.587,-3.591,-3.5926,-3.5926,-3.5973,-3.5995,-3.5996,-3.5996,-3.5996,-3.5992,-3.5991,-3.6007,-3.5995,-3.5992,-3.5992,-3.5992,-3.5992,-3.5992,-3.5992,-3.5992,-3.5988,-3.5976,-3.5976,-3.5938,-3.5843,-3.5749,-3.5428,-3.4802,-3.5291,-3.5281,-3.4591,-3.4283,-3.4089,-3.3999,-3.2615,-3.1897,-3.1897,-3.1331,-3.0911,-3.0643,-3.0911,-3.1331,-2.6841,-2.7314,0.0,0.0,-2.4792,0.0,-2.2755,0.0,0.0,0.0,0.0,0.0,0.0,0.0,0.0,-2.1509,-2.0014,0.0,0.0,0.0,0.0,0.0,0.0,0.0,0.0,0.0,-1.9577,-2.2245,0.0,0.0,0.0,0.0,-2.7948,-2.8803,-2.9669,-3.0288,-3.0598,-3.0598,-3.0868,-3.1386,-3.1657,-3.1947,-3.2237,-3.2836,-3.3242,-3.3499,-3.4123,-3.4723,-3.5264,-3.5568,-3.5704,-3.5704,-3.5704,-3.5704,-3.5704,-3.5704,-3.5704,-3.5704,-3.5704,-3.5704,-3.5704,-3.5704,-3.5693,-3.5703,-3.5708,-3.5727,-3.5756,-3.5758,-3.5754,-3.5767,-3.5787,-3.5833,-3.5861,-3.5862,-3.5926,-3.596,-3.5965,-3.5989,-3.5993,-3.5996,-3.5996,-3.5996,-3.5992,-3.6007,-3.6001,-3.5994,-3.5992,-3.5992,-3.5992,-3.5992,-3.5992,-3.5992,-3.5992,-3.5985,-3.5938,-3.5824,-3.539,-3.4531,-3.4952,-3.4824,-3.3877,-3.3527,-3.3313,-3.3224,-3.1827,-3.1109,-3.1063,-3.0493,-3.0211,-3.0211,-3.0211,-3.0472]},{"header":{"parameterUnit":"m.s-1","parameterCategory":1,"la1":30.6,"la2":29.2853,"lo1":-89.7004,"lo2":-87.6739,"dy":0.0162,"dx":0.0183,"nx":112,"ny":82,"refTime":"2025-07-11T12:00:00:Z","depth":0,"parameterNumber":3,"parameterNumberName":"V-component_of_WINDS"},"data":[0.0,0.0,0.0,0.0,0.0,0.0,0.0,0.0,0.0,0.0,0.0,0.0,0.0,0.0,0.0,0.0,0.0,0.0,0.0,0.0,0.0,0.0,0.0,0.0,0.0,0.0,0.0,0.0,0.0,0.0,0.0,0.0,0.0,0.0,0.0,0.0,0.0,0.0,0.0,0.0,0.0,0.0,0.0,0.0,0.0,0.0,0.0,0.0,0.0,0.0,0.0,0.0,0.0,0.0,0.0,0.0,0.0,0.0,0.0,0.0,0.0,0.0,0.0,0.0,0.0,0.0,0.0,0.0,0.0,0.0,0.0,0.0,0.0,0.0,0.0,0.0,0.0,0.0,0.0,0.0,0.0,0.0,0.0,0.0,0.0,0.0,0.0,0.0,0.0,0.0,0.0,-1.456,-1.5873,-1.6551,-1.6272,-1.6414,-1.508,-1.1707,0.0,0.0,0.0,0.0,0.0,0.0,0.0,0.0,0.0,0.0,0.0,0.0,0.0,0.0,0.0,0.0,0.0,0.0,0.0,0.0,0.0,0.0,0.0,0.0,0.0,0.0,0.0,0.0,0.0,0.0,0.0,0.0,0.0,0.0,0.0,0.0,0.0,0.0,0.0,0.0,0.0,0.0,0.0,0.0,0.0,0.0,0.0,0.0,0.0,0.0,0.0,0.0,0.0,0.0,0.0,0.0,0.0,0.0,0.0,0.0,0.0,0.0,0.0,0.0,0.0,0.0,0.0,0.0,0.0,0.0,0.0,0.0,0.0,0.0,0.0,0.0,0.0,0.0,0.0,0.0,0.0,0.0,0.0,0.0,0.0,0.0,0.0,0.0,0.0,0.0,0.0,0.0,0.0,0.0,0.0,0.0,0.0,0.0,0.0,0.0,0.0,0.0,0.0,0.0,-1.3467,-1.6425,-1.744,-1.753,-1.654,-1.7889,-1.6698,-1.1811,0.0,0.0,0.0,0.0,0.0,0.0,0.0,0.0,0.0,0.0,0.0,0.0,0.0,0.0,0.0,0.0,0.0,0.0,0.0,0.0,0.0,0.0,0.0,0.0,0.0,0.0,0.0,0.0,0.0,0.0,0.0,0.0,0.0,0.0,0.0,0.0,0.0,0.0,0.0,0.0,0.0,0.0,0.0,0.0,0.0,0.0,0.0,0.0,0.0,0.0,0.0,0.0,0.0,0.0,0.0,0.0,0.0,0.0,0.0,0.0,0.0,0.0,0.0,0.0,0.0,0.0,0.0,0.0,0.0,0.0,0.0,0.0,0.0,0.0,0.0,0.0,0.0,0.0,0.0,0.0,0.0,0.0,0.0,0.0,0.0,0.0,0.0,0.0,0.0,0.0,0.0,0.0,0.0,0.0,0.0,0.0,0.0,0.0,0.0,0.0,0.0,0.0,0.0,-1.3113,-1.4575,-1.7992,-1.8127,-1.7738,-1.709,-1.7756,-1.6293,-1.1774,-1.163,0.0,0.0,0.0,0.0,0.0,0.0,0.0,0.0,0.0,0.0,0.0,0.0,0.0,0.0,0.0,0.0,0.0,0.0,0.0,0.0,0.0,0.0,0.0,0.0,0.0,0.0,0.0,0.0,0.0,0.0,0.0,0.0,0.0,0.0,0.0,0.0,0.0,0.0,0.0,0.0,0.0,0.0,0.0,0.0,0.0,0.0,0.0,0.0,0.0,0.0,0.0,0.0,0.0,0.0,0.0,0.0,0.0,0.0,0.0,0.0,0.0,0.0,0.0,0.0,0.0,0.0,0.0,0.0,0.0,0.0,0.0,0.0,0.0,0.0,0.0,0.0,0.0,0.0,0.0,0.0,0.0,0.0,0.0,0.0,0.0,0.0,0.0,0.0,0.0,0.0,0.0,0.0,0.0,0.0,0.0,0.0,0.0,0.0,0.0,0.0,0.0,0.0,-1.4593,-1.5791,-1.8731,-1.8355,-1.7811,-1.7617,-1.7371,-1.561,-1.1813,-1.1526,0.0,0.0,0.0,0.0,0.0,0.0,0.0,0.0,0.0,0.0,0.0,0.0,0.0,0.0,0.0,0.0,0.0,0.0,0.0,0.0,0.0,0.0,0.0,0.0,0.0,0.0,0.0,0.0,0.0,0.0,0.0,0.0,0.0,0.0,0.0,0.0,0.0,0.0,0.0,0.0,0.0,0.0,0.0,0.0,0.0,0.0,0.0,0.0,0.0,0.0,0.0,0.0,0.0,0.0,0.0,0.0,0.0,0.0,0.0,0.0,0.0,0.0,0.0,0.0,0.0,0.0,0.0,0.0,0.0,0.0,0.0,0.0,0.0,0.0,0.0,0.0,0.0,0.0,0.0,0.0,0.0,0.0,0.0,0.0,0.0,0.0,0.0,0.0,0.0,0.0,0.0,0.0,0.0,0.0,0.0,0.0,0.0,0.0,0.0,0.0,0.0,0.0,-1.456,-1.6624,-1.8115,-1.8206,-1.8082,-1.789,-1.7363,-1.5522,-1.2003,-1.1267,0.0,0.0,0.0,0.0,0.0,0.0,0.0,0.0,0.0,0.0,0.0,0.0,0.0,0.0,0.0,0.0,0.0,0.0,0.0,0.0,0.0,0.0,0.0,0.0,0.0,0.0,0.0,0.0,0.0,0.0,0.0,0.0,0.0,0.0,0.0,0.0,0.0,0.0,0.0,0.0,0.0,0.0,0.0,0.0,0.0,0.0,0.0,0.0,0.0,0.0,0.0,0.0,0.0,0.0,0.0,0.0,0.0,0.0,0.0,0.0,0.0,0.0,0.0,0.0,0.0,0.0,0.0,0.0,0.0,0.0,0.0,0.0,0.0,0.0,0.0,0.0,0.0,0.0,0.0,0.0,0.0,0.0,0.0,0.0,0.0,0.0,0.0,0.0,0.0,0.0,0.0,0.0,0.0,0.0,0.0,0.0,0.0,0.0,0.0,0.0,0.0,0.0,-1.3806,-1.5793,0.0,-1.8191,-1.805,-1.7682,-1.7829,-1.6323,-1.247,0.0,0.0,0.0,0.0,0.0,0.0,0.0,0.0,0.0,0.0,0.0,0.0,0.0,0.0,0.0,0.0,0.0,0.0,0.0,0.0,0.0,0.0,0.0,0.0,0.0,0.0,0.0,0.0,0.0,0.0,0.0,0.0,0.0,0.0,0.0,0.0,0.0,0.0,0.0,0.0,0.0,0.0,0.0,0.0,0.0,0.0,0.0,0.0,0.0,0.0,0.0,0.0,0.0,0.0,0.0,0.0,0.0,0.0,0.0,0.0,0.0,0.0,0.0,0.0,0.0,0.0,0.0,0.0,0.0,0.0,0.0,0.0,0.0,0.0,0.0,0.0,0.0,0.0,0.0,0.0,0.0,0.0,0.0,0.0,0.0,0.0,0.0,0.0,0.0,0.0,0.0,0.0,0.0,0.0,0.0,0.0,0.0,0.0,0.0,0.0,0.0,0.0,-1.2087,-1.3744,-1.566,0.0,-1.8066,-1.7892,-1.7438,-1.7797,-1.6489,-1.2766,0.0,0.0,0.0,0.0,0.0,0.0,0.0,0.0,0.0,0.0,0.0,0.0,0.0,0.0,0.0,0.0,0.0,0.0,0.0,0.0,0.0,0.0,0.0,0.0,0.0,0.0,0.0,0.0,0.0,0.0,0.0,0.0,0.0,0.0,0.0,0.0,0.0,0.0,0.0,0.0,0.0,0.0,0.0,0.0,0.0,0.0,0.0,0.0,0.0,0.0,0.0,0.0,0.0,0.0,0.0,0.0,0.0,0.0,0.0,0.0,0.0,0.0,0.0,0.0,0.0,0.0,0.0,0.0,0.0,0.0,0.0,0.0,0.0,0.0,0.0,0.0,0.0,0.0,0.0,0.0,0.0,0.0,0.0,0.0,0.0,0.0,0.0,0.0,0.0,0.0,0.0,0.0,0.0,0.0,0.0,0.0,0.0,0.0,0.0,0.0,0.0,0.0,-1.22,-1.4532,-1.6616,-1.7691,-1.7794,-1.7633,-1.7238,-1.7149,-1.5834,0.0,0.0,0.0,0.0,0.0,0.0,0.0,0.0,0.0,0.0,0.0,0.0,0.0,0.0,0.0,0.0,0.0,0.0,0.0,0.0,0.0,0.0,0.0,0.0,0.0,0.0,0.0,0.0,0.0,0.0,0.0,0.0,0.0,0.0,0.0,0.0,0.0,0.0,0.0,0.0,0.0,0.0,0.0,0.0,0.0,0.0,0.0,0.0,0.0,0.0,0.0,0.0,0.0,0.0,0.0,0.0,0.0,0.0,0.0,0.0,0.0,0.0,0.0,0.0,0.0,0.0,0.0,0.0,0.0,0.0,0.0,0.0,0.0,0.0,0.0,0.0,0.0,0.0,0.0,0.0,0.0,0.0,0.0,0.0,0.0,0.0,0.0,0.0,0.0,0.0,0.0,0.0,0.0,0.0,0.0,0.0,0.0,0.0,0.0,0.0,0.0,0.0,0.0,-1.2777,-1.4761,-1.6615,-1.7882,-1.8003,-1.796,-1.7833,-1.8241,-1.7106,-1.3865,0.0,0.0,0.0,0.0,0.0,0.0,0.0,0.0,0.0,0.0,0.0,0.0,0.0,0.0,0.0,0.0,0.0,0.0,0.0,0.0,0.0,0.0,0.0,0.0,0.0,0.0,0.0,0.0,0.0,0.0,0.0,0.0,0.0,0.0,0.0,0.0,0.0,0.0,0.0,0.0,0.0,0.0,0.0,0.0,0.0,0.0,0.0,0.0,0.0,0.0,0.0,0.0,0.0,0.0,0.0,0.0,0.0,0.0,0.0,0.0,0.0,0.0,0.0,0.0,0.0,0.0,0.0,0.0,0.0,0.0,0.0,0.0,0.0,0.0,0.0,0.0,0.0,0.0,0.0,0.0,0.0,0.0,0.0,0.0,0.0,0.0,0.0,0.0,0.0,0.0,0.0,0.0,0.0,0.0,0.0,0.0,0.0,0.0,0.0,0.0,0.0,0.0,-1.2875,-1.5044,-1.6863,-1.7594,-1.7742,-1.7814,-1.7892,-1.8337,-1.743,-1.4627,0.0,0.0,0.0,0.0,0.0,0.0,0.0,0.0,0.0,0.0,0.0,0.0,0.0,0.0,0.0,0.0,0.0,0.0,0.0,0.0,0.0,0.0,0.0,0.0,0.0,0.0,0.0,0.0,0.0,0.0,0.0,0.0,0.0,0.0,0.0,0.0,0.0,0.0,0.0,0.0,0.0,0.0,0.0,0.0,0.0,0.0,0.0,0.0,0.0,0.0,0.0,0.0,0.0,0.0,0.0,0.0,0.0,0.0,0.0,0.0,0.0,0.0,0.0,0.0,0.0,0.0,0.0,0.0,0.0,0.0,0.0,0.0,0.0,0.0,0.0,0.0,0.0,0.0,0.0,0.0,0.0,0.0,0.0,0.0,0.0,0.0,0.0,0.0,0.0,0.0,0.0,0.0,0.0,0.0,0.0,0.0,0.0,0.0,0.0,0.0,0.0,0.0,-1.2835,-1.5463,-1.7292,-1.7127,-1.7305,-1.7502,-1.7632,-1.7851,-1.7157,-1.5279,0.0,0.0,0.0,0.0,0.0,0.0,0.0,0.0,0.0,0.0,0.0,0.0,0.0,0.0,0.0,0.0,0.0,0.0,0.0,0.0,0.0,0.0,0.0,0.0,0.0,0.0,0.0,0.0,0.0,0.0,0.0,0.0,0.0,0.0,0.0,0.0,0.0,0.0,0.0,0.0,0.0,0.0,0.0,0.0,0.0,0.0,0.0,0.0,0.0,0.0,0.0,0.0,0.0,0.0,0.0,0.0,0.0,0.0,0.0,0.0,-0.8091,0.0,0.0,0.0,0.0,0.0,0.0,0.0,0.0,0.0,0.0,0.0,0.0,0.0,0.0,0.0,0.0,0.0,0.0,0.0,0.0,0.0,0.0,0.0,0.0,0.0,0.0,0.0,0.0,0.0,0.0,0.0,0.0,0.0,0.0,0.0,0.0,0.0,0.0,0.0,0.0,0.0,-1.4294,-1.6323,-1.7764,-1.794,-1.8305,-1.8386,-1.7951,-1.8235,-1.781,-1.6343,0.0,0.0,0.0,0.0,0.0,0.0,0.0,0.0,0.0,0.0,0.0,0.0,0.0,0.0,0.0,0.0,0.0,0.0,0.0,0.0,0.0,0.0,0.0,0.0,0.0,0.0,0.0,0.0,0.0,0.0,0.0,0.0,0.0,0.0,0.0,0.0,0.0,0.0,0.0,0.0,0.0,0.0,0.0,0.0,0.0,0.0,0.0,0.0,0.0,0.0,0.0,0.0,0.0,0.0,0.0,0.0,0.0,0.0,0.0,0.0,0.0,-0.8624,0.0,0.0,0.0,0.0,0.0,0.0,0.0,0.0,0.0,0.0,0.0,0.0,0.0,0.0,0.0,0.0,0.0,0.0,0.0,0.0,0.0,0.0,0.0,0.0,0.0,0.0,0.0,0.0,0.0,0.0,0.0,0.0,0.0,0.0,0.0,0.0,0.0,0.0,0.0,0.0,-1.4745,-1.6579,-1.7751,-1.763,-1.7899,-1.8091,-1.8108,-1.7982,-1.7624,-1.6927,-1.5376,0.0,0.0,0.0,0.0,0.0,0.0,0.0,0.0,0.0,0.0,0.0,0.0,0.0,0.0,0.0,0.0,0.0,0.0,0.0,0.0,0.0,0.0,0.0,0.0,0.0,0.0,0.0,0.0,0.0,0.0,0.0,0.0,0.0,0.0,0.0,0.0,0.0,0.0,0.0,0.0,0.0,0.0,0.0,0.0,0.0,0.0,0.0,0.0,0.0,0.0,0.0,0.0,0.0,0.0,0.0,-1.1533,-1.1533,-1.1672,-1.1855,-1.0528,-1.0166,-1.0491,0.0,0.0,0.0,0.0,0.0,0.0,0.0,0.0,0.0,0.0,0.0,0.0,0.0,0.0,0.0,0.0,0.0,0.0,0.0,0.0,0.0,0.0,0.0,0.0,0.0,-1.6844,-1.7114,0.0,0.0,0.0,0.0,0.0,0.0,0.0,0.0,0.0,0.0,0.0,0.0,-1.5027,-1.6752,-1.7731,-1.7188,-1.7304,-1.7591,-1.7989,-1.757,-1.7303,-1.7295,-1.5968,-1.4958,0.0,0.0,0.0,0.0,0.0,0.0,0.0,0.0,0.0,0.0,0.0,0.0,0.0,0.0,0.0,0.0,0.0,0.0,0.0,0.0,0.0,0.0,0.0,0.0,0.0,0.0,0.0,0.0,0.0,0.0,0.0,0.0,-0.3464,-0.3966,0.0,0.0,0.0,0.0,0.0,0.0,0.0,0.0,0.0,0.0,0.0,0.0,0.0,0.0,-1.0652,-1.0982,-1.1489,-1.2105,-1.2423,-1.2775,-1.3177,-1.3177,-1.3199,-1.3228,-1.3016,0.0,-1.0989,-1.0959,0.0,0.0,0.0,0.0,0.0,0.0,0.0,0.0,0.0,0.0,0.0,0.0,0.0,0.0,0.0,0.0,0.0,0.0,0.0,0.0,0.0,0.0,-1.7922,-1.7984,-1.7846,-1.7779,0.0,-1.6088,-1.4001,-1.2705,0.0,0.0,0.0,0.0,0.0,0.0,0.0,0.0,-1.6124,-1.753,-1.8218,-1.7739,-1.8066,-1.8062,-1.7385,-1.7578,-1.772,-1.7719,-1.6771,-1.5973,-1.5443,-1.4634,0.0,0.0,0.0,0.0,0.0,0.0,0.0,0.0,0.0,0.0,0.0,0.0,0.0,0.0,0.0,0.0,0.0,0.0,0.0,0.0,0.0,0.0,0.0,0.0,0.0,0.0,0.0,0.0,0.0,-0.3542,-0.4354,-0.4979,-0.5075,-0.5122,0.0,0.0,0.0,0.0,0.0,0.0,0.0,0.0,0.0,-1.03,-1.0967,-1.1684,-1.2423,-1.2978,-1.3374,-1.3616,-1.3762,-1.3901,-1.404,-1.404,-1.404,-1.404,-1.404,-1.3572,-1.2726,-1.2487,-1.2057,-1.1605,0.0,0.0,0.0,0.0,0.0,-1.4317,-1.4425,0.0,0.0,0.0,0.0,0.0,0.0,0.0,0.0,0.0,0.0,0.0,0.0,0.0,0.0,-1.8901,-1.9068,-1.9274,-1.9244,-1.8347,-1.699,0.0,-1.4899,-1.4284,-1.2283,0.0,0.0,0.0,0.0,0.0,-1.6665,-1.7371,-1.77,-1.7475,-1.7659,-1.7618,-1.724,-1.7352,-1.7455,-1.7455,-1.7079,-1.6672,-1.6295,-1.5322,-1.4137,0.0,0.0,0.0,0.0,0.0,0.0,0.0,0.0,0.0,0.0,0.0,0.0,0.0,0.0,0.0,0.0,0.0,0.0,0.0,0.0,0.0,0.0,0.0,0.0,0.0,0.0,0.0,0.0,-0.4178,-0.4895,-0.5741,-0.5839,-0.5888,0.0,0.0,0.0,0.0,0.0,0.0,-0.8618,-0.9946,-1.1136,-1.2061,-1.2921,-1.3499,-1.374,-1.4262,-1.4548,-1.4589,-1.4589,-1.4633,-1.4714,-1.4714,-1.4714,-1.4714,-1.4714,-1.4575,-1.4306,-1.3618,-1.3204,-1.3028,-1.39,-1.4232,0.0,-1.5634,-1.6142,-1.6241,-1.6602,-1.6959,-1.7163,-1.6409,0.0,-1.539,-1.4671,0.0,0.0,0.0,0.0,-1.851,-1.9011,0.0,-1.9662,-1.98,-2.0105,-2.0271,-2.0037,-2.0083,-1.9608,0.0,-1.7473,-1.6808,-1.4235,0.0,0.0,0.0,0.0,-1.6281,-1.6959,-1.7128,-1.7199,-1.7199,-1.7199,-1.7199,-1.7199,-1.7199,-1.7199,-1.7199,-1.7199,-1.7113,-1.6909,-1.6091,-1.5212,-1.429,0.0,0.0,0.0,0.0,0.0,0.0,0.0,0.0,0.0,0.0,0.0,0.0,0.0,0.0,0.0,0.0,0.0,0.0,0.0,0.0,0.0,0.0,0.0,0.0,0.0,0.0,0.0,0.0,0.0,-0.5861,-0.6102,0.0,0.0,0.0,0.0,-0.7084,-0.885,-1.0003,-1.0095,-1.1554,-1.2701,-1.3375,-1.4086,-1.4445,-1.446,-1.4489,-1.4618,-1.4878,-1.4878,-1.5039,-1.5338,-1.5338,-1.5338,-1.5338,-1.5338,-1.533,-1.5214,-1.4012,-1.3845,-1.4447,-1.5155,-1.5963,-1.6825,-1.7735,-1.8191,-1.8261,-1.772,-1.7753,-1.7981,-1.7553,-1.7194,-1.6903,-1.6822,-1.6902,0.0,0.0,-1.7734,-1.8726,-1.9396,-1.912,-1.9162,-2.1106,-2.0747,-2.0143,-2.0868,-2.1133,-2.0901,0.0,-1.9198,-1.8597,-1.7926,0.0,-1.7036,-1.7031,-1.6664,-1.6565,-1.7122,-1.7206,-1.7199,-1.7199,-1.7199,-1.7199,-1.7199,-1.7199,-1.7199,-1.7199,-1.7199,-1.7186,-1.718,-1.7491,-1.7064,-1.5811,-1.5266,0.0,0.0,0.0,0.0,0.0,0.0,0.0,0.0,0.0,0.0,0.0,0.0,0.0,0.0,0.0,0.0,0.0,0.0,0.0,0.0,0.0,0.0,0.0,0.0,0.0,0.0,0.0,0.0,-0.7249,-0.7228,0.0,0.0,-0.8309,-0.8896,-0.9384,-1.0533,-1.1668,-1.2702,-1.342,-1.407,-1.4721,-1.497,-1.5189,-1.5401,-1.5592,-1.5788,-1.5862,-1.5862,-1.5921,-1.6023,-1.5833,-1.5848,-1.6009,-1.5606,-1.5506,-1.5687,-1.5021,-1.4729,-1.481,-1.5349,-1.5766,-1.6218,-1.7384,-1.8132,-1.856,-1.8414,-1.8907,-1.9521,-1.9111,-1.869,-1.8288,-1.7999,-1.7971,-1.8132,-1.8468,-1.9105,-1.9832,-2.0415,-2.0114,-1.991,-2.0742,-2.0673,-2.0526,-2.09,-2.109,-2.1068,-2.072,-2.0017,-1.9303,-1.8715,-1.844,-1.8179,-1.7826,-1.7904,-1.8074,-1.827,-1.7996,-1.7774,-1.7774,-1.7434,-1.7199,-1.7199,-1.7199,-1.7199,-1.7199,-1.7199,-1.7199,-1.7199,-1.7344,-1.6851,-1.5668,-1.5893,-1.4746,0.0,0.0,0.0,0.0,0.0,0.0,0.0,0.0,0.0,0.0,0.0,0.0,0.0,0.0,0.0,0.0,0.0,0.0,0.0,0.0,0.0,0.0,0.0,0.0,0.0,0.0,-0.6595,-0.7819,-0.7983,-0.8118,-0.8505,-0.9242,-0.9965,-1.0608,-1.1641,-1.2633,-1.3528,-1.4212,-1.4719,-1.5033,-1.5407,-1.5694,-1.5913,-1.6111,-1.6309,-1.6411,-1.6411,-1.6411,-1.6404,-1.6162,-1.6177,-1.6389,-1.5928,-1.587,-1.6045,-1.5723,-1.5425,-1.5274,-1.5761,-1.5968,-1.6132,-1.7612,-1.8443,-1.8882,-1.9181,-1.957,-1.9971,-1.9932,-1.9641,-1.9285,-1.8973,-1.8911,-1.9051,-1.9233,-1.9595,-2.002,-2.0619,-2.0335,-2.0104,-2.0849,-2.0944,-2.0918,-2.1287,-2.1337,-2.1254,-2.1076,-2.0475,-1.9921,-1.9493,-1.9319,-1.9081,-1.8728,-1.8806,-1.8911,-1.8911,-1.8597,-1.8296,-1.8114,-1.7735,-1.7421,-1.7212,-1.7199,-1.7199,-1.7199,-1.7199,-1.7199,-1.7199,-1.7029,-1.6571,-1.5833,-1.6063,-1.5172,-1.31,0.0,0.0,0.0,0.0,0.0,0.0,0.0,0.0,0.0,0.0,0.0,0.0,0.0,0.0,0.0,0.0,0.0,0.0,0.0,0.0,0.0,0.0,0.0,-0.6376,-0.6638,-0.6981,-0.7481,-0.8241,-0.8685,-0.8659,-1.0217,-1.106,-1.0689,-1.2165,-1.2918,-1.2472,-1.3955,-1.4713,-1.4432,-1.5404,-1.5921,-1.5928,-1.5928,-1.6082,-1.6426,-1.6426,-1.6433,-1.6441,-1.6433,-1.6433,-1.6441,-1.6419,-1.6419,-1.6404,-1.6045,-1.5913,-1.5963,-1.6477,-1.6657,-1.6862,-1.8607,-1.9301,-1.9444,-2.0022,-1.9826,-1.9354,-1.9946,-1.9996,-1.9834,-1.9834,-1.9824,-1.972,-1.9253,-1.9119,-1.9285,-1.9911,-1.9584,-1.9616,-2.1573,-2.1553,-2.13,-2.2112,-2.198,-2.1536,-2.1017,-2.0707,-2.0512,-2.0499,-2.0131,-1.9826,-1.9839,-1.9342,0.0,-1.8963,-1.8937,-1.8728,-1.8179,-1.8114,-1.7852,-1.7251,-1.7199,-1.7199,-1.7199,-1.7199,-1.7199,-1.7199,-1.6702,-1.6434,-1.6434,-1.5886,-1.5515,-1.5359,0.0,0.0,0.0,0.0,0.0,0.0,0.0,0.0,0.0,0.0,0.0,0.0,0.0,0.0,0.0,0.0,0.0,0.0,0.0,0.0,0.0,0.0,-0.664,-0.6939,-0.6905,-0.7288,-0.8444,-0.8704,-0.911,-0.9979,-1.0654,-1.1372,-1.2135,-1.26,-1.3148,-1.3742,-1.4475,-1.4955,-1.5136,-1.5634,-1.6023,-1.6243,-1.6243,-1.6448,-1.6763,-1.6763,-1.6843,-1.7055,-1.6828,-1.685,-1.704,-1.6572,-1.6551,-1.6727,-1.614,-1.5913,-1.5884,-1.5792,-1.5748,-1.5989,-1.7723,-1.9253,-2.0489,-2.0834,-2.0787,-2.0719,-2.1019,-2.0866,-2.056,-2.0705,-2.0503,-2.0151,-1.973,-1.9606,-1.9557,-1.9414,-1.9231,-1.9353,-2.0409,-2.0516,-2.0696,-2.1902,-2.1757,-2.1395,-2.134,-2.1056,-2.0732,-2.0539,-2.0382,-2.0352,-2.0451,0.0,0.0,-2.0203,-1.9812,-1.9342,-1.8741,-1.8336,-1.7852,-1.7251,-1.7199,-1.7199,0.0,-1.7199,-1.7199,-1.7199,-1.7055,-1.712,-1.7411,-1.5978,-1.5703,0.0,0.0,0.0,0.0,0.0,0.0,0.0,0.0,0.0,0.0,0.0,0.0,0.0,0.0,0.0,0.0,0.0,0.0,0.0,0.0,0.0,0.0,-0.7007,-0.7311,-0.7884,-0.7845,-0.8128,-0.9027,-0.9364,-0.9851,-1.0549,-1.1059,-1.1609,-1.2433,-1.2507,-1.2703,-1.3186,-1.3824,-1.4356,-1.4763,-1.5288,-1.5942,-1.6617,-1.6617,-1.6778,-1.7055,-1.7055,-1.715,-1.7271,-1.7135,-1.7157,0.0,-1.693,-1.6879,-1.7018,-1.6513,-1.6309,0.0,0.0,0.0,0.0,0.0,-1.8966,-2.0303,-2.077,-2.1012,-2.1089,-2.1205,-2.11,-2.0961,-2.0954,-2.0781,-2.0519,-2.0162,-1.9938,-1.973,-1.9461,-1.9253,-1.9264,-1.9944,-2.0096,-2.0387,-2.1459,-2.1278,-2.0849,-2.0745,0.0,0.0,-2.0001,-2.0195,-2.0398,-2.0473,-2.0549,-2.0612,0.0,-2.0374,-1.9967,-1.9342,-1.9002,-1.8479,-1.7643,-1.7578,0.0,0.0,0.0,-1.7094,-1.6872,-1.6859,0.0,0.0,0.0,0.0,0.0,0.0,0.0,0.0,-1.7303,-1.71,0.0,0.0,0.0,0.0,0.0,0.0,0.0,0.0,0.0,0.0,0.0,0.0,0.0,0.0,0.0,0.0,-0.7629,-0.802,-0.8951,-0.9127,-0.9204,-0.9337,-1.0089,-1.0632,-1.0778,-1.136,-1.1811,-1.204,-1.2051,-1.1964,-1.1709,0.0,0.0,0.0,0.0,-1.5802,-1.6947,-1.6954,-1.7047,-1.7279,-1.7279,-1.7279,-1.7279,-1.7279,-1.7279,-1.7279,-1.7279,-1.7279,-1.7257,-1.7027,-1.6881,-1.6756,-1.5826,-1.5524,-1.5801,-1.7294,-1.8487,0.0,0.0,0.0,0.0,-2.0906,-2.1022,-2.1135,-2.092,-2.0863,-2.0808,-2.053,-2.0182,-1.9855,-1.9803,-1.945,-1.9231,-1.9846,-2.0009,-2.0161,-2.0837,-2.0611,-2.0144,-1.9693,-1.9695,-1.9657,-1.9257,-1.9734,-2.0182,-2.0207,-2.0347,0.0,-2.0486,-2.0612,-2.044,-1.9865,0.0,0.0,-1.8283,-1.8192,-1.7957,-1.7421,-1.7382,-1.7173,-1.6702,-1.6676,-1.6676,-1.6676,-1.7036,-1.7773,-1.8882,-1.9784,-2.0626,-2.1321,-1.9485,-1.933,0.0,0.0,0.0,0.0,0.0,0.0,0.0,0.0,0.0,0.0,0.0,0.0,0.0,0.0,0.0,-0.7851,-0.816,-0.8572,-0.9458,-0.9839,-0.9937,-0.9662,-1.0259,-1.0807,-1.1165,-1.1686,-1.1964,-1.1779,-1.1768,-1.1747,-1.1704,-1.2398,0.0,-1.4518,-1.5212,-1.6123,-1.723,-1.7238,-1.7267,-1.7279,0.0,0.0,-1.7279,-1.7279,-1.7279,-1.7279,-1.7279,-1.7279,-1.7257,-1.7027,-1.6749,-1.6463,-1.5987,-1.6229,-1.6844,-1.6925,-1.7957,-1.9301,-1.9499,-2.0059,-2.0693,-2.0867,-2.0945,-2.0964,-2.1104,-2.1227,0.0,-2.0855,-2.0504,-2.0213,-1.9886,-1.945,-1.9131,-1.9264,-1.9297,-1.9495,-2.0139,-2.0213,-2.002,-1.9673,-2.0017,-2.0061,-1.9182,-1.9591,-2.0093,-2.0182,-2.0233,-2.0322,-2.0486,-2.0511,-2.0341,-1.9841,-1.9799,-1.9512,-1.8806,-1.8754,-1.8702,-1.8584,-1.8571,-1.8532,-1.8427,-1.8427,-1.8427,-1.8427,-1.8503,-1.8831,-1.9447,-2.0063,-2.0643,-2.1158,-2.1284,-2.1547,0.0,0.0,0.0,0.0,0.0,0.0,0.0,0.0,0.0,0.0,0.0,-0.6077,-0.6511,0.0,-0.718,-0.8139,-0.8477,-0.8896,-0.9742,-1.0009,-1.0156,-1.0156,-1.0545,-1.0858,-1.093,-1.1409,-1.1491,-1.1034,-1.1203,-1.1297,-1.1342,-1.1596,-1.2371,-1.3695,-1.3908,-1.4744,-1.6318,-1.6365,-1.6655,-1.7279,-1.7279,-1.7279,-1.7279,-1.7279,-1.7279,-1.7279,-1.7279,-1.7279,-1.7271,-1.7157,-1.6996,-1.6813,-1.6506,-1.6446,-1.6587,-1.6865,-1.7671,-1.8727,-1.9143,-1.9854,-2.0605,-2.0731,-2.0741,-2.078,-2.0974,-2.1128,-2.1203,-2.1151,-2.0876,-2.0524,-2.0178,-1.9793,-1.9388,-1.916,-1.9108,-1.9198,-1.9518,-1.9584,-1.9468,-1.9095,-1.9313,-1.932,-1.8581,-1.8782,-1.9279,-1.9914,-2.0054,-2.0144,-2.0233,-2.041,-2.0408,-2.0171,-2.0206,-2.002,-1.9407,-1.9081,-1.8911,-1.8911,-1.8911,-1.8911,-1.8911,-1.8911,-1.8911,-1.8911,-1.8911,-1.917,-1.9694,-2.0197,-2.0751,-2.1355,-2.1938,-2.2366,0.0,0.0,0.0,0.0,0.0,0.0,0.0,0.0,-0.5591,-0.5827,-0.6385,-0.6929,-0.7276,-0.7438,-0.773,-0.8407,-0.8737,-0.9182,-1.0008,-1.0116,-1.0246,-1.0558,-1.0721,-1.0715,-1.0488,-1.0851,-1.0894,-1.0312,-1.0572,-1.084,-1.093,-1.0847,-1.1377,-1.2647,-1.2443,-1.3199,-1.5019,-1.5263,-1.5934,-1.6943,-1.7185,-1.7279,-1.7279,-1.7279,-1.7279,-1.7279,-1.7279,-1.7279,-1.7279,-1.7279,-1.7279,-1.7257,-1.7047,-1.6601,-1.6161,-1.6742,-1.734,-1.7978,-1.8754,-1.9618,-2.0372,-2.0527,-2.0605,-2.0644,-2.078,-2.0867,-2.0984,-2.1282,-2.11,-2.0726,-2.0401,-2.0054,-1.9679,-1.9212,-1.9108,-1.9108,-1.9108,-1.9108,-1.8963,-1.8497,-1.8573,-1.855,-1.8003,-1.8087,-1.8561,-1.9512,-1.9746,-1.9862,-1.999,-2.0233,-2.041,-2.0436,-2.0524,-2.0416,-1.996,-1.9525,-1.9251,-1.9251,-1.9251,-1.9251,-1.9251,-1.9251,-1.9251,-1.9251,-1.9251,-1.9486,-1.9969,-2.0456,-2.0968,-2.1568,-2.2049,-2.2555,-0.3176,-0.3635,-0.4329,-0.4858,-0.5104,-0.5414,0.0,0.0,-0.6396,-0.6767,-0.6904,-0.7137,-0.7629,-0.747,-0.7642,-0.8815,-0.9207,-0.962,-1.0509,-1.0562,-1.0568,-1.0598,-1.0448,-1.0281,-1.008,-1.0272,-1.0372,-1.0223,-1.0267,-1.0428,-1.0801,-1.0815,-1.1302,-1.2345,-1.2328,-1.277,-1.3674,-1.4829,-1.5453,-1.5643,-1.6749,-1.7279,-1.7279,-1.7279,-1.7279,-1.7279,-1.7279,-1.7279,-1.7279,-1.7279,-1.7279,-1.7279,-1.7289,-1.7055,-1.6727,-1.6249,-1.6587,-1.7371,-1.7955,-1.8727,-1.9578,-2.0372,-2.0605,-2.0605,-2.0644,-2.078,-2.0906,-2.0945,-2.0883,-2.069,-2.0257,-1.9959,-1.9679,-1.9212,-1.9108,-1.9108,-1.9108,-1.9108,-1.8963,-1.8497,-1.8839,-1.8953,-1.8057,-1.835,-1.8816,-1.9059,-1.9093,-1.933,-1.9913,-2.0042,-2.0093,-2.0207,-2.0258,-2.0296,-2.0421,-2.048,-2.0515,-2.0515,-2.0515,-2.0515,-2.0515,-2.0515,-2.0515,-2.0515,-2.0515,-2.0542,-2.0607,-2.1086,-2.1355,-2.1434,-2.1908,-2.25,-0.4686,-0.4968,0.0,0.0,-0.6071,-0.6355,-0.6631,-0.6794,-0.6932,-0.7082,-0.738,-0.7621,-0.7622,-0.7677,-0.7876,0.0,-0.9229,-0.9928,-1.0213,-1.038,-1.0365,-1.0049,-0.9478,-0.9174,-0.9273,-0.962,-0.9714,-0.9408,-0.9739,-1.0107,-1.0391,-1.0228,-1.0422,-1.1179,-1.089,-1.1272,-1.2377,-1.2909,-1.3578,-1.4298,-1.5596,-1.617,-1.6224,-1.6943,-1.7279,-1.7279,-1.7279,-1.7279,-1.7279,-1.7279,-1.7279,-1.7279,-1.7279,-1.7245,-1.7077,-1.663,-1.6773,-1.7249,-1.7473,-1.8307,-1.9341,-1.9736,-2.0206,-2.0605,-2.0605,-2.0654,-2.0741,-2.0867,-2.0883,-2.0785,-2.0407,-2.0374,-2.0191,-1.9507,-1.9411,-1.943,-1.916,-1.9108,-1.9046,-1.8849,-1.8784,-1.8659,-1.8268,-1.7969,-1.7879,-1.8284,-1.8736,-1.9225,-1.9811,-1.9952,-2.0042,-2.0182,-2.0207,-2.0296,-2.0486,-2.0537,-2.0612,-2.0699,-2.0699,-2.0699,-2.0699,-2.0699,-2.0699,-2.0699,-2.0699,-2.0699,-2.0699,-2.1203,-2.1304,-2.101,-2.1864,-2.2412,-0.5688,0.0,0.0,-0.6477,-0.6869,-0.7114,-0.7005,-0.7188,-0.7374,-0.7374,-0.7664,-0.7829,-0.7561,-0.7753,0.0,-0.8163,-0.913,-0.9925,-1.0057,-1.0117,-1.0052,-0.9704,-0.8842,-0.843,-0.8787,-0.9086,-0.9169,-0.9004,-0.9368,-0.9708,-0.9944,-0.9747,-0.9776,-1.0167,-0.9826,-1.0064,-1.1033,-1.1419,-1.2042,-1.3006,-1.425,-1.5067,-1.5453,-1.6702,-1.7279,-1.7279,-1.7279,-1.7279,-1.7279,-1.7279,-1.7279,-1.7279,-1.7279,-1.7279,-1.7304,-1.7069,-1.7071,-1.7149,-1.7167,-1.7888,-1.8758,-1.8882,-1.9529,-2.0245,-2.0245,-2.0401,-2.0644,-2.078,-2.0867,-2.0846,-2.0502,-2.0478,-2.0342,-1.9605,-1.9459,-1.9411,-1.9081,-1.9075,-1.9108,-1.9108,-1.8839,-1.8559,-1.8434,-1.774,-1.7361,-1.7839,-1.8248,-1.875,-1.95,-1.9798,-1.9978,-2.0067,-2.0131,-2.022,-2.041,-2.0461,-2.0562,-2.0687,-2.0699,-2.0699,-2.0699,-2.0699,-2.0699,-2.0699,-2.0699,-2.0777,-2.0923,-2.1302,-2.1381,-2.1197,-2.2035,-2.2458,0.0,0.0,-0.6489,-0.6882,-0.7241,-0.7551,-0.7726,-0.7775,-0.7784,-0.7784,-0.7645,-0.7522,-0.7484,-0.7522,-0.7758,-0.8534,-0.9049,-0.9615,-1.0472,-1.0026,-0.97,-0.9853,-0.8966,-0.843,0.0,-0.8714,-0.8833,-0.9347,-0.9237,-0.925,-0.96,-0.9624,-0.9628,-0.9628,-0.9628,-0.9628,-0.9677,-1.0935,-1.1609,-1.1658,-1.2958,-1.4202,-1.5453,-1.6702,-1.7279,-1.7279,-1.7279,-1.7279,-1.7279,-1.7279,-1.7279,-1.7279,-1.7279,-1.7279,-1.7279,-1.7271,-1.7152,-1.6959,-1.7126,-1.7223,-1.7361,-1.7874,-1.8647,-1.9341,-1.9341,-1.9932,-2.0605,-2.0605,-2.0741,-2.0807,-2.0323,-2.0082,-1.9797,-1.9324,-1.9018,-1.8828,-1.8808,-1.8975,-1.9108,-1.9108,-1.9088,-1.8942,-1.8486,-1.8009,-1.7727,-1.7893,-1.7536,-1.7672,-1.8869,-1.9474,-1.9811,-1.9798,-1.9926,-2.0067,-2.0207,-2.0398,-2.0562,-2.0687,-2.0699,-2.0699,-2.0699,-2.0699,-2.0699,-2.0699,-2.0699,-2.0962,-2.1485,-2.1498,-2.1786,-2.2363,-2.2375,-2.2676,0.0,0.0,-0.7037,-0.7437,-0.7663,-0.7854,-0.7914,-0.7882,-0.78,-0.78,-0.7521,-0.7313,-0.7313,-0.7313,-0.7506,-0.8142,-0.8766,-0.9288,-0.9578,-0.947,-0.9292,-0.9048,-0.8605,0.0,0.0,0.0,0.0,-0.9363,-0.9194,-0.925,-0.9558,-0.9579,-0.9579,-0.9579,-0.9579,-0.9579,-0.9579,-1.0064,-1.0256,-1.0306,-1.1609,-1.3343,-1.5406,-1.5839,-1.6506,-1.7279,-1.7279,-1.7279,-1.7279,-1.7279,-1.7279,-1.7279,-1.7279,-1.7279,-1.7279,-1.7279,-1.726,-1.7152,-1.7026,-1.7211,-1.7517,-1.7495,-1.8044,-1.8821,-1.9176,-1.9499,-1.9854,-2.045,-2.0644,-2.0653,-2.0516,-2.0493,-2.0394,-1.963,-1.952,-1.9413,-1.8907,-1.8841,-1.8942,-1.9075,-1.9108,-1.9056,-1.8901,-1.8464,-1.7968,-1.7378,-1.7575,-1.8093,-1.8907,-1.9172,-1.9396,-1.9747,-1.9837,-1.9914,-2.0067,-2.0118,-2.0271,-2.0537,-2.0562,-2.0612,-2.0699,-2.0699,-2.0857,-2.1211,-2.1224,-2.1511,-2.2113,-2.2438,-2.2557,-2.2413,-2.3171,-2.342,-0.6803,-0.7135,-0.7342,-0.7829,-0.8032,-0.8109,-0.8109,-0.7975,-0.7853,-0.7726,-0.7378,-0.7131,-0.7131,-0.7025,-0.7094,-0.7728,-0.8316,-0.8743,-0.8886,-0.9029,-0.9008,-0.8702,-0.8499,0.0,0.0,0.0,0.0,-0.9371,-0.9298,-0.9315,-0.9562,-0.9579,-0.9579,-0.9579,-0.9579,-0.9579,-0.9579,-0.9579,-0.9579,-0.9628,-1.0984,-1.2479,-1.4058,-1.4883,-1.5697,-1.652,-1.6857,-1.7099,-1.72,-1.72,-1.7239,-1.7279,-1.7279,-1.7279,-1.7279,-1.7279,-1.7279,-1.7282,-1.7013,-1.7116,-1.7347,-1.6885,-1.7315,-1.8079,-1.8319,-1.8816,-1.942,-1.9971,-2.0372,-2.0605,-2.0605,-2.0575,-2.0366,-1.9656,-1.9505,-1.9364,-1.8734,-1.864,-1.8741,-1.8875,-1.8875,-1.8908,-1.8975,-1.8649,-1.8071,-1.7151,-1.7406,-1.7857,-1.829,-1.8735,-1.9146,-1.9474,-1.9708,-1.9862,-1.999,-1.999,-2.0144,-2.0486,-2.0486,-2.0653,-2.0975,-2.0988,-2.125,-2.1799,-2.1812,-2.2113,-2.2701,-2.3013,-2.3117,-2.3041,-2.3744,-2.3874,-0.7074,-0.7236,-0.746,-0.8134,-0.8304,-0.83,-0.8292,-0.8134,-0.7886,-0.7541,-0.7216,-0.6955,0.0,0.0,-0.6643,-0.733,-0.7764,-0.8138,-0.8547,-0.8714,-0.8832,0.0,0.0,0.0,0.0,0.0,0.0,-0.9388,0.0,-0.9482,-0.9616,-0.9579,-0.9579,-0.9579,-0.9579,-0.9579,-0.9579,-0.9579,-0.9579,-0.9628,-1.0886,-1.1517,-1.1658,-1.3836,-1.4895,-1.5045,-1.6103,-1.6683,-1.6979,-1.6979,-1.7113,-1.7279,-1.7279,-1.7286,-1.7279,-1.7279,-1.7279,-1.7235,-1.7027,-1.6925,-1.6822,-1.6162,-1.6485,-1.7099,-1.6833,-1.7853,-1.9183,-1.9222,-1.9854,-2.0527,-2.0527,-2.0254,-1.9844,-1.9424,-1.9128,-1.8824,-1.8432,-1.8424,-1.8482,-1.8516,-1.8516,-1.8549,-1.8774,-1.8561,-1.8092,-1.7203,-1.7048,-1.7066,-1.7183,-1.8201,-1.8934,-1.896,-1.9448,-1.9811,-1.9939,-1.9965,-2.0131,-2.0513,-2.0513,-2.081,-2.1498,-2.1525,-2.1825,-2.2427,-2.2427,-2.2715,-2.3263,-2.3263,-2.3535,-2.4083,-2.4083,-2.4083,-0.7516,-0.7959,-0.8268,-0.8494,-0.8539,-0.8506,-0.8321,-0.7943,-0.7557,-0.7338,-0.6899,-0.6473,0.0,0.0,0.0,-0.6846,-0.7525,0.0,-0.8329,-0.8743,0.0,-0.8836,0.0,-0.8999,-0.9088,-0.9214,0.0,0.0,-0.9404,-0.9482,-0.9616,-0.9579,-0.9579,-0.9579,-0.9579,-0.9579,-0.9579,-0.9579,-0.9579,-0.9628,-0.9969,-1.0645,-1.1609,-1.2188,-1.3397,-1.4997,-1.5283,-1.5906,-1.6683,-1.6683,-1.6871,-1.7066,-1.7066,-1.7153,-1.7279,-1.7279,-1.7279,-1.7271,-1.7238,-1.7208,-1.7143,-1.6793,-1.6625,-1.6656,-1.6988,-1.7194,-1.7513,-1.8158,-1.8966,-1.9618,-1.9618,-2.0012,-2.0331,-1.9853,-1.947,-1.9111,-1.8799,-1.8532,-1.8371,-1.8482,-1.8516,-1.8549,-1.8774,-1.8463,-1.8149,-1.8071,-1.744,-1.7066,-1.7183,-1.7479,-1.7847,-1.8294,-1.8857,-1.9225,-1.9251,-1.9604,-2.0129,-2.0742,-2.0794,-2.1155,-2.1923,-2.1936,-2.229,-2.2988,-2.3001,-2.3289,-2.3861,-2.3861,-2.3939,-2.4083,-2.4083,-2.4083,-0.8012,-0.838,-0.8629,-0.8662,-0.8621,-0.8502,-0.8032,-0.7642,-0.7232,-0.6741,-0.6331,0.0,0.0,0.0,0.0,0.0,0.0,0.0,-0.8122,-0.8572,-0.8852,0.0,-0.8986,0.0,-0.9202,-0.9372,-0.9474,0.0,-0.9474,-0.9518,-0.9571,-0.9579,-0.9579,-0.9579,-0.9579,-0.9579,-0.9579,-0.9579,-0.9579,-0.9579,-0.9579,-1.0015,-1.0743,-1.1224,-1.2139,-1.3349,0.0,-1.4657,-1.5764,-1.5764,-1.6204,-1.6831,-1.6831,-1.6972,-1.7153,-1.7153,-1.7239,-1.7279,-1.7279,-1.7279,-1.7274,-1.7005,-1.6683,-1.6441,-1.6581,-1.6651,-1.6821,-1.731,-1.8078,-1.8727,-1.8727,-1.9085,-1.9457,-1.9364,-1.9023,-1.8741,-1.8756,-1.8439,-1.8178,-1.8279,-1.8347,-1.8448,-1.8573,-1.8461,-1.8392,-1.8284,-1.7894,-1.7582,-1.7427,-1.7276,-1.7341,-1.7672,-1.8228,-1.8602,-1.8602,-1.9121,-1.9636,-2.0129,-2.0632,-2.1226,-2.1981,-2.2264,-2.2719,-2.336,-2.3472,-2.367,-2.4008,-2.4054,-2.4083,-2.4083,-2.4083,-2.4083,-0.8049,-0.8252,-0.8363,-0.8436,-0.8371,-0.8095,-0.7489,-0.7145,-0.6741,-0.6022,0.0,-0.5458,-0.5257,0.0,-0.5522,-0.627,0.0,-0.7381,-0.7971,-0.8369,-0.8674,-0.8869,-0.9035,-0.9202,-0.942,-0.9535,-0.9579,-0.9579,-0.9579,-0.9579,-0.9579,-0.9579,-0.9579,-0.9579,-0.9579,-0.9579,-0.9579,-0.9579,-0.9579,-0.9579,-0.9579,-0.9579,-0.9628,-1.0547,-1.1077,-1.1268,0.0,0.0,-1.4465,-1.4615,-1.5337,-1.6346,-1.6487,-1.669,-1.6932,-1.6979,-1.7113,-1.7286,-1.7286,-1.7279,-1.7274,-1.7005,-1.6683,-1.6353,-1.6009,-1.6171,-1.6535,-1.6535,-1.7147,-1.7836,-1.7836,-1.7917,-1.808,-1.8455,-1.8185,-1.7972,-1.8433,-1.8245,-1.8008,-1.8008,-1.8144,-1.8269,-1.8303,-1.8573,-1.8642,-1.8245,-1.8326,-1.8247,-1.7843,-1.7427,-1.716,-1.716,-1.7717,-1.8059,-1.8059,-1.8686,-1.9147,-1.9329,-2.0264,-2.1129,-2.1825,-2.2331,-2.2883,-2.3454,-2.3628,-2.376,-2.3861,-2.3995,-2.4054,-2.4054,-2.4083,-2.4083,-0.6248,-0.6517,-0.6989,-0.6844,-0.6711,-0.6603,-0.6512,-0.6084,0.0,0.0,0.0,-0.5117,-0.4934,-0.5123,0.0,-0.6135,0.0,0.0,0.0,0.0,-0.8897,0.0,0.0,0.0,0.0,0.0,0.0,0.0,0.0,0.0,-0.9579,-0.9579,-0.9579,-0.9579,-0.9579,-0.9579,-0.9579,-0.9579,-0.9579,-0.9579,-0.9579,-0.9579,-0.9628,-0.9772,-1.035,-1.1219,0.0,0.0,-1.3119,-1.3998,-1.4621,-1.5092,-1.5927,-1.6454,-1.6683,-1.6932,-1.7026,-1.7066,-1.7239,-1.7279,-1.7274,-1.7005,-1.6683,-1.6353,-1.6009,-1.5764,-1.5631,-1.5631,-1.6263,-1.6944,-1.6944,-1.7472,-1.802,-1.808,-1.7605,-1.7272,-1.7981,-1.8043,-1.8008,-1.8008,-1.8042,-1.811,-1.8269,-1.8448,-1.8586,-1.8673,-1.8532,-1.8383,-1.8278,-1.7532,-1.703,-1.703,-1.7553,-1.7917,-1.7917,-1.8855,-1.9598,-2.0072,-2.0308,-2.0738,-2.1469,-2.1575,-2.1998,-2.2756,-2.2829,-2.3113,-2.3658,-2.3848,-2.392,-2.3949,-2.4067,-2.4083,-0.6168,-0.6267,-0.6426,-0.6524,-0.6421,-0.6131,-0.5761,0.0,0.0,0.0,0.0,-0.4747,-0.456,0.0,0.0,0.0,0.0,0.0,0.0,0.0,0.0,0.0,0.0,0.0,0.0,0.0,0.0,0.0,0.0,0.0,-0.9579,-0.9579,-0.9579,-0.9579,-0.9579,-0.9579,-0.9579,-0.9579,-0.9579,-0.9579,-0.9579,-0.9579,-0.9579,-0.9579,-0.9867,-1.035,0.0,0.0,-1.195,-1.249,-1.3071,-1.3746,-1.4819,-1.5397,-1.5669,-1.6359,-1.6744,-1.7026,-1.7113,-1.713,-1.7026,-1.6756,-1.6536,-1.6353,-1.6009,-1.5687,-1.5389,-1.5389,-1.5707,-1.6023,-1.6023,-1.6345,-1.6755,-1.7229,-1.7415,-1.7473,-1.7424,-1.7716,-1.8008,-1.8008,-1.8008,-1.8042,-1.8144,-1.8269,-1.8448,-1.8617,-1.8624,-1.8646,-1.8733,-1.8154,-1.7616,-1.7399,-1.763,-1.78,-1.78,-1.8564,-1.9156,-1.939,-1.9984,-2.0461,-2.0826,-2.1092,-2.1439,-2.1803,-2.2267,-2.2647,-2.2975,-2.3509,-2.3789,-2.3891,-2.3979,-2.4037,-0.5921,-0.5707,-0.5473,-0.5799,-0.5665,-0.533,-0.4758,-0.4612,0.0,0.0,-0.4181,-0.434,-0.4349,0.0,0.0,0.0,0.0,0.0,0.0,0.0,0.0,0.0,0.0,0.0,0.0,0.0,0.0,0.0,0.0,0.0,0.0,-0.9579,-0.9579,-0.9579,-0.9579,-0.9579,-0.9579,-0.9579,-0.9579,-0.9579,-0.9579,-0.9579,-0.9579,-0.9579,-0.9579,-0.9579,0.0,0.0,0.0,-1.1126,-1.1658,-1.2484,-1.3559,-1.4238,-1.4711,-1.5588,-1.6265,-1.6838,-1.6885,-1.6811,-1.6663,-1.6388,-1.6279,-1.6213,-1.5906,-1.5593,-1.5389,-1.5389,-1.5389,-1.5389,-1.5389,-1.5389,-1.5553,-1.6085,-1.6868,-1.732,-1.6756,-1.7226,-1.7794,-1.7974,-1.8008,-1.8008,-1.8008,-1.8178,-1.8337,-1.8448,-1.8617,-1.8808,-1.9008,-1.8721,-1.837,-1.8019,-1.7905,-1.7843,-1.7843,-1.8373,-1.8725,-1.8725,-1.955,-2.003,-2.003,-2.0443,-2.0741,-2.0869,-2.1553,-2.199,-2.2113,-2.2932,-2.3437,-2.3628,-2.3819,-2.3979,-0.3898,-0.3408,-0.3104,-0.3141,-0.2994,-0.2891,-0.2975,0.0,0.0,-0.3622,-0.3762,-0.3917,-0.4403,-0.4513,0.0,0.0,0.0,0.0,0.0,0.0,0.0,0.0,0.0,0.0,0.0,0.0,0.0,0.0,0.0,0.0,0.0,-0.9579,-0.9579,-0.9579,-0.9579,-0.9579,-0.9579,-0.9579,-0.9579,-0.9579,-0.9579,-0.9579,-0.9579,-0.9579,-0.9579,-0.9579,0.0,0.0,0.0,-1.0788,-1.1268,-1.1414,-1.2436,-1.3463,-1.4388,-1.4717,-1.5439,-1.6319,-1.6541,-1.6432,-1.6162,-1.6083,-1.6016,-1.5899,-1.5528,-1.5411,-1.5389,-1.5389,-1.5389,-1.5389,-1.5389,-1.5389,-1.5277,-1.481,-1.5258,-1.5807,-1.5801,-1.6446,-1.7182,-1.7872,-1.8008,-1.8008,-1.8008,-1.8178,-1.8303,-1.8303,-1.8448,-1.8617,-1.8808,-1.88,-1.8826,-1.8951,-1.86,-1.8351,-1.8351,-1.8768,-1.904,-1.904,-1.9147,-1.9201,-1.9201,-1.9276,-1.9584,-2.0193,-2.0258,-2.0613,-2.1219,-2.2094,-2.2586,-2.2756,-2.3539,-2.3979,-0.3685,-0.3063,-0.2511,-0.2734,-0.2699,-0.2525,-0.2448,0.0,-0.2766,-0.2935,-0.3354,-0.3762,-0.3984,-0.4287,-0.4626,0.0,0.0,0.0,0.0,0.0,0.0,0.0,0.0,0.0,0.0,0.0,0.0,0.0,0.0,0.0,0.0,-0.9579,-0.9579,-0.9579,-0.9579,-0.9579,-0.9579,-0.9579,-0.9579,-0.9579,-0.9579,-0.9579,-0.9579,-0.9579,-0.9579,-0.9579,0.0,0.0,0.0,-1.0064,-1.0256,-1.0355,-1.137,-1.2052,-1.2538,-1.321,-1.4274,-1.527,-1.5183,-1.5449,-1.5842,-1.5578,-1.5354,-1.5205,-1.5342,-1.5389,-1.5389,-1.5389,-1.5389,-1.5389,-1.5389,-1.5389,-1.5262,-1.4618,-1.5064,-1.5505,-1.5121,-1.5631,-1.6271,-1.6559,-1.7019,-1.7329,-1.7329,-1.775,-1.8168,-1.8269,-1.8347,-1.8448,-1.8617,-1.8741,-1.8841,-1.8908,-1.8876,-1.8828,-1.8828,-1.8994,-1.9108,-1.9108,-1.9108,-1.9108,-1.9108,-1.9108,-1.9231,-1.9485,-1.9901,-2.0226,-2.0484,-2.125,-2.1896,-2.2482,-2.2919,-2.3437,-0.3633,-0.2838,-0.2041,-0.254,-0.2403,-0.2114,0.0,0.0,-0.2268,-0.2338,-0.2952,-0.352,-0.3675,-0.4108,-0.447,0.0,0.0,0.0,0.0,0.0,0.0,0.0,0.0,0.0,0.0,0.0,0.0,0.0,0.0,0.0,0.0,0.0,-0.9579,-0.9579,-0.9579,-0.9579,-0.9579,-0.9579,-0.9579,-0.9579,-0.9579,-0.9579,-0.9579,-0.9579,-0.9579,0.0,0.0,0.0,0.0,-0.9579,-0.9579,-0.9677,-1.0449,-1.093,-1.1268,-1.1999,-1.3017,-1.4088,-1.3778,-1.4297,-1.4979,-1.4764,-1.4638,-1.4692,-1.5082,-1.5257,-1.5305,-1.5389,-1.5389,-1.5389,-1.5389,-1.5389,-1.5292,-1.4735,-1.4946,-1.5164,-1.4822,-1.5067,-1.5428,-1.5675,-1.6167,-1.655,-1.655,-1.7182,-1.7716,-1.7852,-1.8056,-1.8279,-1.8414,-1.8573,-1.8674,-1.8774,-1.8942,-1.9042,-1.9098,-1.9108,-1.9108,-1.9108,-1.9108,-1.9108,-1.9108,-1.9108,-1.9108,-1.9108,-1.9551,-1.9813,-1.9813,-2.0484,-2.1144,-2.1791,-2.2286,-2.3022,-0.3406,-0.2376,-0.1403,-0.212,-0.1713,-0.1099,0.0,-0.112,-0.1358,-0.1884,-0.2482,-0.3075,-0.3609,-0.403,-0.4254,-0.4129,0.0,0.0,0.0,0.0,0.0,0.0,0.0,0.0,0.0,0.0,0.0,0.0,0.0,0.0,0.0,0.0,-0.9579,-0.9579,-0.9579,-0.9579,-0.9579,-0.9579,-0.9579,-0.9579,-0.9579,-0.9579,-0.9579,-0.9579,0.0,0.0,0.0,0.0,0.0,-0.9579,-0.9579,-0.9579,-0.9628,-1.0256,-1.1219,-1.1219,-1.1853,-1.2694,-1.2547,-1.2911,-1.3429,-1.3516,-1.3939,-1.444,-1.465,-1.4908,-1.5131,-1.5347,-1.5389,-1.5389,-1.5389,-1.5389,-1.5309,-1.4973,-1.4699,-1.4602,-1.5026,-1.4847,-1.4816,-1.5561,-1.571,-1.571,-1.571,-1.6376,-1.6897,-1.6897,-1.7545,-1.8076,-1.8269,-1.8303,-1.8438,-1.8774,-1.8808,-1.8875,-1.9065,-1.9108,-1.9108,-1.9108,-1.9108,-1.9108,-1.9108,-1.9108,-1.9108,-1.9108,-1.9108,-1.9098,-1.9098,-1.9781,-2.0182,-2.0365,-2.176,-2.2932,-0.2481,-0.183,-0.1119,-0.1363,-0.1207,-0.1012,-0.0942,-0.1082,-0.1226,-0.1353,-0.2117,-0.2837,-0.3098,-0.37,-0.4199,-0.4288,-0.4358,0.0,0.0,0.0,0.0,0.0,0.0,0.0,0.0,0.0,0.0,0.0,0.0,0.0,0.0,0.0,-0.9579,-0.9579,-0.9579,-0.9579,-0.9579,-0.9579,-0.9579,-0.9579,-0.9579,-0.9579,-0.9579,-0.9579,0.0,0.0,0.0,0.0,0.0,-0.9579,-0.9579,-0.9579,-0.9579,-0.9821,-1.0109,-1.0109,-1.0706,-1.1464,-1.1199,-1.2029,-1.3169,-1.2997,-1.3498,-1.4243,-1.444,-1.465,-1.4866,-1.5131,-1.5305,-1.5389,-1.5389,-1.5389,-1.5309,-1.498,-1.4699,-1.4455,-1.4381,-1.4081,-1.3912,-1.4165,-1.4617,-1.4958,-1.4958,-1.5561,-1.6097,-1.6097,-1.6768,-1.726,-1.732,-1.7886,-1.8337,-1.8438,-1.8674,-1.8875,-1.9065,-1.9108,-1.9108,-1.9108,-1.9108,-1.9108,-1.9108,-1.9108,-1.9108,-1.9108,-1.9108,-1.9108,-1.9108,-1.9297,-1.9966,-2.1092,-2.2445,-2.3288,0.0,-0.1497,-0.1039,-0.1318,-0.1181,-0.0953,-0.0875,-0.0972,-0.1056,-0.1085,-0.1867,-0.2615,-0.2793,-0.3413,-0.3892,-0.3844,-0.3759,0.0,0.0,0.0,0.0,0.0,0.0,0.0,0.0,0.0,0.0,0.0,0.0,0.0,0.0,0.0,-0.9579,-0.9579,-0.9579,-0.9579,-0.9579,-0.9579,-0.9579,-0.9579,-0.9579,-0.9579,-0.9579,0.0,0.0,0.0,0.0,0.0,0.0,-0.9579,-0.9579,-0.9579,-0.9579,-0.9579,-0.9571,-0.9551,-0.9885,-1.0312,-0.995,-1.081,-1.2032,-1.2138,-1.3052,-1.4124,-1.4243,-1.4489,-1.4741,-1.4999,-1.5173,-1.5298,-1.5389,-1.5389,-1.5309,-1.498,-1.4699,-1.4416,-1.4048,-1.3726,-1.3492,-1.3492,-1.3876,-1.4186,-1.4186,-1.4788,-1.5278,-1.5278,-1.5948,-1.6446,-1.6446,-1.7217,-1.7774,-1.7842,-1.8303,-1.8707,-1.8975,-1.9075,-1.9108,-1.9108,-1.9108,-1.9108,-1.9108,-1.9108,-1.9108,-1.9108,-1.9108,-1.9108,-1.9108,-1.9108,-1.9715,-2.0944,-2.2044,-2.2763,0.0,-0.1339,-0.105,-0.1733,-0.1402,-0.0864,-0.0807,-0.0806,0.0,-0.1039,-0.17,-0.2306,-0.257,-0.3121,-0.3367,-0.2946,-0.2662,0.0,0.0,0.0,0.0,0.0,0.0,0.0,0.0,0.0,0.0,0.0,0.0,0.0,0.0,0.0,0.0,-0.9579,-0.9579,-0.9579,-0.9579,-0.9579,-0.9579,-0.9579,-0.9579,-0.9579,-0.9579,0.0,0.0,0.0,0.0,0.0,0.0,-0.9579,-0.9579,-0.9579,-0.9579,-0.9571,-0.9587,-0.9465,-0.9384,-0.9318,-0.8934,-0.939,-1.0281,-1.1044,-1.2528,-1.4004,-1.4004,-1.4328,-1.4734,-1.4999,-1.509,-1.5131,-1.534,-1.5367,-1.5279,-1.4973,-1.4684,-1.4394,-1.4086,-1.3726,-1.3492,-1.3492,-1.3492,-1.3492,-1.3492,-1.4086,-1.453,-1.453,-1.5136,-1.5604,-1.5604,-1.6306,-1.6862,-1.7079,-1.7774,-1.8371,-1.8741,-1.8975,-1.9065,-1.9108,-1.9108,-1.9108,-1.9108,-1.9108,-1.9108,-1.9108,-1.9108,-1.9108,-1.9108,-1.9142,-1.9495,-2.0139,-2.0773,-2.1534,-0.0691,0.0,-0.0779,-0.0961,-0.0921,-0.0801,0.0,-0.0753,-0.0803,-0.0793,-0.1233,-0.1688,-0.1889,-0.2342,-0.267,-0.2617,0.0,0.0,0.0,0.0,0.0,0.0,0.0,0.0,0.0,0.0,0.0,0.0,0.0,0.0,0.0,0.0,0.0,-0.9579,-0.9579,-0.9579,-0.9579,-0.9579,-0.9579,-0.9579,-0.9579,-0.9579,-0.9579,0.0,0.0,0.0,0.0,0.0,-0.9579,-0.9579,-0.9579,-0.9579,-0.9579,-0.9543,-0.9461,-0.942,-0.9229,-0.8934,-0.8848,-0.9308,-1.0139,-1.0997,-1.21,-1.3052,-1.3052,-1.3682,-1.4482,-1.4566,-1.4824,-1.509,-1.5173,-1.5076,-1.4995,-1.4922,-1.4509,-1.4115,-1.4034,-1.3726,-1.3492,-1.3492,-1.3492,-1.3492,-1.3492,-1.363,-1.3775,-1.3775,-1.4402,-1.4851,-1.4851,-1.5525,-1.6237,-1.6862,-1.7217,-1.7672,-1.8371,-1.8707,-1.8942,-1.9108,-1.9108,-1.9108,-1.9108,-1.9108,-1.9108,-1.9108,-1.9108,-1.9108,-1.9108,-1.9616,-1.9944,-2.0139,-2.0773,-2.1219,-0.035,-0.0459,-0.0575,-0.063,-0.0656,-0.0682,-0.0739,-0.0751,-0.074,-0.07,0.0,-0.1439,-0.1577,-0.1909,0.0,0.0,0.0,0.0,0.0,0.0,0.0,0.0,0.0,0.0,0.0,0.0,0.0,0.0,0.0,0.0,0.0,0.0,0.0,0.0,-0.9529,-0.9579,-0.9579,-0.9579,-0.9579,-0.9579,-0.9579,-0.9579,-0.9579,0.0,0.0,0.0,0.0,0.0,-0.9579,-0.9579,-0.9579,-0.9571,-0.9535,-0.9441,-0.9384,-0.9169,-0.8986,-0.8808,-0.8731,-0.9208,-0.999,-1.0506,-1.1278,-1.2057,-1.2057,-1.2479,-1.3197,-1.4139,-1.4566,-1.4831,-1.5048,-1.4936,-1.4743,-1.4718,-1.434,-1.3945,-1.3792,-1.3623,-1.3492,-1.3492,-1.3492,-1.3492,-1.3492,-1.3492,-1.3492,-1.3492,-1.384,-1.4086,-1.4086,-1.4752,-1.5349,-1.5807,-1.6193,-1.6689,-1.7207,-1.7404,-1.7891,-1.8774,-1.8908,-1.8975,-1.8975,-1.9031,-1.9108,-1.9108,-1.9108,-1.9108,-1.9108,-1.9462,-1.9649,-1.9649,-2.0323,-2.0645,-0.026,-0.0295,-0.0381,-0.0541,-0.056,-0.0554,-0.0756,0.0,0.0,0.0,0.0,0.0,0.0,-0.1593,0.0,0.0,0.0,0.0,0.0,0.0,0.0,0.0,0.0,0.0,0.0,0.0,0.0,0.0,0.0,0.0,0.0,0.0,0.0,0.0,-0.913,-0.9229,-0.9229,-0.948,-0.9579,-0.9579,-0.9579,-0.9579,-0.9579,-0.9579,0.0,0.0,0.0,0.0,-0.9579,-0.9579,-0.9612,-0.9571,-0.9465,-0.9367,-0.9286,-0.893,-0.8804,-0.8763,-0.8617,-0.9087,-0.9685,-0.9685,-1.0332,-1.1111,-1.1111,-1.1192,-1.1666,-1.3415,-1.4055,-1.4307,-1.4873,-1.4771,-1.4531,-1.442,-1.4139,-1.3812,-1.3528,-1.3455,-1.3455,-1.3492,-1.3492,-1.3492,-1.3492,-1.3492,-1.3492,-1.3492,-1.3492,-1.3492,-1.3492,-1.4049,-1.4466,-1.4601,-1.5171,-1.5666,-1.5939,-1.5939,-1.6576,-1.7988,-1.8395,-1.8664,-1.8808,-1.9008,-1.9108,-1.9108,-1.9108,-1.9108,-1.9108,-1.9108,-1.9108,-1.9098,-1.9682,-1.9944,-0.0048,-0.006,-0.0141,-0.0438,-0.0561,-0.063,-0.0756,-0.08,0.0,0.0,0.0,0.0,0.0,0.0,0.0,0.0,0.0,0.0,0.0,0.0,0.0,0.0,0.0,0.0,0.0,0.0,0.0,0.0,0.0,0.0,0.0,0.0,0.0,0.0,0.0,-0.7587,-0.7587,-0.8928,-0.9579,-0.9579,-0.9579,-0.9579,-0.9579,-0.9579,-0.9579,0.0,0.0,-0.9579,-0.9579,-0.9579,-0.9539,-0.9441,-0.9412,-0.9169,-0.8893,-0.884,-0.8731,-0.8649,-0.862,-0.8696,-0.8784,-0.8784,-0.9388,-1.0115,-1.0115,-1.0679,-1.137,-1.1709,-1.2467,-1.3402,-1.4265,-1.4427,-1.4282,-1.3973,-1.3656,-1.3384,-1.3264,-1.3236,-1.3309,-1.3455,-1.3492,-1.3492,-1.3492,-1.3492,-1.3492,-1.3492,-1.3492,-1.3492,-1.3492,-1.3601,-1.3912,-1.4537,-1.4708,-1.5029,-1.571,-1.5745,-1.5851,-1.6123,-1.706,-1.7959,-1.8774,-1.9008,-1.9108,-1.9108,-1.9108,-1.9108,-1.9108,-1.9108,-1.9108,-1.9108,-1.9198,-1.9264,0.0,0.0,-0.0084,-0.0412,-0.0501,-0.0563,-0.0801,-0.0868,0.0,0.0,0.0,0.0,0.0,0.0,0.0,0.0,0.0,0.0,0.0,0.0,0.0,0.0,0.0,0.0,0.0,0.0,0.0,0.0,0.0,0.0,0.0,0.0,0.0,0.0,0.0,0.0,-0.6876,-0.7524,-0.8241,-0.8931,-0.8931,-0.9179,-0.9579,-0.9579,-0.9579,0.0,0.0,-0.9579,-0.9571,-0.9518,-0.9477,-0.9384,-0.9141,-0.8966,-0.8808,-0.8718,-0.8633,-0.8612,-0.8612,-0.8612,-0.8612,-0.8612,-0.8872,-0.9213,-0.9213,-0.9515,-0.9946,-1.0419,-1.1273,-1.2211,-1.2802,-1.3108,-1.3323,-1.3313,-1.3301,-1.3275,-1.3248,-1.313,-1.3083,-1.3309,-1.3346,-1.3382,-1.3499,-1.3492,-1.3492,-1.3492,-1.3492,-1.3492,-1.3492,-1.3492,-1.3637,-1.3977,-1.4013,-1.4158,-1.4482,-1.4517,-1.5081,-1.6376,-1.6966,-1.7662,-1.8617,-1.8841,-1.8942,-1.8942,-1.9042,-1.9108,-1.9108,-1.9108,-1.9108,-1.9108,-1.9108,-1.9108,0.0,0.0,-0.0078,-0.035,-0.0419,-0.0479,-0.0842,-0.0911,-0.0925,0.0,0.0,0.0,0.0,0.0,0.0,0.0,0.0,0.0,0.0,0.0,0.0,0.0,0.0,0.0,0.0,0.0,0.0,0.0,0.0,0.0,0.0,0.0,0.0,0.0,0.0,0.0,-0.5795,-0.5681,-0.6446,-0.8077,-0.8111,-0.8406,-0.901,-0.92,-0.9318,-0.9318,-0.9465,-0.9563,-0.9551,-0.9368,-0.9318,-0.9249,-0.8926,-0.8796,-0.8743,-0.8617,-0.8612,-0.8612,-0.8612,-0.8612,-0.8612,-0.8612,-0.8612,-0.8612,-0.8612,-0.8612,-0.874,-0.9428,-1.012,-1.0804,-1.144,-1.1891,-1.226,-1.2345,-1.252,-1.2639,-1.2576,-1.257,-1.2636,-1.2856,-1.3083,-1.3273,-1.3455,-1.3492,-1.3492,-1.3492,-1.3492,-1.3492,-1.3492,-1.3492,-1.3492,-1.3492,-1.3492,-1.3492,-1.3492,-1.3492,-1.4374,-1.6411,-1.6724,-1.7242,-1.8134,-1.8361,-1.8563,-1.8741,-1.8875,-1.8975,-1.8975,-1.9008,-1.9042,-1.9042,-1.9065,-1.9108,0.0,0.0,-0.0042,-0.0178,-0.0321,-0.0501,-0.0908,-0.1003,0.0,-0.1088,0.0,0.0,0.0,0.0,0.0,0.0,0.0,0.0,0.0,0.0,0.0,0.0,0.0,0.0,0.0,0.0,0.0,0.0,0.0,0.0,0.0,0.0,0.0,0.0,0.0,0.0,-0.3333,-0.3337,-0.4623,-0.7099,-0.718,-0.7174,-0.7196,-0.8,-0.8408,-0.8453,-0.9132,-0.942,-0.9408,-0.9185,-0.9015,-0.8857,-0.8832,-0.8723,-0.8629,-0.8616,-0.8612,-0.8612,-0.8612,-0.8612,-0.8612,-0.8612,-0.8612,-0.8612,-0.8612,-0.8612,-0.8612,-0.8656,-0.874,-0.9174,-1.0895,-1.1354,-1.1272,-1.0857,-1.0767,-1.0738,-1.047,-1.0999,-1.1626,-1.202,-1.2696,-1.3273,-1.3455,-1.3492,-1.3492,-1.3492,-1.3492,-1.3492,-1.3492,-1.3492,-1.3492,-1.3492,-1.3492,-1.3492,-1.3492,-1.3492,-1.3876,-1.4744,-1.5587,-1.6428,-1.7182,-1.7379,-1.7833,-1.8516,-1.8549,-1.8549,-1.8549,-1.8741,-1.8808,-1.8841,-1.9008,-1.9108,0.0,0.0,-0.0043,-0.0222,-0.028,0.0,0.0,-0.0975,-0.1261,-0.1888,-0.2656,0.0,0.0,0.0,0.0,0.0,0.0,0.0,0.0,0.0,0.0,0.0,0.0,0.0,0.0,0.0,0.0,0.0,0.0,0.0,0.0,0.0,0.0,0.0,0.0,0.0,0.0,-0.2743,-0.3205,-0.4441,-0.5058,-0.5784,-0.6499,-0.6833,-0.7,-0.7,-0.7282,-0.7665,-0.8077,-0.787,-0.8185,-0.8808,-0.8706,-0.8625,-0.8612,-0.8612,-0.8612,-0.8612,-0.8612,-0.8612,-0.8612,-0.8612,-0.8612,-0.8612,-0.8612,-0.8612,-0.8612,-0.8612,-0.8612,-0.874,-0.9432,-1.0033,-1.038,-1.0211,-1.0372,-1.0557,-1.0453,-1.045,-1.0689,-1.1471,-1.1885,-1.2342,-1.3156,-1.3309,-1.3346,-1.3499,-1.3492,-1.3492,-1.3492,-1.3492,-1.3492,-1.3492,-1.3492,-1.3492,-1.3492,-1.3492,-1.3637,-1.3912,-1.5108,-1.6158,-1.6932,-1.7594,-1.809,-1.8371,-1.8448,-1.8516,-1.8516,-1.8583,-1.8607,-1.8617,-1.8808,-1.8908,0.0,0.0,-0.0022,-0.0182,0.0,0.0,-0.0566,-0.0775,-0.123,-0.2356,-0.348,0.0,0.0,0.0,0.0,0.0,0.0,0.0,0.0,0.0,0.0,0.0,0.0,0.0,0.0,0.0,0.0,0.0,0.0,0.0,0.0,0.0,0.0,0.0,0.0,0.0,0.0,-0.2138,-0.2138,-0.242,-0.3086,-0.4009,-0.5174,-0.5437,-0.5546,-0.5592,-0.5829,-0.6202,-0.6656,-0.6469,-0.7098,-0.8181,-0.8384,-0.8472,-0.8472,-0.8472,-0.8472,-0.8476,-0.8568,-0.8612,-0.8612,-0.8612,-0.8612,-0.8612,-0.8612,-0.8612,-0.8612,-0.8612,-0.8612,-0.8612,-0.8612,-0.9043,-0.944,-0.9309,-0.9563,-0.9761,-0.9622,-0.9547,-0.975,-1.0507,-1.0838,-1.1366,-1.2526,-1.2716,-1.2856,-1.3236,-1.3346,-1.3419,-1.3419,-1.3455,-1.3492,-1.3492,-1.3492,-1.3492,-1.3492,-1.3492,-1.3492,-1.3492,-1.4653,-1.5596,-1.6158,-1.7001,-1.7604,-1.7842,-1.8168,-1.8347,-1.8347,-1.8414,-1.8448,-1.8448,-1.8674,-1.8808,0.0,0.0,0.0,0.0,0.0,0.0,-0.0298,-0.0422,-0.09,-0.2266,-0.4022,-0.5565,-0.6533,0.0,0.0,0.0,0.0,0.0,0.0,0.0,0.0,0.0,0.0,0.0,0.0,0.0,0.0,0.0,0.0,0.0,0.0,0.0,0.0,0.0,0.0,0.0,0.0,-0.1391,-0.1391,-0.1391,-0.1391,-0.1928,-0.2914,-0.3791,-0.4192,-0.4238,-0.4972,-0.5295,-0.5286,-0.5086,-0.5708,-0.6868,-0.7801,-0.8153,-0.8197,-0.8197,-0.8201,-0.8245,-0.852,-0.8612,-0.8612,-0.8612,-0.8612,-0.8612,-0.8612,-0.8612,-0.8612,-0.8612,-0.8612,-0.8612,-0.8612,-0.8608,-0.8514,-0.8101,-0.8016,-0.7914,-0.7561,-0.8131,-0.8737,-0.896,-0.9636,-1.0496,-1.1515,-1.1706,-1.1966,-1.2783,-1.3083,-1.32,-1.32,-1.3382,-1.3492,-1.3492,-1.3492,-1.3492,-1.3492,-1.3492,-1.3492,-1.3492,-1.4194,-1.4601,-1.4601,-1.5313,-1.6053,-1.6862,-1.7613,-1.7974,-1.7974,-1.8212,-1.8303,-1.8303,-1.864,-1.8808,0.0,0.0,0.0,0.0,0.0,0.0,0.0,-0.0852,0.0,0.0,-0.4853,-0.5488,0.0,0.0,0.0,0.0,0.0,0.0,0.0,0.0,0.0,0.0,0.0,0.0,0.0,0.0,0.0,0.0,0.0,0.0,0.0,0.0,0.0,0.0,0.0,0.0,0.0,0.0,-0.1391,-0.1391,-0.1391,-0.1749,-0.2423,-0.2662,-0.2804,-0.2805,-0.3029,-0.3387,-0.3877,-0.4654,-0.522,-0.5575,-0.5841,-0.6372,-0.6949,-0.6949,-0.7397,-0.7984,-0.8076,-0.8208,-0.8336,-0.8336,-0.8428,-0.8612,-0.8612,-0.8612,-0.8612,-0.8612,-0.8612,-0.8612,-0.8612,-0.8514,-0.8345,-0.8235,-0.8109,-0.7951,-0.7763,-0.7768,-0.8055,-0.8661,-0.8965,-0.9642,-1.1217,-1.1484,-1.1818,-1.2753,-1.2936,-1.2973,-1.2973,-1.3156,-1.3309,-1.3309,-1.3419,-1.3492,-1.3492,-1.3492,-1.3492,-1.3492,-1.3702,-1.4049,-1.4565,-1.5313,-1.5807,-1.6053,-1.6837,-1.7226,-1.7226,-1.7794,-1.8076,-1.811,-1.8438,-1.8583,0.0,0.0,0.0,0.0,0.0,-0.0105,-0.0456,0.0,0.0,0.0,0.0,0.0,0.0,0.0,0.0,0.0,0.0,0.0,0.0,0.0,0.0,0.0,0.0,0.0,0.0,0.0,0.0,0.0,0.0,0.0,0.0,0.0,0.0,0.0,0.0,0.0,0.0,0.0,0.0,-0.1391,-0.1391,-0.157,-0.1885,-0.1885,-0.1885,-0.1885,-0.1885,-0.2107,-0.2596,-0.3796,-0.4285,-0.4332,-0.4688,-0.5176,-0.5664,-0.5664,-0.6065,-0.665,-0.7136,-0.7445,-0.7709,-0.8065,-0.8384,-0.8612,-0.8612,-0.8612,-0.8612,-0.8612,-0.8612,-0.8612,-0.8612,-0.8473,-0.8272,-0.8199,-0.8044,-0.7866,-0.7726,-0.76,-0.7633,-0.8131,-0.8208,-0.8661,-1.0094,-1.0576,-1.1136,-1.204,-1.2526,-1.2826,-1.29,-1.301,-1.3119,-1.3193,-1.3309,-1.3419,-1.3492,-1.3492,-1.3492,-1.3492,-1.3492,-1.3702,-1.4158,-1.4859,-1.5242,-1.5242,-1.6018,-1.6411,-1.6411,-1.6872,-1.726,-1.7579,-1.7818,-1.8124,0.0024,0.0,0.0,0.0,0.0,0.0,-0.1064,-0.1464,-0.1695,0.0,0.0,0.0,0.0,0.0,0.0,0.0,0.0,0.0,0.0,0.0,0.0,0.0,0.0,0.0,0.0,0.0,0.0,0.0,0.0,0.0,0.0,0.0,0.0,0.0,0.0,0.0,0.0,0.0,0.0,0.0,-0.1391,-0.1391,-0.1391,-0.1391,-0.1391,-0.1391,-0.1391,-0.1391,-0.148,-0.2596,-0.3041,-0.313,-0.3978,-0.438,-0.4425,-0.4425,-0.4514,-0.4734,-0.5841,-0.6416,-0.6823,-0.7753,-0.8248,-0.852,-0.8568,-0.8612,-0.8612,-0.8612,-0.8612,-0.8608,-0.8592,-0.8402,-0.8219,-0.8036,-0.787,-0.7747,-0.7563,-0.7484,-0.7484,-0.7484,-0.7484,-0.7748,-0.8546,-0.9296,-1.0045,-1.0881,-1.1818,-1.2526,-1.2709,-1.2826,-1.2936,-1.3119,-1.3156,-1.3236,-1.3455,-1.3455,-1.3499,-1.3492,-1.3492,-1.3492,-1.3492,-1.4158,-1.4494,-1.4494,-1.5207,-1.5604,-1.5604,-1.5675,-1.6097,-1.6793,-1.6932,-1.7423,0.0023,0.0,0.0,0.0,0.0,-0.0039,-0.0243,-0.0328,0.0,0.0,0.0,0.0,0.0,0.0,0.0,0.0,0.0,0.0,0.0,0.0,0.0,0.0,0.0,0.0,0.0,0.0,0.0,0.0,0.0,0.0,0.0,0.0,0.0,0.0,0.0,0.0,-0.1391,-0.1391,-0.1391,0.0,-0.1391,-0.1391,-0.1391,-0.1391,-0.1391,-0.1391,-0.1391,-0.1391,-0.1436,-0.1659,-0.1792,-0.1792,-0.2016,-0.2552,-0.3269,-0.3269,-0.3712,-0.4423,-0.4643,-0.5179,-0.58,-0.6552,-0.7217,-0.7848,-0.8432,-0.8612,-0.8612,-0.8612,-0.8612,-0.8575,-0.839,-0.8211,-0.8028,-0.7894,-0.7829,-0.7747,-0.7563,-0.7484,-0.7484,-0.7484,-0.7484,-0.7748,-0.8546,-0.8851,-0.9226,-1.0045,-1.0875,-1.1446,-1.1484,-1.2187,-1.2673,-1.2709,-1.2863,-1.3046,-1.3236,-1.3273,-1.3346,-1.3492,-1.3492,-1.3492,-1.3492,-1.3637,-1.3739,-1.3739,-1.4474,-1.4851,-1.4851,-1.5428,-1.5781,-1.5956,-1.6158,-1.6645,0.0023,0.0,0.0,0.0,0.0,0.0,0.0,0.0,0.0,0.0,0.0,0.0,0.0,0.0,0.0,0.0,0.0,0.0,0.0,0.0,0.0,0.0,0.0,0.0,0.0,0.0,0.0,0.0,0.0,0.0,0.0,0.0,0.0,0.0,0.0,0.0,-0.1391,-0.1391,-0.1391,-0.1391,-0.1391,-0.1391,-0.1391,-0.1391,-0.1391,-0.1391,-0.1391,-0.1391,-0.1391,-0.1391,-0.1391,-0.1391,-0.1391,-0.1704,-0.2196,-0.2196,-0.2508,-0.2998,-0.3444,-0.3933,-0.4465,-0.5265,-0.5885,-0.6375,-0.6776,-0.6868,-0.7,-0.758,-0.7658,-0.7707,-0.8184,-0.8093,-0.787,-0.782,-0.7731,-0.7641,-0.7504,-0.7484,-0.7484,-0.7484,-0.7484,-0.7638,-0.8055,-0.8432,-0.8965,-0.9782,-1.0271,-1.0539,-1.0539,-1.0987,-1.1354,-1.1434,-1.1885,-1.2261,-1.2452,-1.2936,-1.3236,-1.3346,-1.3455,-1.3492,-1.3492,-1.3492,-1.3492,-1.3492,-1.3876,-1.4086,-1.4086,-1.4474,-1.4832,-1.5171,-1.5269,-1.5728,0.0044,0.0,0.0,0.0,0.0,0.0,0.0,0.0,0.0,0.0,0.0,0.0,0.0,0.0,0.0,0.0,0.0,0.0,0.0,0.0,0.0,0.0,0.0,0.0,0.0,0.0,0.0,0.0,0.0,0.0,0.0,0.0,0.0,0.0,0.0,-0.1378,-0.1383,-0.1383,-0.1385,-0.1391,-0.1391,-0.1391,-0.1391,-0.1391,-0.1391,-0.1391,-0.1391,-0.1391,-0.1391,-0.1391,-0.1391,-0.1391,-0.1391,-0.1391,-0.1391,-0.1391,-0.1391,-0.1524,-0.2331,-0.282,-0.3175,-0.4067,-0.4556,-0.4821,-0.4954,-0.4999,-0.522,-0.6198,-0.6365,-0.6511,-0.765,-0.7712,-0.7549,-0.772,-0.7633,-0.7484,-0.7484,-0.7484,-0.7484,-0.7484,-0.7484,-0.7484,-0.7484,-0.8055,-0.8737,-0.9405,-0.9593,-0.9707,-0.9707,-0.982,-0.997,-1.0115,-1.0726,-1.1292,-1.1632,-1.2415,-1.2973,-1.3193,-1.3346,-1.3455,-1.3492,-1.3492,-1.3492,-1.3492,-1.3492,-1.3492,-1.3492,-1.3492,-1.3804,-1.4394,-1.4394,-1.4824,0.0,0.0,0.0,0.0,0.0,0.0,0.0,0.0,0.0,0.0,0.0,0.0,0.0,0.0,0.0,0.0,0.0,0.0,0.0,0.0,0.0,0.0,0.0,0.0,0.0,0.0,0.0,0.0,0.0,0.0,0.0,0.0,-0.1311,-0.1311,-0.1315,0.0,-0.1396,-0.1396,-0.1409,-0.1391,-0.1391,-0.1391,-0.1391,-0.1391,-0.1391,-0.1391,-0.1391,-0.1391,-0.1391,-0.1391,-0.1391,-0.1391,-0.1391,-0.1391,-0.1391,-0.1391,-0.1391,-0.1436,-0.1569,-0.1929,-0.2466,-0.3176,-0.3667,-0.4158,-0.4821,-0.4999,-0.5043,-0.5176,-0.5228,-0.5419,-0.6244,-0.643,-0.6593,-0.7359,-0.7539,-0.7484,-0.7484,-0.7484,-0.7484,-0.7484,-0.7484,-0.7484,-0.7484,-0.7599,-0.771,-0.7825,-0.8432,-0.8851,-0.8851,-0.9485,-0.9895,-0.9933,-1.0045,-1.0458,-1.1372,-1.1558,-1.2077,-1.3119,-1.3236,-1.3309,-1.3492,-1.3492,-1.3492,-1.3492,-1.3492,-1.3492,-1.3492,-1.3492,-1.3564,-1.3637,-1.3637,-1.4049,0.0118,0.0048,0.0057,0.0,0.0,0.0,0.0,0.0,0.0,0.0,0.0,0.0,0.0,0.0,0.0,0.0,0.0,0.0,0.0,0.0,0.0,0.0,0.0,0.0,0.0,0.0,0.0,0.0,0.0,0.0,0.0,-0.1108,-0.1198,-0.1281,-0.1298,0.0,-0.1323,-0.1324,-0.1381,-0.141,-0.141,-0.1418,-0.1391,-0.1391,-0.1391,-0.1391,-0.1391,-0.1391,-0.1391,-0.1391,-0.1391,-0.1391,-0.1391,-0.1391,-0.1391,-0.1391,-0.1391,-0.1391,-0.1391,-0.157,-0.1794,-0.2105,-0.2329,-0.2552,-0.2862,-0.2971,-0.3118,-0.3816,-0.3896,-0.4037,-0.5063,-0.5245,-0.5294,-0.5667,-0.6121,-0.6472,-0.6584,-0.7092,-0.7484,-0.7484,-0.7484,-0.7484,-0.7484,-0.7484,-0.7484,-0.7484,-0.7787,-0.8016,-0.8016,-0.8356,-0.8537,-0.8537,-0.8955,-0.9415,-0.9868,-1.0389,-1.1062,-1.1818,-1.1966,-1.2335,-1.2973,-1.301,-1.3163,-1.3492,-1.3492,-1.3492,-1.3492,-1.3492,-1.3492,-1.3492,-1.3492,-1.3674,0.0,0.0,0.013,0.0123,0.0097,0.0,0.0,0.0,0.0,0.0,0.0,0.0,0.0,0.0,0.0,0.0,0.0,0.0,0.0,0.0,0.0,0.0,0.0,0.0,0.0,0.0,0.0,0.0,0.0,0.0,-0.0825,-0.0919,-0.1049,-0.121,-0.1272,-0.1287,-0.1295,-0.1302,-0.1316,-0.138,-0.138,-0.1391,-0.1369,-0.1369,-0.1373,-0.1379,-0.1387,-0.1391,-0.1391,-0.1391,-0.1391,-0.1391,-0.1391,-0.1391,-0.1391,-0.1391,-0.1391,-0.1391,-0.1391,-0.1391,-0.1391,-0.1391,-0.1391,-0.1389,-0.1381,-0.1408,-0.1605,-0.2455,-0.2594,-0.2759,-0.3887,-0.4095,-0.41,-0.4606,-0.5154,-0.5699,-0.6121,-0.6899,-0.7484,-0.7484,-0.7484,-0.7484,-0.7484,-0.7484,-0.7484,-0.7484,-0.7484,-0.7484,-0.7484,-0.7484,-0.7484,-0.7484,-0.8055,-0.8475,-0.8699,-0.9372,-1.0045,-1.0619,-1.0807,-1.1217,-1.2033,-1.2261,-1.2599,-1.3112,-1.3302,-1.3455,-1.3492,-1.3492,-1.3492,-1.3492,-1.3492,-1.3492,0.0,0.0442,0.0,0.0361,0.0,0.0,0.0,0.0,0.0,0.0,0.0,0.0,0.0,0.0,0.0,0.0,0.0,0.0,0.0,0.0,0.0,0.0,0.0,0.0,0.0,0.0,0.0,0.0,0.0,0.0,-0.0628,-0.0787,-0.0905,-0.0905,-0.1182,-0.1316,-0.1305,-0.1292,-0.1306,-0.1308,-0.1308,-0.1309,-0.131,-0.131,-0.1325,-0.1394,-0.1378,-0.1391,-0.1391,-0.1391,-0.1391,-0.1391,-0.1391,-0.1391,-0.1391,-0.1391,-0.1391,-0.1391,-0.1391,-0.1391,-0.1391,-0.1391,-0.1391,-0.1385,-0.1401,-0.1391,-0.1384,-0.14,-0.1409,-0.1627,-0.2718,-0.2948,-0.3324,-0.5115,-0.5583,-0.5893,-0.6907,-0.733,-0.7484,-0.7484,-0.7484,-0.7484,-0.7484,-0.7484,-0.7484,-0.7484,-0.7484,-0.7484,-0.7484,-0.7484,-0.7484,-0.7484,-0.7522,-0.7863,-0.8627,-0.8737,-0.9188,-1.0158,-1.0228,-1.0378,-1.0602,-1.1323,-1.1848,-1.2087,-1.2813,-1.3309,-1.3492,-1.3492,-1.3492,-1.3492,-1.3492,-1.3492,0.0,0.0,0.0,0.0,0.0,0.0,0.0,0.0,0.0,0.0,0.0,0.0,0.0,0.0,0.0,0.0,0.0,0.0,0.0,0.0,0.0,0.0,0.0,0.0,0.0,0.0,0.0,0.0,0.0,0.0,-0.0393,-0.0471,-0.0589,-0.0707,-0.0943,-0.1144,-0.1313,-0.1284,-0.1299,-0.1319,-0.1319,-0.1288,-0.1305,-0.1305,-0.1311,-0.1321,-0.1331,-0.1357,-0.1391,-0.1391,-0.1391,-0.1391,-0.1391,-0.1391,-0.1391,-0.1391,-0.1391,-0.1391,-0.1391,-0.1391,-0.1391,-0.1391,-0.1422,-0.1404,-0.1393,-0.1364,-0.1332,-0.1322,-0.1297,-0.1393,-0.1788,-0.1856,-0.2156,-0.3327,-0.4146,-0.4882,-0.5777,-0.6588,-0.7134,-0.7292,-0.7296,-0.7334,-0.7484,-0.7484,-0.7484,-0.7484,-0.7484,-0.7484,-0.7484,-0.7484,-0.7484,-0.7484,-0.7484,-0.7633,-0.7902,-0.794,-0.8203,-0.8813,-0.8851,-0.9188,-0.9895,-1.0196,-1.0571,-1.1044,-1.194,-1.2776,-1.3492,-1.3492,-1.3492,-1.3492,-1.3492,-1.3492,0.1215,0.0,0.0,0.0,0.0,0.0,0.0,0.0,0.0,0.0,0.0,0.0,0.0,0.0,0.0,0.0,0.0,0.0,0.0,0.0,0.0,0.0,0.0,0.0,0.0,0.0,0.0,0.0,0.0,0.0,-0.0196,-0.0275,-0.0393,-0.0589,-0.0786,-0.0982,-0.1178,-0.1257,-0.1307,-0.1287,-0.1287,-0.1298,-0.1318,-0.1318,-0.1282,-0.1291,-0.1291,-0.1323,-0.142,-0.142,-0.1381,-0.1391,-0.1391,-0.1391,-0.1391,-0.1391,-0.1391,-0.1391,-0.1391,-0.1384,-0.142,-0.142,-0.14,-0.1373,-0.1364,-0.1333,-0.1301,-0.129,-0.1312,-0.1296,-0.1296,-0.1492,-0.1846,-0.2354,-0.3251,-0.4144,-0.4686,-0.589,-0.6942,-0.7061,-0.7103,-0.7138,-0.7288,-0.7369,-0.7407,-0.7407,-0.7446,-0.7484,-0.7484,-0.7484,-0.7484,-0.7484,-0.7484,-0.7484,-0.7484,-0.7484,-0.7599,-0.7872,-0.791,-0.8208,-0.8879,-0.9145,-0.9523,-1.0002,-1.0932,-1.1835,-1.2709,-1.3236,-1.3492,-1.3492,-1.3492,-1.3492,0.0,0.0,0.0,0.0,0.0,0.0,0.0,0.0,0.0,0.0,0.0,0.0,0.0,0.0,0.0,0.0,0.0,0.0,0.0,0.0,0.0,0.0,0.0,0.0,0.0,0.0,0.0,0.0,0.0,0.0039,0.0079,-0.0118,-0.0314,-0.055,-0.0707,-0.0825,-0.0864,-0.11,-0.1218,-0.1218,-0.1218,-0.1218,-0.1218,-0.1257,-0.1273,-0.1261,-0.1301,-0.1334,-0.1387,-0.1388,-0.1406,-0.1388,-0.1388,-0.1388,-0.1388,-0.1388,-0.1388,-0.1388,-0.1388,-0.1413,-0.1388,-0.1388,-0.1369,-0.1299,-0.1311,-0.1302,-0.1295,-0.1305,-0.1296,-0.1296,-0.1296,-0.1884,-0.247,-0.247,-0.3132,-0.3752,-0.3752,-0.5384,-0.6822,-0.6865,-0.6861,-0.6899,-0.6903,-0.7061,-0.7184,-0.7184,-0.7369,-0.7484,-0.7484,-0.7484,-0.7484,-0.7484,-0.7484,-0.7484,-0.7484,-0.7484,-0.7484,-0.7484,-0.7484,-0.7484,-0.7484,-0.8246,-0.8737,-0.896,-0.9744,-1.0458,-1.1037,-1.2673,-1.3455,-1.3455,-1.3492,-1.3492,0.208,0.0,0.0,0.0,0.0,0.0,0.0,0.0,0.0,0.0,0.0,0.0,0.0,0.0,0.0,0.0,0.0,0.0,0.0,0.0,0.0,0.0,0.0,0.0,0.0,0.0,0.0,0.0,0.0,0.1176,0.1761,0.1761,0.1331,0.051,0.1057,0.0979,0.0196,0.0744,0.1017,0.1017,0.1017,0.0861,0.0549,0.0078,-0.0315,-0.0595,-0.1071,-0.1292,-0.1328,-0.1308,-0.1322,-0.1329,-0.1329,-0.1329,-0.1329,-0.1329,-0.1329,-0.1329,-0.1329,-0.1324,-0.1317,-0.1317,-0.1298,-0.1313,-0.1305,-0.1287,-0.1307,-0.1299,-0.1296,-0.1296,-0.1296,-0.1453,-0.1649,-0.1649,-0.2275,-0.286,-0.286,-0.3793,-0.488,-0.5616,-0.6244,-0.6714,-0.6865,-0.6942,-0.7022,-0.718,-0.7257,-0.733,-0.7484,-0.7484,-0.7484,-0.7484,-0.7484,-0.7484,-0.7484,-0.7484,-0.7484,-0.7484,-0.7484,-0.7484,-0.7484,-0.7714,-0.7863,-0.7902,-0.8846,-0.941,-0.9604,-1.1502,-1.2542,-1.2856,-1.3309,-1.3492,0.0,0.0,0.0,0.0,0.0,0.0,0.0,0.0,0.0,0.0,0.0,0.0,0.0,0.0,0.0,0.0,0.0,0.0,0.0,0.0,0.0,0.0,0.0,0.0,0.0,0.0,0.0,0.0,0.1899,0.187,0.2389,0.2452,0.2229,0.1605,0.1995,0.1917,0.1291,0.1681,0.1916,0.1916,0.1916,0.176,0.1527,0.1135,0.0822,0.0588,0.0196,0.0039,0.004,0.0041,-0.0496,-0.1305,-0.1305,-0.1305,-0.1305,-0.1305,-0.1305,-0.1305,-0.1305,-0.1298,-0.1288,-0.1288,-0.1309,-0.1284,-0.1284,-0.1311,-0.1296,-0.1296,-0.1296,-0.1296,-0.1296,-0.1296,-0.1296,-0.1296,-0.1649,-0.2002,-0.2002,-0.2665,-0.3521,-0.4491,-0.5076,-0.5467,-0.5577,-0.5967,-0.6279,-0.6398,-0.6868,-0.7261,-0.7373,-0.7446,-0.7484,-0.7484,-0.7484,-0.7484,-0.7484,-0.7484,-0.7484,-0.7484,-0.7484,-0.7484,-0.7484,-0.7484,-0.7484,-0.7484,-0.8093,-0.8732,-0.9523,-1.1093,-1.2181,-1.2746,-1.3156,-1.3382,0.0,0.0,0.0,0.0,0.0,0.0,0.0,0.3395,0.0,0.0,0.0,0.0,0.0,0.0,0.0,0.0,0.0,0.0,0.0,0.0,0.0,0.0,0.0,0.0,0.0,0.0,0.0,0.2363,0.24,0.2425,0.2556,0.2692,0.2728,0.2611,0.2539,0.2464,0.2384,0.2306,0.2228,0.2228,0.2228,0.2228,0.2189,0.2111,0.2032,0.1994,0.1916,0.1916,0.1916,0.1916,0.0763,-0.0961,-0.1045,-0.1087,-0.1128,-0.1212,-0.1254,-0.1296,-0.1296,-0.132,-0.1298,-0.1298,-0.1319,-0.1296,-0.1296,-0.1296,-0.1296,-0.1296,-0.1296,-0.1296,-0.1296,-0.1296,-0.1296,-0.1296,-0.1296,-0.1296,-0.1296,-0.1845,-0.2588,-0.3365,-0.3677,-0.3791,-0.3791,-0.4528,-0.519,-0.5267,-0.6282,-0.7026,-0.718,-0.7373,-0.7484,-0.7484,-0.7484,-0.7484,-0.7484,-0.7484,-0.7484,-0.7484,-0.7484,-0.7484,-0.7484,-0.7484,-0.7484,-0.7484,-0.7484,-0.8351,-1.004,-1.0987,-1.1966,-1.29,-1.3003,-1.3119,0.0,0.0,0.0,0.0,0.0,0.0,0.0,0.3086,0.0,0.0,0.0,0.0,0.0,0.0,0.0,0.0,0.0,0.0,0.0,0.0,0.0,0.0,0.0,0.0,0.0,0.0,0.3339,0.4135,0.4179,0.4188,0.4247,0.4313,0.4069,0.3423,0.4069,0.4148,0.348,0.4109,0.4387,0.4387,0.4387,0.4229,0.3912,0.3361,0.2932,0.2582,0.2111,0.1916,0.1916,0.1916,0.1651,0.119,0.0516,0.0119,-0.0079,-0.0757,-0.1115,-0.1314,-0.1314,-0.1311,-0.1305,-0.1305,-0.1302,-0.1296,-0.1296,-0.1296,-0.1296,-0.1296,-0.1296,-0.1296,-0.1296,-0.1296,-0.1296,-0.1296,-0.1296,-0.1296,-0.1296,-0.1414,-0.157,-0.1766,-0.2857,-0.3791,-0.3791,-0.3947,-0.4373,-0.519,-0.55,-0.6047,-0.7065,-0.7219,-0.7334,-0.7484,-0.7484,-0.7484,-0.7484,-0.7484,-0.7484,-0.7484,-0.7484,-0.7484,-0.7484,-0.7484,-0.7484,-0.7484,-0.7484,-0.7978,-0.8998,-0.9674,-1.1025,-1.29,-1.2432,-1.2579,0.0,0.0,0.0,0.3856,0.0,0.0,0.0,0.0,0.0,0.0,0.0,0.0,0.0,0.0,0.0,0.0,0.0,0.0,0.0,0.0,0.0,0.0,0.0,0.0,0.0,0.0,0.3903,0.4469,0.4564,0.4597,0.4597,0.4714,0.4559,0.4151,0.4614,0.4671,0.4304,0.4693,0.4917,0.5018,0.5018,0.4898,0.4701,0.4343,0.407,0.3876,0.3561,0.3443,0.3443,0.3443,0.3443,0.3287,0.1838,0.1174,0.1056,0.0627,0.0118,-0.0353,-0.0353,-0.0667,-0.11,-0.11,-0.1178,-0.1296,-0.1296,-0.1296,-0.1296,-0.1296,-0.1296,-0.1296,-0.1296,-0.1296,-0.1296,-0.1296,-0.1296,-0.1296,-0.1296,-0.1296,-0.1296,-0.1296,-0.1961,-0.2546,-0.2546,-0.2898,-0.3327,-0.3832,-0.4375,-0.4921,-0.5583,-0.6089,-0.644,-0.6553,-0.6938,-0.7249,-0.7334,-0.7334,-0.7411,-0.7484,-0.7484,-0.7484,-0.7484,-0.7484,-0.7484,-0.7484,-0.7484,-0.7902,-0.8703,-0.8618,-0.9518,-1.1397,-1.1694,-1.207,0.0,0.0,0.0,0.0,0.0,0.4085,0.0,0.0,0.0,0.0,0.0,0.0,0.0,0.0,0.0,0.0,0.0,0.0,0.0,0.0,0.0,0.0,0.0,0.0,0.0,0.0,0.4075,0.4219,0.4328,0.4386,0.4432,0.4575,0.4654,0.4654,0.4676,0.4736,0.4798,0.4785,0.4844,0.4944,0.5007,0.5018,0.5018,0.5018,0.5018,0.5018,0.5018,0.5018,0.5018,0.5018,0.5018,0.482,0.2971,0.2228,0.2188,0.2033,0.1486,0.0861,0.0861,0.0274,-0.051,-0.0628,-0.0942,-0.1296,-0.1296,-0.1296,-0.1296,-0.1296,-0.1296,-0.1296,-0.1296,-0.1296,-0.1296,-0.1296,-0.1296,-0.1296,-0.1296,-0.1296,-0.1296,-0.1296,-0.1296,-0.1296,-0.1296,-0.1846,-0.2314,-0.247,-0.3251,-0.3873,-0.4068,-0.4807,-0.5389,-0.5583,-0.624,-0.6788,-0.7103,-0.7142,-0.7219,-0.7365,-0.7407,-0.7446,-0.7446,-0.7484,-0.7484,-0.7484,-0.7484,-0.7825,-0.8475,-0.7825,-0.8313,-0.9927,-1.0763,-1.1254,0.0,0.0,0.0,0.0,0.4729,0.0,0.0,0.0,0.0,0.0,0.0,0.0,0.0,0.0,0.0,0.0,0.0,0.0,0.0,0.0,0.0,0.0,0.0,0.0,0.0,0.0,0.0,0.393,0.3917,0.3958,0.4145,0.4371,0.4525,0.4525,0.4632,0.4695,0.4709,0.4779,0.4804,0.482,0.4928,0.5018,0.5018,0.5018,0.5018,0.5018,0.5018,0.5018,0.5018,0.5018,0.5018,0.4898,0.3951,0.3439,0.3125,0.2423,0.1994,0.176,0.176,0.1448,0.094,0.0353,-0.051,-0.1296,-0.1296,-0.1296,-0.1296,-0.1296,-0.1296,-0.1296,-0.1296,-0.1296,-0.1296,-0.1296,-0.1296,-0.1296,-0.1296,-0.1296,-0.1296,-0.1296,-0.1296,-0.1296,-0.1296,-0.1375,-0.1689,-0.2393,-0.2588,-0.3017,-0.399,-0.4185,-0.4611,-0.5506,-0.5699,-0.6086,-0.6865,-0.6942,-0.6942,-0.698,-0.7138,-0.7219,-0.7219,-0.7407,-0.7484,-0.7484,-0.7484,-0.7561,-0.7638,-0.7561,-0.8313,-0.9895,-0.9485,-0.9674,0.0,0.0,0.0,0.0,0.0,0.0,0.0,0.0,0.4968,0.0,0.0,0.0,0.0,0.0,0.0,0.0,0.0,0.0,0.0,0.0,0.0,0.0,0.0,0.0,0.0,0.0,0.0,0.0,0.0,0.3821,0.4102,0.4213,0.4298,0.4371,0.4457,0.4514,0.458,0.4597,0.4694,0.4795,0.4849,0.4909,0.5018,0.5018,0.5018,0.5018,0.5018,0.5018,0.5018,0.5018,0.5018,0.4976,0.4621,0.4423,0.4304,0.3954,0.3482,0.3008,0.3008,0.2503,0.176,0.1369,0.0587,-0.0157,0.0118,-0.0157,-0.051,-0.0275,-0.0196,-0.0275,-0.0628,-0.0707,-0.0825,-0.1218,-0.1296,-0.1296,-0.1296,-0.1296,-0.1296,-0.1296,-0.1296,-0.1296,-0.1296,-0.1296,-0.1414,-0.1766,-0.1805,-0.1962,-0.243,-0.2899,-0.3327,-0.3756,-0.4261,-0.4957,-0.589,-0.5967,-0.6237,-0.6861,-0.698,-0.7061,-0.7184,-0.7296,-0.7369,-0.7484,-0.7382,-0.7334,-0.7334,-0.7265,-0.7576,-0.823,-0.8638,-0.8988,0.7784,0.0,0.0,0.0,0.0,0.0,0.0,0.0,0.0,0.0,0.0,0.0,0.0,0.0,0.0,0.0,0.0,0.0,0.0,0.0,0.0,0.0,0.0,0.0,0.0,0.0,0.0,0.0,0.0,0.0,0.3996,0.408,0.4159,0.4246,0.4284,0.4341,0.4457,0.449,0.4558,0.4735,0.4763,0.4825,0.492,0.4985,0.4999,0.493,0.5002,0.5018,0.5018,0.5018,0.5018,0.5018,0.5018,0.5018,0.5018,0.5018,0.4621,0.4146,0.4146,0.3441,0.2501,0.2228,0.1603,0.1017,0.137,0.1019,0.0549,0.0746,0.0785,0.0667,0.0079,-0.0039,-0.0236,-0.0864,-0.1021,-0.1061,-0.1257,-0.1296,-0.1296,-0.1296,-0.1296,-0.1296,-0.1296,-0.1296,-0.1296,-0.1296,-0.1296,-0.1296,-0.1296,-0.1805,-0.2276,-0.247,-0.3054,-0.383,-0.4802,-0.4877,-0.5345,-0.6395,-0.6672,-0.6907,-0.7103,-0.7134,-0.7183,-0.7331,-0.7203,-0.7151,-0.7151,-0.7053,-0.6963,-0.6922,-0.7807,-0.822,0.0,0.0,0.0,0.6717,0.0,0.0,0.0,0.0,0.6106,0.0,0.0,0.0,0.0,0.0,0.0,0.5032,0.0,0.0,0.0,0.0,0.0,0.0,0.0,0.0,0.0,0.0,0.0,0.0,0.0,0.0,0.3769,0.3988,0.4086,0.4092,0.4238,0.4303,0.4306,0.4449,0.4509,0.452,0.4722,0.4773,0.4709,0.4909,0.4914,0.4809,0.4928,0.5018,0.5018,0.5018,0.5018,0.5018,0.5018,0.5018,0.5018,0.5018,0.4979,0.4976,0.4976,0.4265,0.3281,0.2895,0.2347,0.1876,0.1876,0.1876,0.176,0.137,0.1293,0.1176,0.0707,0.0589,0.0432,-0.0196,-0.0314,-0.051,-0.1178,-0.1296,-0.1296,-0.1296,-0.1296,-0.1296,-0.1296,-0.1296,-0.1296,-0.1296,-0.1296,-0.1296,-0.1296,-0.1335,-0.1649,-0.2433,-0.2511,-0.2899,-0.3791,-0.383,-0.4297,-0.5306,-0.6128,-0.6714,-0.6903,-0.69,-0.6923,-0.6923,-0.6977,-0.6996,-0.6996,-0.6992,-0.6902,-0.6708,-0.695,-0.7067,0.0,0.0,0.8888,0.7874,0.0,0.0,0.0,0.0,0.0,0.0,0.0,0.0,0.0,0.0,0.0,0.5371,0.0,0.0,0.0,0.0,0.0,0.0,0.0,0.0,0.0,0.0,0.0,0.0,0.0,0.0,0.0,0.3909,0.4003,0.4083,0.4238,0.43,0.43,0.4338,0.4395,0.4506,0.4553,0.4651,0.4692,0.4775,0.4798,0.4798,0.4839,0.4903,0.5018,0.5018,0.5018,0.5018,0.5018,0.5018,0.5018,0.5018,0.5018,0.5018,0.5018,0.4779,0.4423,0.4309,0.3754,0.3205,0.348,0.3168,0.2738,0.2899,0.2938,0.2821,0.2194,0.1843,0.149,0.0902,0.051,0.0236,0.0,-0.0039,-0.0157,-0.055,-0.0628,-0.0786,-0.1218,-0.1296,-0.1296,-0.1296,-0.1296,-0.1296,-0.1296,-0.1296,-0.1414,-0.1689,-0.1689,-0.2041,-0.286,-0.3482,-0.3919,-0.4235,-0.4568,-0.5076,-0.5827,-0.5891,-0.6203,-0.6878,-0.6821,-0.6816,-0.6816,-0.666,-0.657,-0.6513,-0.657,-0.666,0.9571,0.9639,0.0,0.0,0.8446,0.0,0.7641,0.0,0.0,0.0,0.0,0.0,0.0,0.0,0.0,0.6193,0.5739,0.0,0.0,0.0,0.0,0.0,0.0,0.0,0.0,0.0,0.2991,0.3374,0.0,0.0,0.0,0.0,0.3928,0.4016,0.417,0.4257,0.43,0.43,0.4338,0.4446,0.4484,0.4525,0.4566,0.4651,0.4709,0.4708,0.4758,0.4841,0.4917,0.4999,0.5018,0.5018,0.5018,0.5018,0.5018,0.5018,0.5018,0.5018,0.5018,0.5018,0.5018,0.5018,0.4659,0.4265,0.4543,0.4229,0.3798,0.3956,0.3995,0.3878,0.3288,0.2978,0.2626,0.1997,0.149,0.1099,0.0903,0.0707,0.0471,0.0079,0.0039,-0.0118,-0.055,-0.0786,-0.1021,-0.1257,-0.1296,-0.1296,-0.1296,-0.1296,-0.1296,-0.1296,-0.1296,-0.1492,-0.2041,-0.2859,-0.333,-0.3287,-0.3597,-0.4045,-0.4686,-0.4787,-0.5165,-0.5933,-0.6079,-0.6188,-0.632,-0.6377,-0.6387,-0.6387,-0.6387,-0.6477]}]]